     2              OBSERVATION DATA    GPS                 RINEX VERSION / TYPE
teqc 1997Sep10 19971010 23:21:02UTC                         PGM / RUN BY / DATE
                                                            COMMENT
Original Marker Name: YUMA                                  COMMENT
Campaign Name: NGS Salton Trough 1991                       COMMENT
4-Character Station Name: YUMA                              COMMENT
6-Character Antenna Code: TRMSST                            COMMENT
Vertical Measurement Point: BGP                             COMMENT
Vertical Offset to Rinex Ref. Point: 0.0597                 COMMENT
Radial Measurement Point: NGP                               COMMENT
Radial Offset to Rinex Ref. Point: 0.2334                   COMMENT
Antenna Height from Field Measurement: 1.5430 m             COMMENT
Original XYZ: -2196774.6124 -4887330.4750 3448425.9342      COMMENT
New XYZ position is based on association with SCEC monument COMMENT
E1C9S0R6+0011. Position of that monument is believed to be  COMMENT
valid to within 1 m horizontally; vertical accuracy         COMMENT
should be no worse than 3-times this value.                 COMMENT
                                                            COMMENT
Revised Rinex header created by UCSD GPS archive for        COMMENT
GSAC on 12-Apr-1999 (1999:102) 01:33:40 GMT                 COMMENT
For assistance contact dagnew@ucsd.edu or hjohnson@ucsd.edu COMMENT
                                                            COMMENT
YUMA NCMN 1983                                              MARKER NAME
unknown NATIONAL GEODETIC SURVEY                            OBSERVER / AGENCY
482 TRIMBLE 4000 SST NP 4.30 / SP 4.20                      REC # / TYPE / VERS
17 TR 4000SST L1/L2 GEO                                     ANT # / TYPE
 -2196778.0000 -4887337.0000  3448425.0000                  APPROX POSITION XYZ
        1.4655        0.0000        0.0000                  ANTENNA: DELTA H/E/N
     1     1     0                                          WAVELENGTH FACT L1/2
     3    C1    L1    L2                                    # / TYPES OF OBSERV
     0                                                      INTERVAL
  1991     3    25    21    45   15.000000                  TIME OF FIRST OBS
  1991     3    26     3    21   60.000000                  TIME OF LAST OBS
     0                                                      # OF SATELLITES
                                                            END OF HEADER
 91  3 25 21 45 15.0000000  0  4G18G 2G11G19
  20452180.555          -0.22318        -0.09532
  24229042.8204         -0.31555        -0.15071
  23556016.2734         -0.21156        -0.24271
  21017377.6024         -0.20357        -0.42672
 91  3 25 21 45 30.0000000  0  4G18G 2G11G19
  20452979.430        4198.302 8      3271.45722
  24218745.0554     -54117.14045    -42168.73861
  23548496.1564     -39526.93446    -30800.16161
  21014670.0004     -14250.06247    -11104.21662
 91  3 25 21 45 45.0000000  0  4G18G 2G11G19
  20453803.3524       8526.20548      6643.82063
  24208455.203     -108181.059 5    -84296.12221
  23540995.3444     -78950.12546    -61519.44361
  21011963.1254     -28450.47547    -22169.47562
 91  3 25 21 46  0.0000000  0  4G18G 2G11G19
  20454652.219       12984.865 8     10118.07522
  24198177.0944    -162190.58745   -126381.11361
  23533512.0864    -118268.19246    -92156.76861
  21009272.1724     -42600.06347    -33195.12762
 91  3 25 21 46 15.0000000  0  4G18G 2G11G19
  20455525.5474      17576.17648     13695.68862
  24187910.1644    -216143.60845   -168422.06461
  23526050.219     -157478.710 6   -122710.29721
  21006587.0474     -56696.88147    -44179.66762
 91  3 25 21 46 30.0000000  0  4G18G 2G11G19
  20456424.6094      22295.66648     17373.18762
  24177653.4144    -270044.69445   -210422.56361
  23518608.047     -196585.978 6   -153183.38521
  21003913.8754     -70745.52447    -55126.66262
 91  3 25 21 46 45.0000000  0  4G18G 2G11G19
  20457347.3054      27148.83548     21154.84862
  24167408.6804    -323888.08645   -252378.09961
  23511187.172     -235584.231 6   -183571.50621
  21001250.1804     -84740.71447    -66032.00562
 91  3 25 21 47  0.0000000  0  4G18G 2G11G19
  20458295.227       32129.418 8     25035.79722
  24157170.8364    -377679.50945   -294293.14661
  23503784.852     -274478.952 6   -213878.96421
  20998598.9924     -98688.22147    -76900.19162
 91  3 25 21 47 15.0000000  0  4G18G 2G11G19
  20459266.2504      37235.04348     29014.17662
  24146943.547     -431421.381 5   -336169.58321
  23496404.1334    -313272.25946   -244107.39161
  20995950.6724    -112590.60747    -87733.22362
 91  3 25 21 47 30.0000000  0  4G18G 2G11G19
  20460261.4534      42461.98148     33087.08462
  24136725.320     -485117.271 5   -378010.19521
  23489038.4614    -351967.54746   -274259.43361
  20993316.5554    -126451.66347    -98534.04762
 91  3 25 21 47 45.0000000  0  4G18G 2G11G19
  20461280.1024      47816.65848     37259.53062
  24126517.672     -538760.696 5   -419809.91521
  23481696.2664    -390558.30746   -304330.03861
  20990685.3524    -140265.13247   -109297.79362
 91  3 25 21 48  0.0000000  0  4G18G 2G11G19
  20462325.5164      53309.48948     41539.62962
  24116321.055     -592340.894 6   -461560.37121
  23474373.6414    -429033.43746   -334310.52761
  20988069.6024    -154020.50247   -120016.26362
 91  3 25 21 48 15.0000000  0  4G18G 2G11G19
  20463395.484       58931.213 8     45920.16822
  24106133.703     -645867.521 5   -503269.08521
  23467073.7424    -467402.12846   -364208.08061
  20985458.6804    -167727.35547   -130696.93162
 91  3 25 21 48 30.0000000  0  4G18G 2G11G19
  20464490.1644      64686.30548     50404.62562
  24095960.461     -699335.632 5   -544932.21721
  23459792.180     -505659.386 6   -394018.79421
  20982862.8674    -181381.02047   -141336.15662
 91  3 25 21 48 45.0000000  0  4G18G 2G11G19
  20465610.7114      70570.61248     54989.76962
  24085797.367     -752749.207 6   -586552.84121
  23452532.906     -543809.011 6   -423745.64121
  20980271.4844    -194985.63647   -151937.15462
 91  3 25 21 49  0.0000000  0  4G18G 2G11G19
  20466754.9304      76582.65048     59674.44463
  24075641.3364    -806109.68745   -628132.10461
  23445293.734     -581852.188 6   -453389.53621
  20977698.1724    -208542.65647   -162501.07062
 91  3 25 21 49 15.0000000  0  4G18G 2G11G19
  20467922.0864      82720.67448     64457.29162
  24065494.047     -859418.319 5   -669670.97921
  23438074.352     -619790.008 6   -482951.35121
  20975122.2734    -222053.68047   -173029.14762
 91  3 25 21 49 30.0000000  0  4G18G 2G11G19
  20469115.305       88988.191 8     69341.04323
  24055360.6954    -912671.73245   -711166.81261
  23430875.320     -657618.957 6   -512428.31621
  20972562.5004    -235515.62147   -183518.97562
 91  3 25 21 49 45.0000000  0  4G18G 2G11G19
  20470332.891       95387.689 8     74327.64123
  24045240.2814    -965866.99145   -752617.35261
  23423698.352     -695335.916 6   -541818.02221
  20970007.1024    -248925.52947   -193968.25462
 91  3 25 21 50  0.0000000  0  4G18G 2G11G19
  20471574.875      101911.319 8     79410.96423
  24035123.5784   -1019012.53345   -794029.13061
  23416539.7274    -732948.91946   -571126.72461
  20967466.1724    -262291.80447   -204383.53562
 91  3 25 21 50 15.0000000  0  4G18G 2G11G19
  20472841.836      108565.089 8     84595.69823
  24025024.0864   -1072101.66145   -835396.95261
  23409405.586     -770451.095 6   -600349.06521
  20964930.7504    -275607.95247   -214759.75962
 91  3 25 21 50 30.0000000  0  4G18G 2G11G19
  20474130.758      115342.579 8     89876.83123
  24014928.0084   -1125140.58245   -876725.64761
  23402286.500     -807848.459 6   -629489.73721
  20962406.4144    -288880.36347   -225101.90162
 91  3 25 21 50 45.0000000  0  4G18G 2G11G19
  20475442.0784     122234.09548     95246.81762
  24004841.938    -1178138.928 5   -918022.73821
  23395189.5634    -845150.54546   -658556.17861
  20959885.7584    -302118.95047   -235417.68362
 91  3 25 21 51  0.0000000  0  4G18G 2G11G19
  20476777.3524     129249.67448    100713.47562
  23994767.6414   -1231086.57145   -959280.31861
  23388110.8914    -882346.82546   -687540.17661
  20957376.2584    -315313.59947   -245699.22562
 91  3 25 21 51 15.0000000  0  4G18G 2G11G19
  20478136.727      136399.996 8    106285.13323
  23984703.172    -1283972.727 5  -1000489.98721
  23381054.5314    -919426.49746   -716433.29461
  20954875.0784    -328453.90847   -255938.43062
 91  3 25 21 51 30.0000000  0  4G18G 2G11G19
  20479523.1174     143680.98848    111958.59962
  23974648.7894   -1336801.28545  -1041654.79761
  23374019.8914    -956393.15146   -745238.36161
  20952386.1804    -341543.81247   -266138.35262
 91  3 25 21 51 45.0000000  0  4G18G 2G11G19
  20480931.6094     151080.78048    117724.64463
  23964604.773    -1389584.096 5  -1082783.95021
  23367003.5164    -993258.25546   -773964.30661
  20949899.2894    -354595.00647   -276308.11462
 91  3 25 21 52  0.0000000  0  4G18G 2G11G19
  20482363.3594     158606.62548    123588.90563
  23954571.625    -1442313.534 5  -1123871.49921
  23360011.1094   -1030014.04046   -802605.05061
  20947427.8834    -367600.16847   -286442.00462
 91  3 25 21 52 15.0000000  0  4G18G 2G11G19
  20483820.0314     166263.13748    129554.99063
  23944546.164    -1494984.733 5  -1164913.68621
  23353037.102    -1066655.682 6   -831156.87221
  20944960.1254    -380554.93447   -296536.62362
 91  3 25 21 52 30.0000000  0  4G18G 2G11G19
  20485302.1484     174048.77148    135621.68263
  23934534.4224   -1547599.31945  -1205911.76961
  23346087.250    -1103184.506 6   -859620.78621
  20942505.2664    -393460.92347   -306593.24162
 91  3 25 21 52 45.0000000  0  4G18G 2G11G19
  20486807.1644     181959.85748    141786.13463
  23924533.203    -1600160.521 5  -1246868.22621
  23339156.8524   -1139603.57346   -887999.17361
  20940058.9304    -406321.63947   -316614.57662
 91  3 25 21 53  0.0000000  0  4G18G 2G11G19
  20488337.4694     189995.45748    148047.60363
  23914538.406    -1652669.256 5  -1287783.82821
  23332244.969    -1175913.463 6   -916292.49121
  20937620.9534    -419137.90947   -326601.27962
 91  3 25 21 53 15.0000000  0  4G18G 2G11G19
  20489891.7584     198166.58448    154414.68263
  23904561.0784   -1705114.32345  -1328649.81861
  23325360.977    -1212102.867 6   -944491.92421
  20935189.6254    -431898.78347   -336544.81962
 91  3 25 21 53 30.0000000  0  4G18G 2G11G19
  20491469.953      206464.759 8    160880.75223
  23894592.406    -1757504.091 5  -1369472.72121
  23318494.6094   -1248179.88346   -972603.78561
  20932772.7894    -444612.74747   -346451.80662
 91  3 25 21 53 45.0000000  0  4G18G 2G11G19
  20493075.4144     214891.77248    167447.21163
  23884630.297    -1809836.683 5  -1410251.06321
  23311651.3364   -1284142.53046  -1000626.53861
  20930360.3284    -457278.13447   -356320.93462
 91  3 25 21 54  0.0000000  0  4G18G 2G11G19
  20494703.0704     223450.25148    174116.11663
  23874682.313    -1862109.346 5  -1450982.67821
  23304829.430    -1319987.742 6  -1028557.79821
  20927960.9454    -469892.11647   -366150.01162
 91  3 25 21 54 15.0000000  0  4G18G 2G11G19
  20496355.563      232135.885 8    180884.09923
  23864748.797    -1914326.179 5  -1491670.84221
  23298029.977    -1355719.415 6  -1056400.56921
  20925567.8984    -482458.87147   -375942.28962
 91  3 25 21 54 30.0000000  0  4G18G 2G11G19
  20498033.984      240953.808 8    187755.16423
  23854820.4924   -1966481.80845  -1532311.29661
  23291253.7894   -1391332.03846  -1084150.58261
  20923188.2114    -494973.37947   -385693.85262
 91  3 25 21 54 45.0000000  0  4G18G 2G11G19
  20499736.617      249901.873 8    194727.64023
  23844908.2734   -2018578.13745  -1572905.53361
  23284496.969    -1426827.214 6  -1111809.08621
  20920815.6414    -507437.58347   -395406.22162
 91  3 25 21 55  0.0000000  0  4G18G 2G11G19
  20501463.781      258976.524 8    201798.74823
  23835006.3594   -2070618.73745  -1613456.36961
  23277767.547    -1462208.530 6  -1139378.87921
  20918454.2424    -519855.51647   -405082.53762
 91  3 25 21 55 15.0000000  0  4G18G 2G11G19
  20503215.656      268183.748 8    208973.16323
  23825111.8754   -2122597.53445  -1653959.04661
  23271055.3134   -1497469.57846  -1166854.94861
  20916099.1484    -532221.01347   -414717.99562
 91  3 25 21 55 30.0000000  0  4G18G 2G11G19
  20504991.148      277515.600 8    216244.68623
  23815231.977    -2174521.969 5  -1694419.36421
  23264366.0634   -1532617.54646  -1194242.92161
  20913756.8754    -544541.45747   -424318.35262
 91  3 25 21 55 45.0000000  0  4G18G 2G11G19
  20506791.5634     286973.11048    223614.13362
  23805362.867    -2226390.899 5  -1734836.42021
  23257700.7894   -1567651.32146  -1221541.89561
  20911419.1024    -556816.14747   -433883.04262
 91  3 25 21 56  0.0000000  0  4G18G 2G11G19
  20508615.570      296563.016 8    231086.74023
  23795505.0474   -2278197.50545  -1775204.93561
  23251056.3834   -1602563.63746  -1248746.23161
  20909096.7664    -569038.33047   -443406.82462
 91  3 25 21 56 15.0000000  0  4G18G 2G11G19
  20510468.328      306294.589 8    238669.73522
  23785656.711    -2329932.557 5  -1815517.67521
  23244437.703    -1637345.017 6  -1275848.54121
  20906778.0084    -581198.76147   -452882.49262
 91  3 25 21 56 30.0000000  0  4G18G 2G11G19
  20512345.133      316155.254 8    246353.32123
  23775825.320    -2381608.288 5  -1855784.18921
  23237841.1254   -1672007.44546  -1302858.17161
  20904474.9144    -593309.91947   -462319.76762
 91  3 25 21 56 45.0000000  0  4G18G 2G11G19
  20514245.938      326145.099 8    254137.57023
  23766002.523    -2433224.500 5  -1896004.33321
  23231270.2114   -1706550.72246  -1329774.94461
  20902179.3204    -605371.74947   -471718.60562
 91  3 25 21 57  0.0000000  0  4G18G 2G11G19
  20516171.516      336264.798 8    262023.00222
  23756192.1484   -2484780.38545  -1936177.48161
  23224718.7814   -1740973.82846  -1356598.08561
  20899895.1724    -617383.49847   -481078.41462
 91  3 25 21 57 15.0000000  0  4G18G 2G11G19
  20518121.555      346510.558 8    270006.66023
  23746393.2034   -2536279.25245  -1976306.20061
  23218189.117    -1775279.961 6  -1383330.08021
  20897616.344     -629348.588 7   -490401.87522
 91  3 25 21 57 30.0000000  0  4G18G 2G11G19
  20520095.570      356886.733 8    278091.93823
  23736601.6334   -2587716.99145  -2016387.27361
  23211684.9844   -1809464.60246  -1409967.41261
  20895349.3914    -641263.11947   -499685.93362
 91  3 25 21 57 45.0000000  0  4G18G 2G11G19
  20522095.578      367398.004 8    286282.49622
  23726827.430    -2639088.508 5  -2056416.75521
  23205203.9844   -1843522.63146  -1436506.06861
  20893090.773     -653122.320 7   -508926.88422
 91  3 25 21 58  0.0000000  0  4G18G 2G11G19
  20524120.430      378036.608 8    294572.26722
  23717065.258    -2690401.182 5  -2096400.38321
  23198745.0394   -1877461.22646  -1462951.66361
  20890849.852     -664933.585 7   -518130.48422
 91  3 25 21 58 15.0000000  0  4G18G 2G11G19
  20526172.648      388818.423 8    302973.63422
  23707309.164    -2741639.082 5  -2136325.74221
  23192312.4144   -1911264.17946  -1489291.57361
  20888609.992     -676681.074 7   -527284.38222
 91  3 25 21 58 30.0000000  0  4G18G 2G11G19
  20528250.430      399740.603 8    311484.37822
  23697577.016    -2792805.145 5  -2176195.13321
  23185906.242    -1944934.224 6  -1515527.91821
  20886388.000     -688367.716 7   -536390.87222
 91  3 25 21 58 45.0000000  0  4G18G 2G11G19
  20530355.250      410796.934 8    320099.65422
  23687851.578    -2843905.397 5  -2216013.22221
  23179523.9144   -1978477.08846  -1541665.15761
  20884170.688     -699999.578 7   -545454.67222
 91  3 25 21 59  0.0000000  0  4G18G 2G11G19
  20532482.367      421978.619 8    328812.60322
  23678137.7344   -2894948.47245  -2255786.77461
  23173161.125    -2011901.182 6  -1567709.85221
  20881968.516     -711585.661 7   -554482.80122
 91  3 25 21 59 15.0000000  0  4G18G 2G11G19
  20534634.344      433288.776 8    337625.65822
  23668435.4844   -2945931.07445  -2295513.20261
  23166824.8054   -2045203.14146  -1593659.36661
  20879772.156     -723122.718 7   -563472.73522
 91  3 25 21 59 30.0000000  0  4G18G 2G11G19
  20536812.898      444733.281 8    346543.40522
  23658747.5634   -2996846.82445  -2335187.51461
  23160512.3674   -2078376.41946  -1619508.62261
  20877590.188     -734604.409 7   -572419.52522
 91  3 25 21 59 45.0000000  0  4G18G 2G11G19
  20539015.508      456305.980 8    355561.04222
  23649067.3524   -3047701.85045  -2374814.52761
  23154222.469    -2111426.977 6  -1645262.24421
  20875411.227     -746037.204 7   -581328.21222
 91  3 25 22  0  0.0000000  0  4G18G 2G11G19
  20541240.828      468007.465 8    364679.03122
  23639403.6174   -3098495.56245  -2414393.73861
  23147956.8524   -2144354.06946  -1670919.66761
  20873247.656     -757420.563 7   -590198.37822
 91  3 25 22  0 15.0000000  0  4G18G 2G11G19
  20543492.969      479834.791 8    373895.07822
  23629748.992    -3149230.418 5  -2453927.09721
  23141713.781    -2177160.013 6  -1696482.67921
  20871092.820     -768757.165 7   -599032.11022
 91  3 25 22  0 30.0000000  0  4G18G 2G11G19
  20545767.602      491791.684 8    383212.09022
  23620105.3914   -3199902.73045  -2493411.72561
  23135494.8204   -2209840.77446  -1721948.14561
  20868943.211     -780043.245 7   -607826.47422
 91  3 25 22  0 45.0000000  0  4G18G 2G11G19
  20548068.000      503878.048 8    392629.98022
  23610474.9384   -3250512.58645  -2532847.67861
  23129300.1954   -2242396.21246  -1747315.96061
  20866807.5234    -791278.94547   -616581.57962
 91  3 25 22  1  0.0000000  0  4G18G 2G11G19
  20550393.211      516096.255 8    402150.61022
  23600854.7584   -3301057.02545  -2572232.65961
  23123129.4384   -2274823.29946  -1772583.75661
  20864676.609     -802461.544 7   -625295.30822
 91  3 25 22  1 15.0000000  0  4G18G 2G11G19
  20552741.570      528435.446 8    411765.50922
  23591246.016    -3351547.130 5  -2611575.30621
  23116981.289    -2307132.842 6  -1797759.96021
  20862558.367     -813602.179 7   -633976.33822
 91  3 25 22  1 30.0000000  0  4G18G 2G11G19
  20555112.617      540897.642 8    421476.25622
  23581650.8914   -3401980.44245  -2650873.69161
  23110855.2194   -2339322.41246  -1822842.68361
  20860449.969     -824698.707 7   -642623.00022
 91  3 25 22  1 45.0000000  0  4G18G 2G11G19
  20557507.938      553485.678 8    431285.06122
  23572064.6414   -3452354.02245  -2690125.53361
  23104752.4454   -2371388.75546  -1847829.37161
  20858343.836     -835748.322 7   -651233.10922
 91  3 25 22  2  0.0000000  0  4G18G 2G11G19
  20559928.828      566203.866 8    441195.28422
  23562491.6954   -3502663.31446  -2729327.27561
  23098675.5474   -2403327.12446  -1872716.35661
  20856248.578     -846746.417 7   -659803.06422
 91  3 25 22  2 15.0000000  0  4G18G 2G11G19
  20562372.742      579048.393 8    451203.95123
  23552928.6804   -3552912.13746  -2768481.91261
  23092620.2894   -2435141.08246  -1897506.39161
  20854167.328     -857697.028 7   -668336.02922
 91  3 25 22  2 30.0000000  0  4G18G 2G11G19
  20564839.3524     592013.07148    461306.24062
  23543378.1174   -3603106.12246  -2807593.79961
  23086589.9304   -2466836.14946  -1922203.77261
  20852090.109     -868605.815 7   -676836.39522
 91  3 25 22  2 45.0000000  0  4G18G 2G11G19
  20567330.5554     605099.53248    471503.42063
  23533835.9694   -3653243.56346  -2846661.63561
  23080580.4694   -2498410.49246  -1946807.09761
  20850023.7974    -879471.26147   -685302.98662
 91  3 25 22  3  0.0000000  0  4G18G 2G11G19
  20569845.469      618315.979 8    481801.88923
  23524306.1254   -3703316.18446  -2885678.96561
  23074597.8054   -2529855.63946  -1971309.75361
  20847964.883     -890285.305 7   -693729.52722
 91  3 25 22  3 15.0000000  0  4G18G 2G11G19
  20572384.8204     631659.64648    492199.49863
  23514791.1254   -3753326.62246  -2924647.84161
  23068637.141    -2561173.714 6  -1995713.38621
  20845916.586     -901050.453 7   -702117.96522
 91  3 25 22  3 30.0000000  0  4G18G 2G11G19
  20574947.9534     645132.23848    502697.55863
  23505286.8444   -3803272.95146  -2963566.77561
  23062702.7814   -2592362.73146  -2020016.46061
  20843876.828     -911764.752 7   -710466.78522
 91  3 25 22  3 45.0000000  0  4G18G 2G11G19
  20577536.2424     658729.07648    513292.43963
  23495792.9774   -3853159.56546  -3002439.16461
  23056791.9064   -2623427.17146  -2044222.45061
  20841848.359     -922432.839 7   -718779.59322
 91  3 25 22  4  0.0000000  0  4G18G 2G11G19
  20580147.3984     672449.86148    523983.89663
  23486312.2664   -3902986.72446  -3041265.22261
  23050904.6024   -2654366.88346  -2068331.26361
  20839826.547     -933055.177 7   -727056.75222
 91  3 25 22  4 15.0000000  0  4G18G 2G11G19
  20582781.3444     686294.58148    534771.92663
  23476841.0004   -3952754.08946  -3080044.70961
  23045041.0784   -2685181.60846  -2092342.66861
  20837814.250     -943631.828 7   -735298.31222
 91  3 25 22  4 30.0000000  0  4G18G 2G11G19
  20585439.7504     700260.13448    545654.11563
  23467379.570    -4002464.771 6  -3118780.02221
  23039199.3674   -2715873.99546  -2116258.75861
  20835807.633     -954165.694 7   -743506.53422
 91  3 25 22  4 45.0000000  0  4G18G 2G11G19
  20588121.3204     714354.01048    556636.29763
  23457934.9694   -4052110.80446  -3157464.96461
  23033382.3594   -2746436.11046  -2140073.32361
  20833813.9774    -964649.05347   -751675.39262
 91  3 25 22  5  0.0000000  0  4G18G 2G11G19
  20590826.461      728569.279 8    567713.07423
  23448495.492    -4101698.805 6  -3196104.68921
  23027591.820    -2776874.306 6  -2163791.32621
  20831824.898     -975088.366 7   -759809.93922
 91  3 25 22  5 15.0000000  0  4G18G 2G11G19
  20593553.6414     742902.02048    578881.38163
  23439072.6024   -4151232.74646  -3234702.29361
  23021821.3364   -2807192.39346  -2187415.74161
  20829849.6564    -985487.91947   -767913.49262
 91  3 25 22  5 30.0000000  0  4G18G 2G11G19
  20596302.8594     757345.63048    590136.08263
  23429654.1644   -4200719.01146  -3273262.74961
  23016075.5704   -2837396.47346  -2210951.32561
  20827876.258     -995854.022 7   -775990.98122
 91  3 25 22  5 45.0000000  0  4G18G 2G11G19
  20599074.0234     771908.81748    601483.96163
  23420246.914    -4250149.032 6  -3311779.39421
  23010348.6884   -2867477.70246  -2234391.17461
  20825912.109    -1006178.214 7   -784035.82322
 91  3 25 22  6  0.0000000  0  4G18G 2G11G19
  20601869.0234     786598.42248    612930.34663
  23410852.6024   -4299515.78146  -3350246.72961
  23004650.328    -2897429.043 6  -2257729.81321
  20823955.1414   -1016453.70147   -792042.71162
 91  3 25 22  6 15.0000000  0  4G18G 2G11G19
  20604688.898      801415.298 8    624475.90823
  23401471.492    -4348817.941 6  -3388663.74221
  22998976.438    -2927249.148 6  -2280966.19221
  20822011.3754   -1026679.44647   -800010.83062
 91  3 25 22  6 30.0000000  0  4G18G 2G11G19
  20607530.945      816353.538 8    636116.03823
  23392099.164    -4398061.040 6  -3427034.73321
  22993325.3134   -2956943.35146  -2304104.46861
  20820071.3984   -1036860.95247   -807944.47862
 91  3 25 22  6 45.0000000  0  4G18G 2G11G19
  20610396.914      831413.428 8    647850.95923
  23382739.5004   -4447244.81046  -3465359.51361
  22987699.086    -2986511.142 6  -2327144.23821
  20818144.9384   -1046997.94547   -815843.43862
 91  3 25 22  7  0.0000000  0  4G18G 2G11G19
  20613287.5554     846601.52348    659685.77763
  23373392.3284   -4496362.40646  -3503632.71761
  22982098.820    -3015945.378 6  -2350079.92521
  20816222.0474   -1057083.81047   -823702.55462
 91  3 25 22  7 15.0000000  0  4G18G 2G11G19
  20616203.133      861922.638 8    671624.25923
  23364060.922    -4545409.110 6  -3541850.69621
  22976521.3834   -3045240.99246  -2372907.60761
  20814316.6174   -1067113.62947   -831518.00262
 91  3 25 22  7 30.0000000  0  4G18G 2G11G19
  20619141.9304     877366.93748    683658.71963
  23354737.445    -4594394.212 6  -3580020.68121
  22970972.1254   -3074407.25146  -2395634.49361
  20812414.547    -1077096.967 7   -839297.23722
 91  3 25 22  7 45.0000000  0  4G18G 2G11G19
  20622103.633      892930.260 8    695785.93123
  23345427.2974   -4643322.00246  -3618146.00161
  22965445.688    -3103448.432 6  -2418263.91221
  20810525.4454   -1087038.26847   -847043.71762
 91  3 25 22  8  0.0000000  0  4G18G 2G11G19
  20625089.7504     908622.17348    708013.33263
  23336128.5164   -4692182.44946  -3656218.86061
  22959945.6024   -3132354.31046  -2440787.90861
  20808640.9924   -1096927.50847   -854749.62362
 91  3 25 22  8 15.0000000  0  4G18G 2G11G19
  20628100.008      924439.590 8    720338.54223
  23326844.8754   -4740978.59646  -3694241.61361
  22954470.6954   -3161127.84646  -2463208.77561
  20806770.7734   -1106768.07147   -862417.60062
 91  3 25 22  8 30.0000000  0  4G18G 2G11G19
  20631132.625      940381.912 8    732761.08023
  23317569.1644   -4789710.87246  -3732214.60661
  22949020.0394   -3189769.18146  -2485526.63161
  20804908.0084   -1116560.38247   -870047.98262
 91  3 25 22  8 45.0000000  0  4G18G 2G11G19
  20634191.234      956449.364 8    745281.12323
  23308309.0164   -4838378.36246  -3770137.12361
  22943593.992    -3218277.438 6  -2507740.79021
  20803053.391    -1126303.691 7   -877640.18322
 91  3 25 22  9  0.0000000  0  4G18G 2G11G19
  20637272.734      972642.563 8    757899.14323
  23299059.094    -4886980.612 6  -3808008.78821
  22938196.4384   -3246651.67646  -2529850.52761
  20801205.6414   -1135997.28347   -885193.63563
 91  3 25 22  9 15.0000000  0  4G18G 2G11G19
  20640377.664      988963.115 8    770616.40723
  23289823.7814   -4935516.06046  -3845828.41061
  22932821.2814   -3274890.20446  -2551854.51161
  20799373.7274   -1145639.72847   -892707.21963
 91  3 25 22  9 30.0000000  0  4G18G 2G11G19
  20643507.273     1005406.751 8    783429.58223
  23280599.500    -4983988.344 6  -3883598.82421
  22927473.7424   -3302996.70446  -2573755.61761
  20797544.680    -1155235.180 7   -900184.21423
 91  3 25 22  9 45.0000000  0  4G18G 2G11G19
  20646659.609     1021975.831 8    796340.50323
  23271387.313    -5032394.888 6  -3921318.01721
  22922150.0314   -3330968.34246  -2595551.62461
  20795732.523    -1164780.797 7   -907622.37123
 91  3 25 22  9 59.9990000  0  4G18G 2G11G19
  20649838.112     1038674.010 8    809352.02023
  23262191.597    -5080727.982 6  -3958979.97021
  22916854.964    -3358798.535 6  -2617237.42121
  20793922.362    -1174271.645 7   -915017.84723
 91  3 25 22 10 14.9990000  0  4G18G 2G11G19
  20653038.253     1055494.962 8    822459.20923
  23253004.386    -5129002.159 6  -3996596.01721
  22911583.339    -3386498.911 6  -2638822.05721
  20792126.7614   -1183717.13547   -922377.97763
 91  3 25 22 10 29.9990000  0  4G18G 2G11G19
  20656264.3084    1072443.70048    835665.97563
  23243828.4484   -5177207.97046  -4034158.83361
  22906338.1054   -3414061.32046  -2660299.19861
  20790341.4094   -1193110.47747   -929697.46963
 91  3 25 22 10 44.9990000  0  4G18G 2G11G19
  20659512.5034    1089515.21748    848968.41963
  23234667.550    -5225349.897 6  -4071671.81821
  22901119.5344   -3441490.08546  -2681672.19561
  20788562.589    -1202456.193 7   -936979.85923
 91  3 25 22 10 59.9990000  0  4G18G 2G11G19
  20662785.089     1106711.777 8    862368.28323
  23225519.980    -5273425.602 6  -4109133.22321
  22895924.4874   -3468782.68846  -2702939.09961
  20786791.3944   -1211752.19647   -944223.50263
 91  3 25 22 11 14.9990000  0  4G18G 2G11G19
  20666081.886     1124034.344 8    875866.34223
  23216384.5114   -5321433.94146  -4146542.13961
  22890756.1514   -3495937.72946  -2724098.80161
  20785034.136    -1220997.242 7   -951427.44523
 91  3 25 22 11 29.9990000  0  4G18G 2G11G19
  20669400.675     1141478.006 8    889458.76323
  23207259.2534   -5369379.69146  -4183902.28061
  22885614.620    -3522959.987 6  -2745155.03621
  20783280.964    -1230196.556 7   -958595.75923
 91  3 25 22 11 44.9990000  0  4G18G 2G11G19
  20672743.737     1159045.571 8    903147.72223
  23198149.5974   -5417259.85246  -4221211.32061
  22880497.5584   -3549846.20946  -2766105.26761
  20781542.503    -1239346.952 7   -965725.95123
 91  3 25 22 11 59.9990000  0  4G18G 2G11G19
  20676110.581     1176738.122 8    916934.08023
  23189050.0894   -5465073.37446  -4258468.42761
  22875408.3554   -3576595.06746  -2786948.47461
  20779807.9014   -1248447.38447   -972817.20163
 91  3 25 22 12 14.9990000  0  4G18G 2G11G19
  20679500.151     1194549.880 8    930813.31523
  23179962.6124   -5512825.49946  -4295677.69861
  22870344.5894   -3603211.83246  -2807688.74461
  20778087.5504   -1257503.14847   -979873.64563
 91  3 25 22 12 29.9990000  0  4G18G 2G11G19
  20682911.112     1212472.038 8    944778.58923
  23170886.3704   -5560524.81146  -4332845.80961
  22865299.8704   -3629704.88046  -2828332.61761
  20776368.292    -1266522.941 7   -986902.06623
 91  3 25 22 12 44.9990000  0  4G18G 2G11G19
  20686345.323     1230517.403 8    958839.85723
  23161821.753    -5608158.124 6  -4369962.50221
  22860286.6834   -3656060.90946  -2848869.71661
  20774664.073    -1275493.802 7   -993892.36123
 91  3 25 22 12 59.9990000  0  4G18G 2G11G19
  20689802.487     1248682.921 8    972994.75023
  23152768.2224   -5655728.44746  -4407030.11061
  22855296.2224   -3682282.92946  -2869302.39561
  20772963.4804   -1284419.04947  -1000847.10263
 91  3 25 22 13 14.9990000  0  4G18G 2G11G19
  20693279.815     1266961.171 8    987237.49323
  23143726.2764   -5703242.89046  -4444054.17761
  22850331.4174   -3708377.83246  -2889636.02061
  20771274.214    -1293305.656 7  -1007771.74123
 91  3 25 22 13 29.9990000  0  4G18G 2G11G19
  20696781.2224    1285362.03748   1001575.77563
  23134698.355    -5750691.579 6  -4481027.01121
  22845392.0344   -3734335.42446  -2909862.65261
  20769590.440    -1302143.805 7  -1014658.62723
 91  3 25 22 13 44.9990000  0  4G18G 2G11G19
  20700306.2064    1303881.56548   1016006.51863
  23125680.026    -5798078.315 6  -4517951.56221
  22840477.2694   -3760159.26746  -2929985.06061
  20767918.9254   -1310937.17847  -1021510.60963
 91  3 25 22 13 59.9990000  0  4G18G 2G11G19
  20703852.9094    1322522.88248   1030532.15963
  23116676.2924   -5845399.76746  -4554825.24461
  22835588.3864   -3785845.98546  -2950000.61561
  20766255.7144   -1319682.54347  -1028325.18963
 91  3 25 22 14 14.9990000  0  4G18G 2G11G19
  20707423.300     1341282.472 8   1045149.96823
  23107682.519    -5892659.392 6  -4591650.76021
  22830726.1514   -3811398.74946  -2969911.79861
  20764599.362    -1328383.364 7  -1035105.06223
 91  3 25 22 14 29.9990000  0  4G18G 2G11G19
  20711014.0814    1360156.62148   1059857.03563
  23098698.378    -5939860.359 6  -4628430.56721
  22825889.1754   -3836820.64246  -2989721.00261
  20762949.386    -1337042.988 7  -1041852.83823
 91  3 25 22 14 44.9990000  0  4G18G 2G11G19
  20714628.417     1379147.472 8   1074655.04823
  23089729.440    -5987000.434 6  -4665162.91621
  22821077.3394   -3862109.46846  -3009426.51561
  20761311.0584   -1345659.41047  -1048566.93863
 91  3 25 22 14 59.9990000  0  4G18G 2G11G19
  20718265.120     1398255.686 8   1089544.51123
  23080770.222    -6034078.507 6  -4701846.95721
  22816290.1444   -3887263.94846  -3029027.34761
  20759678.4174   -1354231.59447  -1055246.56763
 91  3 25 22 15 14.9990000  0  4G18G 2G11G19
  20721924.4334    1417485.45148   1104528.68263
  23071822.886    -6081090.320 6  -4738479.37021
  22811529.4954   -3912279.57346  -3048519.97161
  20758058.1444   -1362755.27747  -1061888.42663
 91  3 25 22 15 29.9990000  0  4G18G 2G11G19
  20725606.9644    1436834.81648   1119606.04763
  23062891.245    -6128037.483 6  -4775061.40321
  22806794.5194   -3937157.84946  -3067905.57761
  20756443.065    -1371231.951 7  -1068493.63823
 91  3 25 22 15 44.9990000  0  4G18G 2G11G19
  20729312.2374    1456309.01348   1134780.68763
  23053970.2144   -6174914.66046  -4811588.89861
  22802087.5894   -3961893.40346  -3087179.96961
  20754841.964    -1379656.592 7  -1075058.30923
 91  3 25 22 15 59.9990000  0  4G18G 2G11G19
  20733040.6364    1475901.17548   1150047.24063
  23045061.284    -6221728.556 6  -4848067.08421
  22797408.0584   -3986492.71246  -3106348.20561
  20753244.5734   -1388035.92947  -1081587.66163
 91  3 25 22 16 14.9990000  0  4G18G 2G11G19
  20736792.0584    1495614.48848   1165408.20163
  23036164.550    -6268475.643 6  -4884493.21621
  22792752.003    -4010952.140 6  -3125407.44521
  20751661.0734   -1396366.65347  -1088079.14363
 91  3 25 22 16 29.9990000  0  4G18G 2G11G19
  20740566.0894    1515445.71548   1180861.04663
  23027280.847    -6315159.199 6  -4920869.84221
  22788123.081    -4035274.678 6  -3144360.02221
  20750084.8944   -1404651.87847  -1094535.15563
 91  3 25 22 16 44.9990000  0  4G18G 2G11G19
  20744360.987     1535396.576 8   1196407.10423
  23018411.3944   -6361777.19246  -4957195.37161
  22783520.8704   -4059458.19146  -3163204.26261
  20748518.2844   -1412889.71347  -1100954.25063
 91  3 25 22 16 59.9990000  0  4G18G 2G11G19
  20748183.4724    1555475.30548   1212052.79763
  23009553.4334   -6408320.85046  -4993462.98161
  22778947.917    -4083493.800 6  -3181933.25321
  20746959.2614   -1421071.49847  -1107329.69463
 91  3 25 22 17 14.9990000  0  4G18G 2G11G19
  20752027.9484    1575681.34748   1227797.69763
  23000710.9724   -6454790.92446  -5029673.25661
  22774402.815    -4107382.085 6  -3200547.45221
  20745414.784    -1429198.019 7  -1113662.06923
 91  3 25 22 17 29.9990000  0  4G18G 2G11G19
  20755896.6754    1596007.24148   1243635.99263
  22991881.339    -6501194.473 6  -5065831.69121
  22769882.495    -4131130.099 6  -3219052.34221
  20743875.839    -1437276.448 7  -1119956.95923
 91  3 25 22 17 44.9990000  0  4G18G 2G11G19
  20759785.964     1616448.960 8   1259564.52523
  22983062.909    -6547535.603 6  -5101941.49021
  22765390.128    -4154741.722 6  -3237450.96021
  20742349.065    -1445310.844 7  -1126217.53923
 91  3 25 22 17 59.9990000  0  4G18G 2G11G19
  20763699.0194    1637011.85248   1275587.49563
  22974254.886    -6593808.598 6  -5137998.19121
  22760922.1444   -4178211.08046  -3255738.72261
  20740828.347    -1453295.478 7  -1132439.35223
 91  3 25 22 18 14.9990000  0  4G18G 2G11G19
  20767634.5504    1657697.08148   1291705.79963
  22965462.2064   -6640011.77646  -5174000.48561
  22756485.1444   -4201536.37946  -3273914.23161
  20739319.769    -1461228.732 7  -1138621.12723
 91  3 25 22 18 29.9990000  0  4G18G 2G11G19
  20771595.2844    1678504.91348   1307919.63663
  22956683.8704   -6686144.75046  -5209948.07561
  22752072.315    -4224717.014 6  -3291977.01121
  20737816.894    -1469110.377 7  -1144762.68523
 91  3 25 22 18 44.9990000  0  4G18G 2G11G19
  20775578.3234    1699435.73748   1324229.30063
  22947919.1834   -6732206.89646  -5245840.48061
  22747691.011    -4247752.296 6  -3309926.53521
  20736330.5504   -1476939.85047  -1150863.57763
 91  3 25 22 18 59.9990000  0  4G18G 2G11G19
  20779583.0584    1720486.47448   1340632.41163
  22939165.6674   -6778201.18346  -5281680.00261
  22743333.409    -4270645.068 6  -3327765.01621
  20734847.394    -1484720.146 7  -1156926.16023
 91  3 25 22 19 14.9990000  0  4G18G 2G11G19
  20783613.6284    1741660.42548   1357131.53963
  22930427.9094   -6824124.11546  -5317463.91961
  22739004.737    -4293391.742 6  -3345489.65821
  20733378.940    -1492447.924 7  -1162947.82423
 91  3 25 22 19 29.9990000  0  4G18G 2G11G19
  20787665.2064    1762954.70548   1373724.42863
  22921701.9404   -6869978.21446  -5353194.20961
  22734703.980    -4315994.700 6  -3363102.31221
  20731914.6284   -1500125.64047  -1168930.47163
 91  3 25 22 19 44.9990000  0  4G18G 2G11G19
  20791740.6444    1784367.28948   1390409.49363
  22912988.261    -6915765.221 6  -5388872.22121
  22730428.4484   -4338455.55446  -3380604.23661
  20730466.573    -1507755.157 7  -1174875.56323
 91  3 25 22 19 59.9990000  0  4G18G 2G11G19
  20795838.2144    1805902.73248   1407190.29663
  22904290.2064   -6961480.63746  -5424494.43661
  22726183.2694   -4360769.67046  -3397991.81861
  20729021.0974   -1515332.07247  -1180779.66463
 91  3 25 22 20 14.9990000  0  4G18G 2G11G19
  20799960.440     1827562.166 8   1424067.72623
  22895603.7694   -7007122.92946  -5460059.67361
  22721965.526    -4382935.417 6  -3415263.78721
  20727592.183    -1522854.833 7  -1186641.57423
 91  3 25 22 20 29.9990000  0  4G18G 2G11G19
  20804103.987     1849339.611 8   1441037.11423
  22886930.331    -7052697.917 6  -5495572.48121
  22717775.214    -4404958.268 6  -3432424.40021
  20726169.362    -1530329.179 7  -1192465.75423
 91  3 25 22 20 44.9990000  0  4G18G 2G11G19
  20808269.839     1871233.350 8   1458097.12323
  22878271.8234   -7098207.38646  -5531034.21161
  22713610.8154   -4426839.96746  -3449475.03561
  20724757.3154   -1537757.01647  -1198253.68163
 91  3 25 22 20 59.9990000  0  4G18G 2G11G19
  20812460.323     1893250.377 8   1475253.19823
  22869625.1364   -7143643.64346  -5566438.90961
  22709475.6204   -4448572.75946  -3466409.63661
  20723354.659    -1545130.663 7  -1203999.35723
 91  3 25 22 21 14.9990000  0  4G18G 2G11G19
  20816672.7304    1915388.81648   1492503.86762
  22860990.4334   -7189008.63146  -5601788.07161
  22705366.9094   -4470158.56446  -3483229.70661
  20721960.026    -1552452.433 7  -1209704.64423
 91  3 25 22 21 29.9990000  0  4G18G 2G11G19
  20820911.792     1937658.884 8   1509857.11922
  22852373.089    -7234291.587 6  -5637073.30821
  22701289.284    -4491586.499 6  -3499926.74221
  20720576.2144   -1559711.43647  -1215361.00163
 91  3 25 22 21 44.9990000  0  4G18G 2G11G19
  20825170.745     1960046.439 8   1527301.92122
  22843770.5424   -7279506.70846  -5672305.68561
  22697239.558    -4512870.740 6  -3516511.81921
  20719206.7064   -1566921.74947  -1220979.42163
 91  3 25 22 21 59.9990000  0  4G18G 2G11G19
  20829455.667     1982560.944 8   1544845.65023
  22835180.3154   -7324644.05146  -5707477.46961
  22693217.901    -4534000.987 6  -3532976.90121
  20717843.3314   -1574073.53247  -1226552.23363
 91  3 25 22 22 14.9990000  0  4G18G 2G11G19
  20833763.526     2005196.261 8   1562483.51222
  22826605.3704   -7369709.71246  -5742593.38061
  22689226.9804   -4554983.23246  -3549326.64861
  20716494.542    -1581173.009 7  -1232084.28123
 91  3 25 22 22 29.9990000  0  4G18G 2G11G19
  20838092.5504    2027949.87948   1580213.54763
  22818042.5034   -7414705.93046  -5777655.19261
  22685260.284    -4575819.589 6  -3565562.71721
  20715151.4404   -1588222.52647  -1237577.40463
 91  3 25 22 22 44.9990000  0  4G18G 2G11G19
  20842445.3004    2050822.92248   1598036.65463
  22809491.1124   -7459631.78746  -5812662.16261
  22681323.714    -4596509.023 6  -3581684.29821
  20713821.855    -1595221.049 7  -1243030.78223
 91  3 25 22 22 59.9990000  0  4G18G 2G11G19
  20846821.206     2073814.409 8   1615952.05023
  22800956.2304   -7504487.29646  -5847614.32861
  22677414.917    -4617051.495 6  -3597691.36321
  20712501.0194   -1602168.74747  -1248444.56963
 91  3 25 22 23 14.9990000  0  4G18G 2G11G19
  20851217.737     2096925.387 8   1633960.54622
  22792434.8154   -7549271.62146  -5882511.03061
  22673533.612    -4637446.055 6  -3613583.17621
  20711187.3864   -1609064.82147  -1253818.13163
 91  3 25 22 23 29.9990000  0  4G18G 2G11G19
  20855639.831     2120160.299 8   1652065.62423
  22783927.2924   -7593979.94546  -5917348.51161
  22669680.612    -4657687.693 6  -3629355.83521
  20709883.933    -1615904.491 7  -1259147.72223
 91  3 25 22 23 44.9990000  0  4G18G 2G11G19
  20860085.1364    2143515.98048   1670264.80263
  22775433.1054   -7638615.21346  -5952129.05361
  22665858.9014   -4677779.21046  -3645011.50561
  20708593.0734   -1622690.55747  -1264435.56063
 91  3 25 22 23 59.9990000  0  4G18G 2G11G19
  20864551.659     2166990.441 8   1688556.52823
  22766953.831    -7683179.207 6  -5986854.08421
  22662063.573    -4697722.404 6  -3660551.60621
  20707311.5894   -1629425.09947  -1269683.25363
 91  3 25 22 24 14.9990000  0  4G18G 2G11G19
  20869040.589     2190581.553 8   1706939.16823
  22758483.0974   -7727673.68746  -6021524.92861
  22658295.9724   -4717518.89946  -3675977.38261
  20706040.6444   -1636109.89047  -1274892.16663
 91  3 25 22 24 29.9990000  0  4G18G 2G11G19
  20873552.1594    2214288.39048   1725411.96863
  22750032.3154   -7772099.47346  -6056142.24661
  22654556.355    -4737169.407 6  -3691289.41721
  20704777.2374   -1642745.74647  -1280062.97163
 91  3 25 22 24 44.9990000  0  4G18G 2G11G19
  20878087.253     2238121.153 8   1743982.90523
  22741591.448    -7816446.300 6  -6090698.05121
  22650846.1444   -4756663.60746  -3706479.64261
  20703527.1204   -1649322.51347  -1285187.71763
 91  3 25 22 24 59.9990000  0  4G18G 2G11G19
  20882646.034     2262071.567 8   1762645.51923
  22733167.730    -7860722.019 6  -6125198.44821
  22647164.7304   -4776009.11646  -3721554.00761
  20702282.4014   -1655848.04847  -1290272.54063
 91  3 25 22 25 14.9990000  0  4G18G 2G11G19
  20887226.425     2286142.021 8   1781401.66723
  22724753.667    -7904923.997 6  -6159641.36721
  22643513.378    -4795203.080 7  -3736510.29221
  20701053.1204   -1662319.64247  -1295315.34163
 91  3 25 22 25 29.9990000  0  4G18G 2G11G19
  20891828.784     2310326.923 8   1800247.00023
  22716356.128    -7949057.454 6  -6194030.91421
  22639888.175    -4814250.851 7  -3751352.65421
  20699828.7064   -1668742.60747  -1300320.25763
 91  3 25 22 25 44.9990000  0  4G18G 2G11G19
  20896451.972     2334628.645 8   1819183.35523
  22707971.550    -7993119.732 6  -6228364.99321
  22636292.690    -4833149.592 7  -3766078.89521
  20698618.5344   -1675114.24947  -1305285.17563
 91  3 25 22 25 59.9990000  0  4G18G 2G11G19
  20901100.0654    2359049.08048   1838212.21163
  22699599.917    -8037109.059 6  -6262642.21721
  22632723.0654   -4851897.34947  -3780687.47161
  20697413.4644   -1681432.68747  -1310208.63763
 91  3 25 22 26 14.9990000  0  4G18G 2G11G19
  20905767.886     2383583.825 8   1857330.14123
  22691242.112    -8081029.590 6  -6296865.84721
  22629185.0194   -4870498.14347  -3795181.53961
  20696223.3474   -1687702.32147  -1315094.05563
 91  3 25 22 26 29.9990000  0  4G18G 2G11G19
  20910459.058     2408232.396 8   1876536.77323
  22682897.378    -8124881.560 6  -6331036.04621
  22625672.714    -4888952.219 7  -3809561.28921
  20695041.0734   -1693923.39647  -1319941.64263
 91  3 25 22 26 44.9990000  0  4G18G 2G11G19
  20915171.019     2432992.289 8   1895830.14123
  22674565.050    -8168666.970 6  -6365154.39021
  22622189.5034   -4907261.59847  -3823828.27161
  20693863.839    -1700097.998 7  -1324753.03423
 91  3 25 22 26 59.9990000  0  4G18G 2G11G19
  20919903.839     2457868.872 7   1915214.43923
  22666245.7144   -8212380.35246  -6399216.60361
  22618733.9564   -4925420.43747  -3837977.95261
  20692697.3154   -1706220.42647  -1329523.76963
 91  3 25 22 27 14.9990000  0  4G18G 2G11G19
  20924661.737     2482864.943 7   1934691.84423
  22657944.370    -8256018.673 6  -6433220.32321
  22615306.6364   -4943425.76147  -3852008.01661
  20691545.0034   -1712287.91147  -1334251.68763
 91  3 25 22 27 29.9990000  0  4G18G 2G11G19
  20929441.831     2507990.808 7   1954270.38423
  22649654.503    -8299571.341 6  -6467157.30221
  22611911.8394   -4961267.03147  -3865910.24261
  20690401.855    -1718289.940 7  -1338928.60823
 91  3 25 22 27 44.9990000  0  4G18G 2G11G19
  20934245.269     2533229.214 7   1973936.62623
  22641379.5654   -8343055.38746  -6501040.79761
  22608544.4254   -4978960.95047  -3879697.65061
  20689269.5814   -1724243.45047  -1343567.71163
 91  3 25 22 27 59.9990000  0  4G18G 2G11G19
  20939070.4484    2558585.46547   1993694.68163
  22633119.534    -8386465.433 6  -6534866.65121
  22605207.0034   -4996502.01847  -3893365.95061
  20688145.2924   -1730143.23047  -1348164.92763
 91  3 25 22 28 14.9990000  0  4G18G 2G11G19
  20943918.097     2584060.735 8   2013545.48323
  22624871.948    -8429800.034 6  -6568633.69921
  22601898.0424   -5013888.68747  -3906913.94661
  20687035.167    -1735987.678 7  -1352719.03023
 91  3 25 22 28 29.9990000  0  4G18G 2G11G19
  20948787.105     2609643.378 8   2033479.95923
  22616637.690    -8473070.265 6  -6602350.59921
  22598616.9564   -5031132.10347  -3920350.31161
  20685929.0194   -1741787.90347  -1357238.67163
 91  3 25 22 28 44.9990000  0  4G18G 2G11G19
  20953674.9564    2635331.46548   2053496.59063
  22608416.222    -8516277.987 6  -6636018.77921
  22595362.1904   -5048234.08247  -3933676.46061
  20684835.7924   -1747545.88747  -1361725.40063
 91  3 25 22 28 59.9990000  0  4G18G 2G11G19
  20958585.347     2661136.175 8   2073604.10123
  22600208.362    -8559411.945 6  -6669629.48121
  22592135.8784   -5065183.18747  -3946883.48961
  20683749.1904   -1753250.25747  -1366170.37063
 91  3 25 22 29 14.9990000  0  4G18G 2G11G19
  20963519.003     2687060.688 8   2093804.97223
  22592015.1984   -8602468.55646  -6703179.91161
  22588941.089    -5081975.702 7  -3959968.50221
  20682675.3234   -1758897.49547  -1370570.81463
 91  3 25 22 29 29.9990000  0  4G18G 2G11G19
  20968473.4954    2713102.18148   2114096.98863
  22583835.9094   -8645450.45246  -6736672.12261
  22585775.0114   -5098614.15447  -3972933.46661
  20681609.5504   -1764490.29747  -1374928.82763
 91  3 25 22 29 44.9990000  0  4G18G 2G11G19
  20973452.2064    2739254.39148   2134475.27063
  22575669.4564   -8688363.68446  -6770110.82961
  22582637.1834   -5115104.48847  -3985783.00861
  20680555.073    -1770034.887 7  -1379249.27523
 91  3 25 22 29 59.9990000  0  4G18G 2G11G19
  20978449.3784    2765518.44948   2154940.70663
  22567516.2764   -8731207.03646  -6803495.08061
  22579526.636    -5131445.368 7  -3998516.08221
  20679508.5034   -1775529.81147  -1383531.01663
 91  3 25 22 30 14.9990000  0  4G18G 2G11G19
  20983468.1834    2791900.13848   2175497.80163
  22559378.5814   -8773974.22546  -6836819.98661
  22576446.878    -5147630.541 7  -4011127.83721
  20678475.964    -1780968.914 7  -1387769.28723
 91  3 25 22 30 29.9990000  0  4G18G 2G11G19
  20988512.5894    2818400.74148   2196147.56063
  22551253.8084   -8816664.22546  -6870084.73561
  22573396.605    -5163658.746 7  -4023617.27021
  20677450.1984   -1786350.96947  -1391963.09363
 91  3 25 22 30 44.9990000  0  4G18G 2G11G19
  20993576.1754    2845009.01548   2216881.22063
  22543143.5734   -8859287.55446  -6903297.53461
  22570373.737    -5179540.570 7  -4035992.64521
  20676435.847    -1791686.929 7  -1396120.96423
 91  3 25 22 30 59.9990000  0  4G18G 2G11G19
  20998662.4874    2871741.77848   2237711.88963
  22535047.253    -8901826.928 6  -6936444.91421
  22567384.706    -5195258.600 7  -4048240.38721
  20675430.5424   -1796959.26847  -1400229.28363
 91  3 25 22 31 14.9990000  0  4G18G 2G11G19
  21003771.1984    2898586.49148   2258629.78263
  22526965.870    -8944294.918 6  -6969536.66721
  22564421.628    -5210825.366 7  -4060370.26421
  20674438.8234   -1802180.58647  -1404297.83763
 91  3 25 22 31 29.9990000  0  4G18G 2G11G19
  21008899.7454    2925543.88148   2279635.47763
  22518897.4484   -8986690.67146  -7002572.12961
  22561487.589    -5226239.879 7  -4072381.49721
  20673453.9094   -1807350.14947  -1408326.07263
 91  3 25 22 31 44.9990000  0  4G18G 2G11G19
  21014054.6514    2952623.47048   2300736.39163
  22510847.190    -9029004.207 6  -7035543.52521
  22558586.081    -5241492.116 7  -4084266.28121
  20672483.7224   -1812457.94147  -1412306.15963
 91  3 25 22 31 59.9990000  0  4G18G 2G11G19
  21019227.8864    2979813.24448   2321923.15963
  22502806.112    -9071247.491 6  -7068460.18521
  22555711.4804   -5256593.98847  -4096033.90661
  20671517.8154   -1817516.05847  -1416247.54663
 91  3 25 22 32 14.9990000  0  4G18G 2G11G19
  21024423.5344    3007115.72848   2343197.76063
  22494781.808    -9113417.833 6  -7101319.99921
  22552866.495    -5271542.641 7  -4107682.13321
  20670567.7454   -1822521.67447  -1420148.02163
 91  3 25 22 32 29.9990000  0  4G18G 2G11G19
  21029640.1514    3034530.73348   2364560.03963
  22486772.5424   -9155514.82046  -7134122.65761
  22550050.972    -5286337.555 7  -4119210.56821
  20669623.581    -1827474.370 7  -1424007.24123
 91  3 25 22 32 44.9990000  0  4G18G 2G11G19
  21034878.339     3062055.195 8   2386007.60023
  22478772.347    -9197541.079 6  -7166870.19921
  22547264.8234   -5300981.51947  -4130621.37761
  20668692.8554   -1832376.85547  -1427827.36163
 91  3 25 22 32 59.9990000  0  4G18G 2G11G19
  21040137.2694    3089688.24748   2407539.78963
  22470789.5654   -9239497.71246  -7199563.49061
  22544507.3084   -5315475.28047  -4141915.14861
  20667767.464    -1837230.061 7  -1431609.06723
 91  3 25 22 33 14.9990000  0  4G18G 2G11G19
  21045418.1284    3117441.04748   2429165.28363
  22462822.0034   -9281373.55446  -7232193.83761
  22541778.644    -5329807.610 7  -4153083.13021
  20666857.2694   -1842022.86447  -1435343.71063
 91  3 25 22 33 29.9990000  0  4G18G 2G11G19
  21050719.8474    3145304.80348   2450877.23863
  22454865.8084   -9323176.73246  -7264767.56061
  22539081.4334   -5343986.77147  -4164131.76361
  20665955.3314   -1846763.65947  -1439037.82263
 91  3 25 22 33 44.9990000  0  4G18G 2G11G19
  21056045.6444    3173283.04148   2472678.40663
  22446925.0654   -9364903.69146  -7297281.88461
  22536413.4564   -5358008.98447  -4175058.10361
  20665063.3234   -1851448.60647  -1442688.41963
 91  3 25 22 33 59.9990000  0  4G18G 2G11G19
  21061389.2064    3201366.57148   2494561.60963
  22438998.8554   -9406563.31746  -7329743.75261
  22533771.8314   -5371883.12547  -4185869.06161
  20664177.464    -1856086.548 7  -1446302.38923
 91  3 25 22 34 14.9990000  0  4G18G 2G11G19
  21066753.7764    3229561.97548   2516531.98363
  22431083.4334   -9448148.79146  -7362147.83661
  22531161.7454   -5385602.27447  -4196559.25261
  20663308.917    -1860670.814 7  -1449874.53123
 91  3 25 22 34 29.9990000  0  5G18G 2G11G19G16
  21072140.7064    3257870.49547   2538590.50762
  22423185.5114   -9489658.30946  -7394492.73761
  22528580.9404   -5399164.71847  -4207127.33761
  20662444.1594   -1865199.78447  -1453403.59363
  24012056.948          -0.00215
 91  3 25 22 34 44.9990000  0  5G18G 2G11G19G16
  21077548.5814    3286285.89247   2560732.31263
  22415300.222    -9531098.054 6  -7426783.27421
  22526029.136    -5412576.302 7  -4217577.86721
  20661594.3154   -1869679.48047  -1456894.26963
  24008478.480      -18800.232 5
 91  3 25 22 34 59.9990000  0  5G18G 2G11G19G16
  21082976.8394    3314814.23847   2582962.13262
  22407426.284    -9572461.701 6  -7459014.51821
  22523506.4804   -5425830.67447  -4227905.89461
  20660749.284    -1874103.445 7  -1460341.49423
  24004924.8474     -37461.52945        -0.48871
 91  3 25 22 35 14.9990000  0  5G18G 2G11G19G16
  21088427.1364    3343453.22247   2605278.15962
  22399570.394    -9613751.449 6  -7491188.17521
  22521013.097    -5438929.956 7  -4238113.07121
  20659921.2454   -1878473.99747  -1463747.10863
  24001397.4014     -55985.88545    -14435.09661
 91  3 25 22 35 29.9990000  0  5G18G 2G11G19G16
  21093897.8554    3372204.46147   2627681.66262
  22391728.081    -9654965.445 6  -7523302.81121
  22518551.151    -5451872.300 7  -4248197.96921
  20659100.1674   -1882789.20047  -1467109.61063
  23997904.8084     -74371.70445    -28761.77061
 91  3 25 22 35 44.9990000  0  5G18G 2G11G19G16
  21099390.9724    3401068.26747   2650172.87862
  22383898.612    -9696102.735 6  -7555357.68221
  22516117.761    -5464656.938 7  -4258159.97421
  20658288.7304   -1887048.42847  -1470428.48463
  23994429.1364     -92618.20345    -42979.81761
 91  3 25 22 35 59.9990000  0  5G18G 2G11G19G16
  21104905.9094    3430048.92847   2672755.14663
  22376087.050    -9737159.175 6  -7587349.54921
  22513716.550    -5477279.466 7  -4267995.66421
  20657488.5654   -1891247.47347  -1473700.45963
  23990985.0734    -110721.23245    -57086.12461
 91  3 25 22 36 14.9990000  0  5G18G 2G11G19G16
  21110442.815     3459146.193 7   2695428.28122
  22368287.081    -9778134.896 6  -7619278.51921
  22511345.237    -5489739.909 7  -4277705.05221
  20656702.7224   -1895386.20047  -1476925.43263
  23987568.706     -128680.717 5    -71080.56421
 91  3 25 22 36 29.9990000  0  5G18G 2G11G19G16
  21116002.1284    3488356.41947   2718189.44062
  22360505.9484   -9819032.82746  -7651146.88261
  22509003.714    -5502041.128 7  -4287290.37821
  20655923.440    -1899467.569 7  -1480105.70823
  23984175.6444    -146499.71045    -84965.51561
 91  3 25 22 36 44.9990000  0  5G18G 2G11G19G16
  21121582.1124    3517681.81647   2741040.33362
  22352738.2224   -9859850.74046  -7682952.89261
  22506694.511    -5514180.806 7  -4296749.82721
  20655159.4404   -1903489.35547  -1483239.56363
  23980812.331     -164175.760 5    -98739.08321
 91  3 25 22 36 59.9990000  0  5G18G 2G11G19G16
  21127183.1124    3547117.97447   2763977.52962
  22344983.9644   -9900592.94246  -7714699.90561
  22504413.487    -5526163.315 7  -4306086.80421
  20654402.7694   -1907456.05047  -1486330.48863
  23977475.8784    -181713.60045   -112404.93361
 91  3 25 22 37 14.9990000  0  5G18G 2G11G19G16
  21132805.1204    3576657.48247   2786995.26462
  22337245.0584   -9941266.43346  -7746393.37161
  22502160.995    -5537995.676 7  -4315306.78121
  20653660.0814   -1911374.64747  -1489383.93763
  23974163.3314    -199120.35845   -125968.69161
 91  3 25 22 37 29.9990000  0  5G18G 2G11G19G16
  21138446.9954    3606307.65247   2810099.22662
  22329520.2614   -9981863.66246  -7778027.43361
  22499939.144    -5549670.078 7  -4324403.68121
  20652923.7924   -1915237.40347  -1492393.87163
  23970878.9404    -216388.52645   -139424.41361
 91  3 25 22 37 44.9990000  0  5G18G 2G11G19G16
  21144108.7844    3636063.27847   2833285.37362
  22321806.3154  -10022389.51446  -7809605.86461
  22497746.940    -5561191.450 7  -4333381.33221
  20652199.9874   -1919049.28547  -1495364.15563
  23967616.917     -233522.568 5   -152775.62921
 91  3 25 22 37 59.9990000  0  5G18G 2G11G19G16
  21149792.9954    3665931.92947   2856559.58562
  22314110.1674  -10062836.40246  -7841122.76361
  22495584.4404   -5572551.95247  -4342233.63361
  20651483.261    -1922802.503 7  -1498288.72823
  23964385.8784    -250515.05645   -166016.54961
 91  3 25 22 38 14.9990000  0  5G18G 2G11G19G16
  21155498.0344    3695907.61047   2879917.19762
  22306426.8394  -10103209.92846  -7872582.50761
  22493453.3234   -5583757.35547  -4350965.07561
  20650780.9174   -1926502.68847  -1501171.98263
  23961177.5504    -267371.99845   -179151.85361
 91  3 25 22 38 29.9990000  0  5G18G 2G11G19G16
  21161222.8154    3725990.72547   2903358.52162
  22298760.1284  -10143509.01946  -7903984.24661
  22491351.1284   -5594806.61147  -4359574.84961
  20650085.2924   -1930148.98547  -1504013.24263
  23957993.4014    -284092.20745   -192180.60361
 91  3 25 22 38 44.9990000  0  5G18G 2G11G19G16
  21166964.855     3756171.239 7   2926875.74822
  22291102.6054  -10183743.76946  -7935335.84761
  22489277.7454   -5605709.77047  -4368070.78161
  20649400.2764   -1933751.41547  -1506820.31863
  23954836.464     -300685.644 5   -205110.56921
 91  3 25 22 38 59.9990000  0  5G18G 2G11G19G16
  21172727.9014    3786450.08247   2950469.59662
  22283457.7144  -10223913.30746  -7966636.63761
  22487228.8474   -5616465.82047  -4376452.08061
  20648725.7764   -1937308.90347  -1509592.37863
  23951702.073     -317151.636 5   -217941.25321
 91  3 25 22 39 14.9990000  0  5G18G 2G11G19G16
  21178509.136     3816834.073 7   2974145.38022
  22275828.4404  -10264010.20546  -7997880.82861
  22485212.3784   -5627067.30947  -4384712.95261
  20648057.151    -1940814.251 7  -1512323.80723
  23948591.761     -333482.733 5   -230666.79421
 91  3 25 22 39 29.9990000  0  5G18G 2G11G19G16
  21184309.9334    3847321.11147   2997901.46262
  22268212.2064  -10304036.23746  -8029069.79961
  22483224.7694   -5637515.88647  -4392854.67461
  20647399.003    -1944269.118 7  -1515015.88823
  23945512.894     -349680.781 5   -243288.65321
 91  3 25 22 39 44.9990000  0  5G18G 2G11G19G16
  21190131.7144    3877911.36347   3021737.95562
  22260608.7374  -10343991.41746  -8060203.55761
  22481263.433    -5647811.529 7  -4400877.22621
  20646752.7614   -1947673.49147  -1517668.64863
  23942457.136     -365745.817 5   -255806.89021
 91  3 25 22 39 59.9990000  0  5G18G 2G11G19G16
  21195972.7374    3908607.06647   3045656.62262
  22253018.8154  -10383873.14546  -8091280.07861
  22479335.440    -5657951.602 7  -4408778.54821
  20646113.3554   -1951024.64047  -1520279.92863
  23939424.9014    -381675.15845   -268219.39661
 91  3 25 22 40 14.9990000  0  5G18G 2G11G19G16
  21201835.3314    3939407.85247   3069657.17462
  22245442.8234  -10423681.37646  -8122299.32761
  22477435.7224   -5667935.98247  -4416558.55761
  20645486.628    -1954322.504 7  -1522849.67823
  23936417.503     -397468.731 5   -280526.09921
 91  3 25 22 40 29.9990000  0  5G18G 2G11G19G16
  21207715.7304    3970319.40847   3093744.03662
  22237884.5654  -10463410.15446  -8153256.67461
  22475566.4724   -5677758.78047  -4424212.65661
  20644868.1904   -1957561.25447  -1525373.36963
  23933438.550     -413120.728 5   -292722.49421
 91  3 25 22 40 44.9990000  0  5G18G 2G11G19G16
  21213617.792     4001329.709 7   3117907.85322
  22230335.6124  -10503071.20746  -8184161.24061
  22473724.0504   -5687431.67647  -4431749.95261
  20644264.2374   -1960752.72447  -1527860.22263
  23930491.1364    -428643.03145   -304817.81561
 91  3 25 22 40 59.9990000  0  5G18G 2G11G19G16
  21219539.167     4032448.618 7   3142156.30122
  22222803.8624  -10542654.46846  -8215005.19162
  22471914.081    -5696944.481 7  -4439162.50421
  20643665.7064   -1963886.51647  -1530302.13463
  23927562.7764    -444025.69845   -316804.36361
 91  3 25 22 41 14.9990000  0  6G18G 2G11G19G16G 6
  21225482.464     4063676.952 7   3166490.01222
  22215286.2224  -10582159.03546  -8245787.81961
  22470134.347    -5706296.299 7  -4446449.61121
  20643081.8234   -1966961.85747  -1532698.50163
  23924659.565     -459268.015 5   -328681.50021
  24116191.1284         -0.03955
 91  3 25 22 41 29.9990000  0  6G18G 2G11G19G16G 6
  21231445.0814    4095012.32547   3190907.12762
  22207782.7144  -10621586.96246  -8276510.73561
  22468385.198    -5715489.170 7  -4453612.86221
  20642506.1364   -1969980.88747  -1535051.00063
  23921786.378     -474371.903 5   -340450.83621
  24108947.1444     -38048.61745
 91  3 25 22 41 44.9990000  0  6G18G 2G11G19G16G 6
  21237427.355     4126449.447 7   3215403.52722
  22200293.5894  -10660943.07446  -8307177.68461
  22466665.026    -5724527.944 7  -4460656.05621
  20641941.862    -1972948.382 7  -1537363.34823
  23918933.636     -489342.186 5   -352116.00421
  24101709.7374     -76093.11745
 91  3 25 22 41 59.9990000  0  6G18G 2G11G19G16G 6
  21243429.487     4157992.503 7   3239982.47922
  22192818.4334  -10700222.86246  -8337785.16361
  22464974.4804   -5733408.09647  -4467575.62861
  20641386.9334   -1975859.74847  -1539631.94463
  23916109.386     -504174.233 5   -363673.49121
  24094472.995     -114129.364 5
 91  3 25 22 42 14.9990000  0  6G18G 2G11G19G16G 6
  21249452.815     4189640.507 7   3264643.19122
  22185357.894   -10739427.256 6  -8368333.89621
  22463313.472    -5742130.423 7  -4474372.22521
  20640845.1514   -1978715.96147  -1541857.56463
  23913317.151     -518869.069 5   -375124.03921
  24087232.1514    -152158.13745
 91  3 25 22 42 29.9990000  0  6G18G 2G11G19G16G 6
  21255496.1674    4221397.84347   3289389.09962
  22177913.347   -10778551.806 6  -8398820.41221
  22461688.636    -5750690.442 7  -4481042.35321
  20640308.901    -1981512.513 7  -1544036.70923
  23910548.550     -533422.440 5   -386464.36521
  24079999.5424    -190175.19845        -0.36171
 91  3 25 22 42 44.9990000  0  6G18G 2G11G19G16G 6
  21261558.2534    4253254.00447   3314212.00662
  22170480.1754  -10817606.30946  -8429252.34762
  22460086.8084   -5759098.02047  -4487593.69661
  20639791.5814   -1984259.33947  -1546177.08863
  23907805.737     -547844.340 5   -397702.21021
  24072767.995     -228190.512 5    -29622.55521
 91  3 25 22 42 59.9990000  0  6G18G 2G11G19G16G 6
  21267638.9094    4285214.37547   3339116.14062
  22163062.4334  -10856585.54446  -8459625.63361
  22458516.605    -5767347.831 7  -4494022.09921
  20639277.9564   -1986950.97747  -1548274.47263
  23905086.144     -562129.540 5   -408833.61621
  24065531.6364    -266198.82245    -59239.28961
 91  3 25 22 43 14.9990000  0  6G18G 2G11G19G16G 6
  21273740.4804    4317276.24547   3364099.34762
  22155661.292   -10895491.684 6  -8489941.96621
  22456977.917    -5775442.056 7  -4500329.27621
  20638776.3554   -1989589.49447  -1550330.46663
  23902392.011     -576279.864 5   -419859.85521
  24058304.972     -304202.483 5    -88852.39821
 91  3 25 22 43 29.9990000  0  6G18G 2G11G19G16G 6
  21279860.550     4349434.591 7   3389157.72522
  22148268.167   -10934329.430 6  -8520205.00621
  22455464.323    -5783385.334 7  -4506518.82921
  20638281.2064   -1992179.61947  -1552348.74563
  23899727.2144    -590300.43945   -430785.01361
  24051069.917     -342206.250 5   -118465.59521
 91  3 25 22 43 44.9990000  0  6G18G 2G11G19G16G 6
  21285998.8084    4381691.90947   3414293.22662
  22140891.378   -10973096.260 6  -8550412.79122
  22453984.394    -5791175.229 7  -4512588.85721
  20637799.6834   -1994718.99347  -1554327.48163
  23897084.409     -604188.900 5   -441607.22521
  24043835.3944    -380207.72545   -148077.04061
 91  3 25 22 43 59.9990000  0  6G18G 2G11G19G16G 6
  21292156.386     4414050.103 7   3439507.33322
  22133528.933   -11011789.699 6  -8580563.38621
  22452530.683    -5798809.336 7  -4518537.49521
  20637324.5264   -1997205.15347  -1556264.76263
  23894466.7304    -617942.73945   -452324.56261
  24036604.9644    -418204.68544   -177684.92861
 91  3 25 22 44 14.9990000  0  6G18G 2G11G19G16G 6
  21298333.6364    4446508.35247   3464799.40762
  22126178.870   -11050410.602 6  -8610657.45722
  22451106.245    -5806288.341 7  -4524365.27821
  20636863.8084   -1999638.69247  -1558161.02963
  23891875.956     -631562.873 5   -462937.66621
  24029377.3864    -456197.80044   -207289.84161
 91  3 25 22 44 29.9990000  0  6G18G 2G11G19G16G 6
  21304528.9484    4479069.17447   3490171.40262
  22118844.792   -11088956.346 6  -8640692.96721
  22449711.8944   -5813609.39546  -4530069.98061
  20636409.417    -2002016.943 7  -1560014.22423
  23889310.190     -645046.418 5   -473444.36921
  24022143.5344    -494184.49644   -236889.77761
 91  3 25 22 44 44.9990000  0  6G18G 2G11G19G16G 6
  21310745.214     4511729.809 7   3515621.18022
  22111523.128   -11127429.343 6  -8670671.78722
  22448351.042    -5820774.925 7  -4535653.50121
  20635968.7534   -2004342.21147  -1561826.12263
  23886768.190     -658395.741 5   -483846.48021
  24014918.230     -532167.330 4   -266486.66621
 91  3 25 22 44 59.9990000  0  6G18G 2G11G19G16G 6
  21316978.7374    4544486.36247   3541145.69562
  22104214.5034  -11165833.32346  -8700596.83962
  22447015.4644   -5827788.68247  -4541118.75961
  20635533.105    -2006618.252 7  -1563599.67623
  23884253.261     -671614.910 5   -494147.16921
  24007691.2224    -570150.08744   -296083.52361
 91  3 25 22 45 14.9990000  0  6G18G 2G11G19G16G 6
  21323229.573     4577340.524 7   3566746.26622
  22096921.448   -11204166.127 6  -8730466.42121
  22445711.151    -5834648.527 7  -4546464.08121
  20635111.2924   -2008842.96547  -1565333.22963
  23881762.8864    -684702.02845   -504344.97261
  24000465.2454    -608130.60343   -325678.62161
 91  3 25 22 45 29.9990000  0  6G18G 2G11G19G16G 6
  21329500.472     4610293.413 7   3592423.76422
  22089640.089   -11242426.379 6  -8760279.46822
  22444434.4094   -5841353.24947  -4551688.52961
  20634696.3784   -2011014.96747  -1567025.70163
  23879298.4804    -697655.74245   -514438.79561
  23993233.6984    -646107.97543   -355271.27361
 91  3 25 22 45 44.9990000  0  6G18G 2G11G19G16G 6
  21335787.550     4643336.668 7   3618171.67622
  22082370.7144  -11280622.15346  -8790042.28061
  22443185.753    -5847910.761 7  -4556798.26621
  20634294.480    -2013142.334 7  -1568683.39323
  23876858.4174    -710484.04145   -524434.90361
  23986006.2064    -684090.03543   -384867.57461
 91  3 25 22 45 59.9990000  0  6G18G 2G11G19G16G 6
  21342094.6674    4676479.27647   3643997.01362
  22075117.3944  -11318744.31646  -8819747.73561
  22441966.956    -5854311.890 7  -4561786.14121
  20633901.378    -2015215.827 7  -1570299.12123
  23874439.144     -723177.854 5   -534326.23921
  23978783.159     -722067.842 3   -414460.56421
 91  3 25 22 46 14.9990000  0  6G18G 2G11G19G16G 6
  21348421.5654    4709721.48847   3669899.96662
  22067875.7924  -11356792.09946
  22440780.3314   -5860555.83647  -4566651.54361
  20633513.862    -2017234.734 7  -1571872.31723
  23872052.245     -735736.408 5   -544112.15321
  23971552.401     -760040.718 3
 91  3 25 22 46 29.9990000  0  5G18G 2G11G19G16
  21354765.2764    4743061.38947   3695879.03662
  22060649.948   -11394767.558 6  -8878986.36221
  22439622.198    -5866644.583 7  -4571395.99821
  20633137.511    -2019200.878 7  -1573404.38823
  23869688.339     -748161.907 5   -553794.39621
 91  3 25 22 46 44.9990000  0  5G18G 2G11G19G16
  21361128.9874    4776499.02847   3721934.27162
  22053437.5814  -11432670.13546  -8908520.71661
  22438491.7064   -5872577.61847  -4576019.13461
  20632778.0034   -2021113.68947  -1574894.89663
  23867347.1834    -760453.86945   -563372.59761
 91  3 25 22 46 59.9990000  0  6G18G 2G11G19G16G 6
  21367510.1754    4810030.87747   3748062.91962
  22046237.6444  -11470503.08446  -8938000.80861
  22437393.550    -5878358.234 7  -4580523.49921
  20632419.894    -2022976.345 7  -1576346.32823
  23865031.659     -772615.582 5   -572849.28121
  23949878.487      -37966.871 2
 91  3 25 22 47 14.9990000  0  6G18G 2G11G19G16G 6
  21373907.612     4843658.126 7   3774265.89222
  22039052.3394  -11508264.83546  -8967425.41261
  22436320.269    -5883984.854 7  -4584907.86021
  20632079.4874   -2024787.35747  -1577757.51363
  23862743.5264    -784645.67645   -582223.42361
  23942652.1364     -75932.15142
 91  3 25 22 47 29.9990000  0  6G18G 2G11G19G16G 6
  21380327.034     4877385.389 7   3800546.80222
  22031879.323   -11545950.750 6  -8996790.93221
  22435283.026    -5889452.956 7  -4589168.70821
  20631739.6754   -2026542.17347  -1579124.90863
  23860478.9874    -796539.28345   -591491.21061
  23935431.8314    -113891.46142        -0.30071
 91  3 25 22 47 44.9990000  0  6G18G 2G11G19G16G 6
  21386763.276     4911210.377 7   3826903.85522
  22024723.4174  -11583562.78246  -9026098.88461
  22434270.698    -5894764.454 7  -4593307.52121
  20631420.386    -2028242.793 7  -1580450.08223
  23858244.034     -808298.817 4   -600654.49621
  23928202.7764    -151846.86442    -29575.82761
 91  3 25 22 47 59.9990000  0  6G18G 2G11G19G16G 6
  21393217.6984    4945124.11547   3853330.07362
  22017578.8004  -11621109.73646  -9055356.12461
  22433286.4564   -5899928.14447  -4597331.16561
  20631107.081    -2029897.848 7  -1581739.74723
  23856022.3944    -819932.97944   -609720.10961
  23920981.2614    -189807.21643    -59155.20661
 91  3 25 22 48 14.9990000  0  6G18G 2G11G19G16G 6
  21399688.0114    4979131.60447   3879829.34062
  22010446.2304  -11658586.26746  -9084558.49561
  22432334.495    -5904938.501 7  -4601235.32721
  20630801.4334   -2031501.77747  -1582989.57263
  23853837.8554    -831436.37744   -618683.82561
  23913758.9254    -227767.17543    -88734.25961
 91  3 25 22 48 29.9990000  0  6G18G 2G11G19G16G 6
  21406177.2374    5013227.87747   3906397.79562
  22003326.8624  -11695996.89646  -9113709.50861
  22431410.7144   -5909800.26047  -4605023.70061
  20630502.6594   -2033059.10347  -1584203.07063
  23851673.042     -842813.828 4   -627549.42021
  23906534.9094    -265731.45442   -118316.68561
 91  3 25 22 48 44.9990000  0  6G18G 2G11G19G16G 6
  21412684.136     5047418.702 7   3933039.92622
  21996219.9724  -11733335.70846  -9142804.56161
  22430514.769    -5914507.471 7  -4608691.65021
  20630216.7304   -2034564.05647  -1585375.76363
  23849532.628     -854059.516 3   -636312.31421
  23899311.6984    -303694.22043   -147897.93661
 91  3 25 22 48 59.9990000  0  6G18G 2G11G19G16G 6
  21419207.5814    5081701.99147   3959754.09462
  21989128.6284  -11770604.69646  -9171845.21261
  22429648.8784   -5919062.01547  -4612240.63461
  20629936.0424   -2036018.43147  -1586509.04963
  23847412.4804    -865175.49943   -644974.17161
  23892088.480     -341657.424 3   -177479.47821
 91  3 25 22 49 14.9990000  0  6G18G 2G11G19G16G 6
  21425751.448     5116084.190 7   3986545.32922
  21982050.9174  -11807796.88646  -9200826.01561
  22428810.9644   -5923457.00947  -4615665.29761
  20629674.3004   -2037415.18047  -1587597.42163
  23845326.425     -876154.635 3   -653529.36421
  23884862.4174    -379614.16543   -207056.03961
 91  3 25 22 49 29.9990000  0  6G18G 2G11G19G16G 6
  21432311.323     5150563.924 7   4013412.57922
  21974988.9094  -11844913.58846  -9229748.00361
  22428004.2534   -5927693.86847  -4618966.74161
  20629418.2844   -2038755.65947  -1588641.95663
  23843259.651     -886998.631 3   -661979.28021
  23877644.0424    -417565.97343   -236628.68161
 91  3 25 22 49 44.9990000  0  6G18G 2G11G19G16G 6
  21438890.7534    5185136.05247   4040351.82962
  21967938.5194  -11881959.54846  -9258614.86561
  22427226.6594   -5931777.11947  -4622148.48861
  20629176.0814   -2040044.52047  -1589646.25863
  23841227.7454    -897711.99443   -670327.37361
  23870420.8624    -455517.57543   -266201.22861
 91  3 25 22 49 59.9990000  0  6G18G 2G11G19G16G 6
  21445486.253     5219798.014 7   4067361.07522
  21960901.7764  -11918937.37346  -9287428.63661
  22426478.269    -5935709.208 7  -4625212.44221
  20628937.8784   -2041284.23147  -1590612.26063
  23839210.5504    -908297.39143   -678575.78261
  23863197.6984    -493471.55043   -295775.59861
 91  3 25 22 50 14.9990000  0  6G18G 2G11G19G16G 6
  21452099.401     5254547.783 7   4094438.73622
  21953877.7144  -11955848.75146  -9316190.63061
  22425759.862    -5939492.000 7  -4628160.05921
  20628710.9484   -2042476.52647  -1591541.32563
  23837216.3154    -918756.62143   -686725.85961
  23855973.1674    -531429.74444   -325353.23861
 91  3 25 22 50 29.9990000  0  6G18G 2G11G19G16G 6
  21458731.214     5289397.166 7   4121594.01522
  21946869.3944  -11992681.43546  -9344891.30961
  22425069.1594   -5943113.29047  -4630981.84161
  20628495.8624   -2043608.91547  -1592423.71763
  23835257.401     -929077.665 3   -694768.27121
  23848751.440     -569379.809 3   -354924.57921
 91  3 25 22 50 44.9990000  0  6G18G 2G11G19G16G 6
  21465380.815     5324342.514 7   4148824.06822
  21939873.5034  -12029439.07546  -9373533.50762
  22424411.1444   -5946576.77347  -4633680.65061
  20628291.4014   -2044685.24547  -1593262.41163
  23833315.2374    -939264.27543   -702705.94061
  23841533.9564    -607325.59244   -384492.57761
 91  3 25 22 50 59.9990000  0  6G18G 2G11G19G16G 6
  21472048.831     5359384.445 7   4176129.38722
  21932892.948   -12066120.380 6  -9402116.23621
  22423781.5034   -5949881.20747  -4636255.52961
  20628096.7694   -2045704.25547  -1594056.44263
  23831408.784     -949315.275 3   -710537.93421
  23834314.901     -645265.914 4   -414056.32421
 91  3 25 22 51 14.9990000  0  6G18G 2G11G19G16G 6
  21478735.7694    5394516.10547   4203504.61762
  21925925.706   -12102732.259 6  -9430644.85321
  22423183.5504   -5953033.43147  -4638711.81261
  20627911.8154   -2046672.60547  -1594811.00663
  23829513.9954    -959237.26844   -718269.40761
  23827092.7614    -683207.67644   -443621.20161
 91  3 25 22 51 29.9990000  0  6G18G 2G11G19G16G 6
  21485437.308     5429739.519 7   4230951.35022
  21918972.987   -12139272.278 6  -9459117.48222
  22422609.8394   -5956030.98647  -4641047.56161
  20627742.8234   -2047587.81147  -1595524.15363
  23827659.761     -969028.232 4   -725898.76321
  23819875.401     -721148.587 5   -473185.39821
 91  3 25 22 51 44.9990000  0  6G18G 2G11G19G16G 6
  21492158.003     5465056.596 7   4258471.06922
  21912034.675   -12175738.281 6  -9487532.44021
  22422072.6754   -5958872.01547  -4643261.35161
  20627576.1674   -2048447.96347  -1596194.40563
  23825816.761     -978686.433 4   -733424.68921
  23812651.230     -759086.586 5   -502747.32721
 91  3 25 22 51 59.9990000  0  6G18G 2G11G19G16G 6
  21498895.894     5500467.036 7   4286063.53222
  21905107.065   -12212130.221 6  -9515889.68222
  22421561.7764   -5961556.39547  -4645353.07561
  20627420.3154   -2049252.81747  -1596821.56763
  23824003.4724    -988211.26845   -740846.67561
  23805432.8154    -797021.80245   -532307.06361
 91  3 25 22 52 14.9990000  0  6G18G 2G11G19G16G 6
  21505653.0194    5535974.85747   4313731.87562
  21898197.792   -12248443.791 6  -9544185.86522
  22421081.8944   -5964079.81447  -4647319.38361
  20627279.2614   -2049997.82947  -1597402.09863
  23822220.737     -997598.736 5   -748161.64421
  23798217.159     -834949.873 5   -561861.27321
 91  3 25 22 52 29.9990000  0  6G18G 2G11G19G16G 6
  21512427.5504    5571573.44047   4341470.93662
  21891300.940   -12284685.443 6  -9572426.00222
  22420628.3234   -5966448.66147  -4649165.23961
  20627148.6364   -2050689.68447  -1597941.20763
  23820455.9014   -1006855.90445   -755375.08561
  23791002.5894    -872877.19445   -591414.88061
 91  3 25 22 52 44.9990000  0  6G18G 2G11G19G16G 6
  21519221.925     5607270.630 7   4369286.84522
  21884418.214   -12320846.877 6  -9600603.62922
  22420209.2224   -5968654.68147  -4650884.22461
  20627028.6444   -2051319.85947  -1598432.25963
  23818723.769    -1015973.902 5   -762480.09421
  23783783.8864    -910795.69445   -620961.64661
 91  3 25 22 52 59.9990000  0  6G18G 2G11G19G16G 6
  21526030.5344    5643060.39347   4397174.88462
  21877552.542   -12356934.027 6  -9628723.38322
  22419818.7764   -5970703.86247  -4652480.99161
  20626917.7454   -2051894.11547  -1598879.72763
  23817014.2534   -1024959.09545   -769481.58061
  23776568.4094    -948711.32745   -650506.20461
 91  3 25 22 53 14.9990000  0  6G18G 2G11G19G16G 6
  21532859.8624    5678945.31847   4425137.06962
  21870699.745   -12392944.231 6  -9656783.17822
  22419461.0584   -5972593.37747  -4653953.34061
  20626820.3554   -2052409.64247  -1599281.44163
  23815330.2614   -1033808.47445   -776377.25161
  23769354.8084    -986621.28145   -680046.28461
 91  3 25 22 53 29.9990000  0  6G18G 2G11G19G16G 6
  21539706.565     5714920.750 7   4453169.77222
  21863860.128   -12428881.672 6  -9684786.26622
  22419131.3004   -5974327.57447  -4655304.67761
  20626729.839    -2052870.637 7  -1599640.67423
  23813670.6124   -1042526.35245   -783170.48561
  23762140.8554   -1024529.95445   -709585.38461
 91  3 25 22 53 44.9990000  0  6G18G 2G11G19G16G 6
  21546570.5654    5750992.74247   4481277.71962
  21857037.175   -12464740.193 6  -9712727.86522
  22418829.8944   -5975900.37947  -4656530.24161
  20626658.8474   -2053271.13047  -1599952.76263
  23812038.7764   -1051107.07145   -789856.82361
  23754930.6204   -1062431.34345   -739118.78861
 91  3 25 22 53 59.9990000  0  6G18G 2G11G19G16G 6
  21553451.1124    5787153.54147   4509454.87062
  21850227.636   -12500527.145 6  -9740613.69522
  22418559.9014   -5977319.14847  -4657635.78661
  20626591.6364   -2053618.45247  -1600223.41963
  23810429.3624   -1059557.87945   -796441.90861
  23747716.042    -1100332.739 5   -768652.26021
 91  3 25 22 54 14.9990000  0  6G18G 2G11G19G16G 6
  21560351.6284    5823408.26747   4537705.21262
  21843432.386   -12536237.114 6  -9768439.53822
  22418322.7064   -5978578.65247  -4658617.23361
  20626536.284    -2053906.939 7  -1600448.24023
  23808847.573    -1067873.556 5   -802921.71921
  23740503.097    -1138228.923 5   -798181.64421
 91  3 25 22 54 29.9990000  0  6G18G 2G11G19G16G 6
  21567267.730     5859756.690 7   4566028.54922
  21836651.651   -12571870.144 6  -9796205.42522
  22418110.120    -5979678.733 7  -4659474.46021
  20626493.050    -2054136.544 7  -1600627.16423
  23807291.870    -1076054.083 5   -809296.22721
  23733292.9254   -1176119.83245   -827706.95361
 91  3 25 22 54 44.9990000  0  6G18G 2G11G19G16G 6
  21574203.073     5896197.001 7   4594423.49022
  21829884.980   -12607427.558 6  -9823912.39422
  22417932.964    -5980620.674 7  -4660208.45521
  20626460.683    -2054308.622 7  -1600761.26023
  23805760.5974   -1084100.71045   -815566.38961
  23726085.1904   -1214006.73945   -857229.06661
 91  3 25 22 54 59.9990000  0  6G18G 2G11G19G16G 6
  21581153.550     5932728.624 7   4622889.58522
  21823133.136   -12642909.863 6  -9851560.83422
  22417780.3944   -5981405.07547  -4660819.68761
  20626438.3864   -2054423.39847
  23804254.112    -1092014.437 5   -821733.00521
  23718876.4484   -1251890.26945   -886748.61661
 91  3 25 22 55 14.9990000  0  6G18G 2G11G19G16G 6
  21588121.940     5969345.985 7   4651422.48522
  21816392.105   -12678322.735 6  -9879155.17822
  22417664.3004   -5982037.62347  -4661312.58961
  20626424.6444   -2054486.58547
  23802771.425    -1099800.735 5   -827800.27921
  23711666.995    -1289776.235 5   -916270.03821
 91  3 25 22 55 29.9990000  0  6G18G 2G11G19G16G 6
  21595109.6444    6006058.40747   4680029.47062
  21809670.847   -12713656.200 6  -9906687.63722
  22417574.2844   -5982508.62447  -4661679.61261
  20626426.0974   -2054488.36347
  23801318.331    -1107450.065 5   -833760.89921
  23704457.2224   -1327654.79045   -945785.69761
 91  3 25 22 55 44.9990000  0  6G18G 2G11G19G16G 6
  21602114.2844    6042871.87147   4708715.18662
  21802962.995   -12748903.923 6  -9934153.29222
  22417515.4954   -5982811.59047  -4661915.70161
  20626441.4644   -2054422.22547
  23799888.6514   -1114956.23745   -839609.90561
  23697251.9874   -1365519.55845   -975290.61561
 91  3 25 22 55 59.9990000  0  6G18G 2G11G19G16G 6
  21609136.323     6079772.542 7   4737468.84922
  21796267.284   -12784079.426 6  -9961562.67122
  22417485.276    -5982960.125 7
  20626460.4564   -2054301.74147
  23798485.933    -1122332.648 5   -845357.85521
  23690047.1674   -1403384.19245  -1004795.40361
 91  3 25 22 56 14.9990000  0  6G18G 2G11G19G16G 6
  21616173.214     6116753.679 7   4766285.21422
  21789588.433   -12819189.400 6  -9988920.98622
  22417486.120    -5982960.929 7
  20626493.940    -2054133.367 7
  23797103.534    -1129586.129 5   -851009.99921
  23682842.4094   -1441255.32245  -1034305.29961
 91  3 25 22 56 29.9990000  0  6G18G 2G11G19G16G 6
  21623228.183     6153827.124 7   4795173.50022
  21782921.105   -12854221.557 6 -10016218.66522
  22417517.3624   -5982801.71547
  20626536.136    -2053904.950 7
  23795750.2764   -1136704.43045   -856556.80461
  23675631.995    -1479120.777 5  -1063810.72121
 91  3 25 22 56 44.9990000  0  6G18G 2G11G19G16G 6
  21630299.183     6190987.034 7   4824129.15622
  21776268.370   -12889181.468 6 -10043460.04822
  22417577.542    -5982488.204 7
  20626591.347    -2053622.014 7
  23794421.401    -1143693.332 5   -862002.73821
  23668426.5264   -1516986.17845  -1093316.14661
 91  3 25 22 56 59.9990000  0  6G18G 2G11G19G16G 6
  21637387.847     6228234.606 7   4853153.13322
  21769628.097   -12924068.062 6 -10070644.30722
  22417664.5584   -5982019.23147  -4661298.32361
  20626653.362    -2053283.102 7  -1599962.29923
  23793114.675    -1150551.587 5   -867346.91921
  23661221.1984   -1554850.42845  -1122820.65461
 91  3 25 22 57 14.9990000  0  6G18G 2G11G19G16G 6
  21644493.6674    6265573.92947   4882248.61062
  21763005.644   -12958876.570 7 -10097767.71122
  22417783.2374   -5981390.11547  -4660808.11461
  20626733.026    -2052883.557 7  -1599650.98723
  23791837.2614   -1157274.81845   -872585.84861
  23654016.6444   -1592708.80645  -1152320.59061
 91  3 25 22 57 29.9990000  0  6G18G 2G11G19G16G 6
  21651612.995     6302989.722 7   4911403.66622
  21756393.745   -12993622.395 7 -10124842.27922
  22417931.3554   -5980616.32247  -4660205.16861
  20626814.9484   -2052438.79347  -1599304.44563
  23790578.0584   -1163878.74545   -877731.81861
  23646809.1594   -1630576.73545  -1181827.96461
 91  3 25 22 57 44.9990000  0  6G18G 2G11G19G16G 6
  21658749.605     6340487.632 7   4940622.69922
  21749794.776   -13028299.430 7 -10151863.24122
  22418109.2374   -5979691.67747  -4659484.65761
  20626909.9334   -2051942.30147  -1598917.60163
  23789345.7614   -1170356.86945   -882779.77861
  23639602.0504   -1668448.12644  -1211338.03461
 91  3 25 22 57 59.9990000  0  6G18G 2G11G19G16G 6
  21665900.0264    6378070.77647   4969908.15362
  21743210.995   -13062903.969 7 -10178827.71322
  22418314.8554   -5978612.47547  -4658643.72961
  20627015.269    -2051390.475 7  -1598487.62923
  23788136.878    -1176705.731 5   -887727.00421
  23632396.308    -1706319.342 4  -1240847.96021
 91  3 25 22 58 14.9990000  0  6G18G 2G11G19G16G 6
  21673070.409     6415744.435 7   4999264.13322
  21736640.253   -13097430.776 7 -10205731.61922
  22418549.3314   -5977373.63647  -4657678.40161
  20627132.761    -2050778.060 7  -1598010.44323
  23786955.519    -1182920.272 5   -892569.57921
  23625193.9644   -1744185.28244  -1270353.78161
 91  3 25 22 58 29.9990000  0  6G18G 2G11G19G16G 6
  21680258.058     6453519.927 7   5028699.47022
  21730085.6984  -13131867.89647 -10232565.64162
  22418818.6364   -5975963.46047  -4656579.56561
  20627263.534    -2050093.165 7  -1597476.77623
  23785798.8554   -1188988.75444   -897298.32561
  23617991.2454   -1782033.98544  -1299846.17361
 91  3 25 22 58 44.9990000  0  6G18G 2G11G19G16G 6
  21687465.5894    6491382.91547   5058202.97262
  21723547.7454  -13166229.55247 -10259340.85762
  22419116.8784   -5974396.18847  -4655358.31561
  20627404.128    -2049349.991 7  -1596897.69323
  23784668.1834   -1194925.67344   -901924.53961
  23610786.589    -1819879.820 4  -1329336.34421
 91  3 25 22 58 59.9990000  0  6G18G 2G11G19G16G 6
  21694684.6594    6529328.87047   5087771.12462
  21717021.6284  -13200520.42847 -10286060.92162
  22419443.1284   -5972676.55047  -4654018.34161
  20627554.034    -2048553.004 7  -1596276.68123
  23783561.3234   -1200735.70043   -906451.89761
  23603583.151    -1857727.469 4  -1358827.91521
 91  3 25 22 59 14.9990000  0  6G18G 2G11G19G16G 6
  21701920.9014    6567353.59547   5117400.67062
  21710509.3084  -13234744.25447 -10312728.74662
  22419801.1514   -5970808.15147  -4652562.44561
  20627714.995    -2047705.820 7  -1595616.54923
  23782480.190    -1206422.166 3   -910882.97121
  23596381.237    -1895580.520 4  -1388323.70721
 91  3 25 22 59 29.9990000  0  6G18G 2G11G19G16G 6
  21709173.081     6605461.807 7   5147095.26522
  21704009.3084  -13268896.28247 -10339340.61962
  22420183.3624   -5968786.22847  -4650986.91861
  20627887.550    -2046803.648 7  -1594913.57923
  23781423.550    -1211980.630 3   -915214.32921
  23589181.206    -1933434.245 4  -1417820.01521
 91  3 25 22 59 44.9990000  0  6G18G 2G11G19G16G 6
  21716439.9564    6643652.80147   5176854.36062
  21697524.9094  -13302976.70047 -10365896.69662
  22420597.9724   -5966610.97547  -4649291.90861
  20628072.800    -2045846.582 7  -1594167.82823
  23780389.8004   -1217411.60443   -919446.30661
  23581976.1984   -1971288.85945  -1447317.00561
 91  3 25 22 59 59.9990000  0  6G18G 2G11G19G16G 6
  21723724.3004    6681929.80947   5206680.47262
  21691053.8084  -13336981.98747 -10392394.22962
  22421041.8004   -5964279.15347  -4647474.88861
  20628261.722    -2044831.135 7  -1593376.59023
  23779382.784    -1222711.580 3   -923576.19821
  23574771.081    -2009140.973 4  -1476812.06221
 91  3 25 23  0 14.9990000  0  6G18G 2G11G19G16G 6
  21731022.7694    6720284.91547   5236567.45061
  21684595.5584  -13370919.76247 -10418839.16262
  22421514.8314   -5961798.32247  -4645541.77661
  20628467.6514   -2043764.66847  -1592545.59363
  23778390.894    -1227888.096 3   -927609.91421
  23567570.8154   -2046998.24445  -1506311.13461
 91  3 25 23  0 29.9990000  0  6G18G 2G11G19G16G 6
  21738336.503     6758718.665 7   5266515.70822
  21678150.7534  -13404789.42047 -10445231.01662
  22422014.4724   -5959167.91747  -4643492.11061
  20628681.3154   -2042646.45647  -1591674.26563
  23777432.472    -1232941.114 3   -931547.38421
  23560361.8394   -2084860.04445  -1535813.73361
 91  3 25 23  0 44.9990000  0  6G18G 2G11G19G16G 6
  21745663.4564    6797220.49147   5296517.01361
  21671715.3624  -13438600.82947 -10471577.47862
  22422542.2694   -5956398.02747  -4641333.75361
  20628901.3554   -2041486.51647  -1590770.41463
  23776490.9954   -1237880.22243   -935396.10561
  23553157.0734   -2122736.39745  -1565327.66361
 91  3 25 23  0 59.9990000  0  6G18G 2G11G19G16G 6
  21753002.0264    6835791.49047   5326572.21761
  21665293.698   -13472352.710 7 -10497877.56222
  22423094.4094   -5953487.46747  -4639065.79261
  20629130.8864   -2040283.43747  -1589832.94762
  23775575.6904   -1242704.74643   -939155.52261
  23545946.745    -2160626.086 5  -1594852.00221
 91  3 25 23  1 14.9990000  0  6G18G 2G11G19G16G 6
  21760358.1754    6874440.80147   5356688.44861
  21658883.815   -13506035.667 7 -10524123.93622
  22423676.5654   -5950426.76247  -4636680.83461
  20629370.0734   -2039027.71147  -1588854.45262
  23774677.855    -1247405.246 3   -942818.31821
  23538733.6284   -2198519.69345  -1624379.39261
 91  3 25 23  1 29.9990000  0  6G18G 2G11G19G16G 6
  21767728.7924    6913178.22247   5386873.32561
  21652489.659   -13539639.809 7 -10550308.89922
  22424291.7534   -5947206.11247  -4634171.23461
  20629615.7844   -2037709.39447  -1587827.20063
  23773809.2694   -1251971.72443   -946376.67261
  23531526.3784   -2236407.28645  -1653902.08761
 91  3 25 23  1 44.9990000  0  6G18G 2G11G19G16G 6
  21775114.2454    6951987.82547   5417114.45161
  21646106.1834  -13573180.71347 -10576444.58162
  22424931.9334   -5943841.16747  -4631549.19461
  20629878.3624   -2036344.10747  -1586763.35063
  23772970.480    -1256419.945 3   -949842.89621
  23524315.409    -2274304.591 5  -1683432.35821
 91  3 25 23  1 59.9990000  0  6G18G 2G11G19G16G 6
  21782515.2844    6990872.22647   5447413.85561
  21639736.276   -13606655.644 7 -10602528.87022
  22425599.1364   -5940329.03647  -4628812.46861
  20630147.2454   -2034928.75247  -1585660.48262
  23772141.378    -1260747.307 3   -953214.94221
  23517101.6984   -2312208.68145  -1712967.91561
 91  3 25 23  2 14.9990000  0  6G18G 2G11G19G16G 6
  21789927.0654    7029831.62847   5477771.70261
  21633378.784   -13640064.215 7 -10628561.43822
  22426297.5034   -5936669.68747  -4625961.02161
  20630426.2454   -2033463.03347  -1584518.37462
  23771345.5344   -1264953.79543   -956492.78661
  23509888.1054   -2350119.28445  -1742508.54061
 91  3 25 23  2 29.9990000  0  6G18G 2G11G19G16G 6
  21797357.3944    7068869.25047   5508190.49961
  21627035.144   -13673402.490 7 -10654539.24422
  22427020.3154   -5932859.30747  -4622991.89761
  20630715.5264   -2031942.95247  -1583333.90262
  23770568.292    -1269035.374 4   -959673.32621
  23502673.511    -2388032.621 5  -1772051.30221
 91  3 25 23  2 44.9990000  0  6G18G 2G11G19G16G 6
  21804800.784     7107984.860 7   5538670.06621
  21620703.675   -13706670.839 7 -10680462.55422
  22427775.5584   -5928898.11547  -4619905.25461
  20631015.7144   -2030368.64347  -1582107.16562
  23769815.355    -1272992.462 4   -962756.84421
  23495459.855    -2425948.885 5  -1801596.33321
 91  3 25 23  2 59.9990000  0  6G18G 2G11G19G16G 6
  21812257.909     7147176.033 7   5569208.50821
  21614384.839   -13739871.461 7 -10706333.08922
  22428555.9334   -5924788.47847  -4616702.94361
  20631324.0814   -2028742.29347  -1580839.87762
  23769085.690    -1276827.428 4   -965745.18821
  23488243.3704   -2463870.39145  -1831145.47861
 91  3 25 23  3 14.9990000  0  6G18G 2G11G19G16G 6
  21819730.3474    7186439.05947   5599802.94761
  21608080.737   -13773007.642 7 -10732153.41922
  22429366.7924   -5920533.86747  -4613387.67661
  20631644.2534   -2027067.26447  -1579534.65762
  23768378.737    -1280543.581 4   -968640.97121
  23481023.9954   -2501800.45445  -1860701.27361
 91  3 25 23  3 29.9990000  0  6G18G 2G11G19G16G 6
  21827215.3784    7225775.20647   5630454.36161
  21601788.440   -13806077.819 7 -10757922.31722
  22430205.3004   -5916132.63947  -4609958.15561
  20631969.7454   -2025341.73447  -1578190.08263
  23767697.0504   -1284139.87844   -971443.33661
  23473803.284    -2539737.650 5  -1890262.62021
 91  3 25 23  3 44.9990000  0  6G18G 2G11G19G16G 6
  21834713.823     7265180.141 7   5661159.37021
  21595505.2224  -13839086.12147 -10783643.00362
  22431069.3784   -5911588.93247  -4606417.60661
  20632309.8784   -2023569.68147  -1576809.26463
  23767032.0264   -1287620.47345   -974155.56961
  23466580.9874   -2577685.93545  -1919832.61261
 91  3 25 23  3 59.9990000  0  6G18G 2G11G19G16G 6
  21842224.5344    7304648.28647   5691913.64261
  21589234.440   -13872037.556 7 -10809319.37122
  22431959.5034   -5906907.83847  -4602770.00961
  20632657.7764   -2021756.28447  -1575396.23262
  23766394.370    -1290990.191 5   -976781.40821
  23459356.7374   -2615650.44745  -1949415.24661
 91  3 25 23  4 14.9990000  0  6G18G 2G11G19G16G 6
  21849751.3474    7344196.26947   5722730.12361
  21582978.9334  -13904915.48047 -10834938.45962
  22432878.690    -5902072.953 7  -4599002.58221
  20633011.9804   -2019884.79347  -1573937.92462
  23765775.019    -1294232.839 5   -979308.21321
  23452134.831    -2653614.464 5  -1978997.48321
 91  3 25 23  4 29.9990000  0  6G18G 2G11G19G16G 6
  21857291.003     7383819.865 7   5753605.51221
  21576735.5894  -13937724.09547 -10860503.54762
  22433826.948    -5897088.318 7  -4595118.44021
  20633377.5114   -2017959.01247  -1572437.31762
  23765179.183    -1297352.568 5   -981739.25121
  23444908.6284   -2691582.14845  -2008582.57061
 91  3 25 23  4 44.9990000  0  6G18G 2G11G19G16G 6
  21864846.847     7423523.663 7   5784543.40321
  21570506.0584  -13970458.44047 -10886010.75762
  22434805.5034   -5891949.29147  -4591113.99461
  20633756.1834   -2015974.12747  -1570890.64563
  23764612.190    -1300344.505 5   -984070.70021
  23437684.5584   -2729548.66345  -2038166.77561
 91  3 25 23  4 59.9990000  0  6G18G 2G11G19G16G 6
  21872418.167     7463309.390 7   5815545.13721
  21564291.0424  -14003116.55047 -10911458.56662
  22435813.4484   -5886653.88247  -4586987.69861
  20634143.3624   -2013928.11847  -1569296.34363
  23764067.745    -1303206.919 5   -986301.23821
  23430458.995    -2767512.087 5  -2067748.53921
 91  3 25 23  5 14.9990000  0  6G18G 2G11G19G16G 6
  21880002.0814    7503168.96247   5846604.41261
  21558089.456   -14035705.827 7 -10936852.73922
  22436850.972    -5881209.579 7  -4582745.37021
  20634543.4724   -2011828.10847  -1567659.96463
  23763547.0344   -1305947.14745   -988436.56161
  23423234.8394   -2805479.73845  -2097333.61061
 91  3 25 23  5 29.9990000  0  6G18G 2G11G19G16G 6
  21887601.534     7543097.561 7   5877717.47421
  21551899.792   -14068230.918 7 -10962196.89522
  22437913.7764   -5875621.13547  -4578390.74361
  20634950.800    -2009678.858 7  -1565985.21022
  23763049.550    -1308570.160 5   -990480.53921
  23416009.409    -2843456.320 5  -2126925.65021
 91  3 25 23  5 44.9990000  0  6G18G 2G11G19G16G 6
  21895213.698     7583103.754 7   5908890.99521
  21545723.5504  -14100683.30147 -10987484.39762
  22439005.151    -5869880.122 7  -4573917.21321
  20635373.3784   -2007471.73647  -1564265.37463
  23762573.5344   -1311067.67245   -992426.74861
  23408779.440    -2881433.365 5  -2156518.03821
 91  3 25 23  5 59.9990000  0  6G18G 2G11G19G16G 6
  21902840.237     7623180.659 7   5940119.61821
  21539561.5504  -14133069.46647 -11012720.29862
  22440126.2144   -5863993.20447  -4569329.99861
  20635800.8234   -2005213.17647  -1562505.45663
  23762118.909    -1313446.043 5   -994280.09421
  23401550.136    -2919417.341 5  -2186115.84421
 91  3 25 23  6 14.9990000  0  6G18G 2G11G19G16G 6
  21910481.0194    7663332.94647   5971406.98661
  21533412.347   -14165384.207 7 -11037900.54722
  22441275.706    -5857955.321 7  -4564625.14221
  20636243.4254   -2002897.97047  -1560701.39763
  23761690.386    -1315700.472 5   -996036.85721
  23394321.933    -2957403.201 5  -2215715.09321
 91  3 25 23  6 29.9990000  0  6G18G 2G11G19G16G 6
  21918137.4094    7703560.62747   6002753.11261
  21527276.8784  -14197627.31347 -11063024.97562
  22442450.933    -5851766.102 7  -4559802.36821
  20636694.5114   -2000525.78447  -1558852.94463
  23761288.9644   -1317830.76045   -997696.91761
  23387093.589    -2995390.618 5  -2245315.57121
 91  3 25 23  6 44.9990000  0  6G18G 2G11G19G16G 6
  21925805.417     7743863.841 7   6034158.07721
  21521155.105   -14229798.634 7 -11088093.46722
  22443659.5584   -5845425.61047  -4554861.72161
  20637156.7374   -1998096.24947  -1556959.81063
  23760903.136    -1319836.636 5   -999260.00021
  23379863.565    -3033379.415 5  -2274917.13221
 91  3 25 23  6 59.9990000  0  6G18G 2G11G19G16G 6
  21933488.5814    7784240.17047   6065620.02661
  21515046.214   -14261900.338 7 -11113107.70822
  22444894.6364   -5838936.00047  -4549804.86961
  20637628.6124   -1995611.34647  -1555023.52363
  23760545.8704   -1321720.81245  -1000728.26761
  23372633.909    -3071371.703 5  -2304521.41221
 91  3 25 23  7 14.9990000  0  6G18G 2G11G19G16G 6
  21941186.112     7824686.982 7   6097136.88821
  21508949.5034  -14293934.57547 -11138069.38162
  22446155.409    -5832299.646 7  -4544633.67721
  20638114.4644   -1993073.26547  -1553045.79963
  23760209.6984   -1323485.70745  -1002103.58661
  23365399.214    -3109369.736 5  -2334130.14021
 91  3 25 23  7 29.9990000  0  6G18G 2G11G19G16G 6
  21948895.894     7865199.974 7   6128705.31721
  21502866.495   -14325905.413 7 -11162981.64422
  22447448.2224   -5825520.63447  -4539351.32061
  20638602.6514   -1990486.01647  -1551029.75563
  23759894.0814   -1325135.27245  -1003389.03361
  23358172.839    -3147377.603 5  -2363746.58121
 91  3 25 23  7 44.9990000  0  6G18G 2G11G19G16G 6
  21956618.855     7905783.213 7   6160328.48521
  21496795.120   -14357808.708 7 -11187841.27522
  22448765.2844   -5818594.74547  -4533954.52561
  20639106.8474   -1987845.12347  -1548971.92563
  23759607.511    -1326665.294 5  -1004581.32021
  23350935.519    -3185390.952 5  -2393367.28121
 91  3 25 23  7 59.9990000  0  6G18G 2G11G19G16G 6
  21964356.245     7946438.514 7   6192007.80421
  21490737.940   -14389642.341 7 -11212646.63822
  22450112.6754   -5811520.04447  -4528441.76561
  20639621.1204   -1985148.47247  -1546870.63563
  23759335.542    -1328073.986 5  -1005679.09021
  23343704.0654   -3223407.83945  -2422990.74661
 91  3 25 23  8 14.9990000  0  6G18G 2G11G19G16G 6
  21972104.503     7987162.708 7   6223740.80821
  21484691.769   -14421409.402 7 -11237400.10022
  22451484.2694   -5804299.79147  -4522815.60061
  20640144.2844   -1982399.25847  -1544728.40063
  23759091.206    -1329364.454 5  -1006684.73521
  23336466.1364   -3261431.28145  -2452619.29261
 91  3 25 23  8 29.9990000  0  6G18G 2G11G19G16G 6
  21979866.987     8027959.420 7   6255530.31721
  21478660.847   -14453105.518 7 -11262098.29422
  22452888.7454   -5796929.81347  -4517072.75361
  20640677.8554   -1979593.01347  -1542541.71363
  23758869.3704   -1330532.74645  -1007595.18061
  23329232.198    -3299457.126 5  -2482249.72821
 91  3 25 23  8 44.9990000  0  6G18G 2G11G19G16G 6
  21987646.073     8068826.381 7   6287374.57221
  21472641.073   -14484732.553 7 -11286742.65422
  22454317.6904   -5789412.02047  -4511214.73761
  20641223.4874   -1976731.40247  -1540311.88363
  23758668.8944   -1331580.83745  -1008411.94261
  23321992.4334   -3337487.15145  -2511883.41661
 91  3 25 23  8 59.9990000  0  6G18G 2G11G19G16G 6
  21995433.901     8109759.752 7   6319270.57021
  21466636.097   -14516294.884 7 -11311336.59322
  22455776.2144   -5781750.71147  -4505244.88161
  20641774.6444   -1973818.53647  -1538042.12463
  23758492.9644   -1332513.01145  -1009138.39161
  23314754.769    -3375525.493 5  -2541523.59021
 91  3 25 23  9 14.9980000  0  6G18G 2G11G19G16G 6
  22003236.4204    8150761.79047   6351220.08861
  21460643.2954  -14547784.70047 -11335874.02562
  22457263.1154   -5773940.96947  -4499159.37361
  20642342.4824   -1970849.04747  -1535728.25163
  23758336.787    -1333323.724 5  -1009770.20621
  23307518.576    -3413564.103 5  -2571163.96721
 91  3 25 23  9 29.9980000  0  6G18G 2G11G19G16G 6
  22011054.568     8191836.105 7   6383225.91521
  21454662.2954  -14579207.77147 -11360359.44862
  22458776.9824   -5765983.46547  -4492958.71861
  20642914.5294   -1967823.94547  -1533371.02363
  23758207.975    -1334014.849 5  -1010308.81621
  23300276.115    -3451609.583 5  -2600809.68521
 91  3 25 23  9 44.9980000  0  6G18G 2G11G19G16G 6
  22018882.357     8232978.962 7   6415285.14021
  21448697.7324  -14610562.73247 -11384791.79662
  22460317.6934   -5757879.42047  -4486643.88661
  20643504.5684   -1964744.16647  -1530971.19063
  23758099.334    -1334587.100 5  -1010754.80721
  23293034.4204   -3489660.16845  -2630459.40961
 91  3 25 23  9 59.9980000  0  6G18G 2G11G19G16G 6
  22026724.951     8274190.943 7   6447398.23721
  21442742.9284  -14641848.52047 -11409170.24162
  22461889.0534   -5749627.89347  -4480214.12861
  20644099.4044   -1961608.60247  -1528527.88963
  23758010.8034   -1335039.84645  -1011107.68361
  23285794.537    -3527714.777 5  -2660112.24621
 91  3 25 23 10 14.9980000  0  6G18G 2G11G19G16G 6
  22034580.592     8315469.078 7   6479562.88621
  21436802.5064  -14673067.96947 -11433496.98962
  22463487.4984   -5741232.07947  -4473671.93661
  20644706.5764   -1958420.15546  -1526043.38063
  23757947.4364   -1335376.14945  -1011369.80061
  23278550.568    -3565776.341 5  -2689770.51721
 91  3 25 23 10 29.9980000  0  6G18G 2G11G19G16G 6
  22042449.443     8356819.601 7   6511783.92621
  21430875.6004  -14704214.83647 -11457767.18462
  22465112.2404   -5732685.66047  -4467012.39661
  20645324.5374   -1955172.04347  -1523512.37863
  23757907.842    -1335589.458 5  -1011536.08321
  23271309.9364   -3603838.54245  -2719429.27561
 91  3 25 23 10 44.9980000  0  6G18G 2G11G19G16G 6
  22050332.701     8398237.114 7   6544057.18121
  21424962.0454  -14735294.39147 -11481984.93162
  22466768.2724   -5723993.83447  -4460239.55661
  20645952.4204   -1951869.45846  -1520938.93563
  23757888.4514   -1335685.47145
  23264065.1864   -3641906.41945  -2749092.44961
 91  3 25 23 10 59.9980000  0  6G18G 2G11G19G16G 6
  22058224.1004    8439721.72747   6576382.70861
  21419059.0064  -14766305.88747 -11506149.63462
  22468449.357    -5715156.175 7  -4453353.08821
  20646595.0294   -1948511.67246  -1518322.48363
  23757892.9984   -1335663.44745
  23256822.1004   -3679979.40445  -2778759.62761
 91  3 25 23 11 14.9980000  0  6G18G 2G11G19G16G 6
  22066131.6864    8481270.47147   6608758.22761
  21413170.4674  -14797252.16647 -11530263.52462
  22470157.7954   -5706175.47847  -4446355.15561
  20647242.3734   -1945101.29146  -1515665.04863
  23757917.9434   -1335526.43845
  23249576.1154   -3718060.20445  -2808432.88261
 91  3 25 23 11 29.9980000  0  6G18G 2G11G19G16G 6
  22074050.100     8522880.415 7   6641181.41821
  21407294.1394  -14828135.80647 -11554328.61062
  22471895.2954   -5697054.48747  -4439247.89861
  20647896.9434   -1941640.96247  -1512968.69263
  23757966.0844   -1335277.33045
  23242325.1864   -3756151.56245  -2838114.36061
 91  3 25 23 11 44.9980000  0  6G18G 2G11G19G16G 6
  22081981.0684    8564554.88947   6673654.88261
  21401427.7174  -14858953.23847 -11578342.10162
  22473656.240    -5687789.690 7  -4432028.58721
  20648569.8814   -1938126.92746  -1510230.47763
  23758031.3114   -1334912.47145
  23235073.397    -3794249.769 5  -2867801.17521
 91  3 25 23 11 59.9980000  0  6G18G 2G11G19G16G 6
  22089923.9124    8606298.42747   6706182.17061
  21395577.5614  -14889699.61447 -11602300.22562
  22475448.0844   -5678376.40247  -4424693.55961
  20649248.0534   -1934554.13647  -1507446.48263
  23758128.5294   -1334427.40545
  23227822.959    -3832350.005 5  -2897489.57421
 91  3 25 23 12 14.9980000  0  6G18G 2G11G19G16G 6
  22097879.662     8648104.631 7   6738758.29621
  21389739.5064  -14920381.22547 -11626207.88462
  22477266.795    -5668821.123 7  -4417247.90521
  20649939.5614   -1930928.90146  -1504621.62663
  23758240.943    -1333828.374 5        -0.40531
  23220572.232    -3870458.486 5  -2927184.41921
 91  3 25 23 12 29.9980000  0  6G18G 2G11G19G16G 6
  22105847.1544    8689979.79246   6771388.14561
  21383915.1784  -14950991.59647 -11650060.03162
  22479112.7794   -5659117.40147  -4409686.56861
  20650636.2254   -1927244.62147  -1501750.76263
  23758376.5144   -1333109.13645       559.95561
  23213320.2564   -3908568.76445  -2956880.64361
 91  3 25 23 12 44.9980000  0  6G18G 2G11G19G16G 6
  22113829.436     8731912.016 6   6804062.46021
  21378101.8424  -14981541.88647 -11673865.36262
  22480986.342    -5649276.688 7  -4402018.49521
  20651349.5374   -1923512.62046  -1498842.71063
  23758533.842    -1332281.122 5      1205.07121
  23206065.5144   -3946692.11445  -2986587.05761
 91  3 25 23 12 59.9980000  0  6G18G 2G11G19G16G 6
  22121818.834     8773906.984 6   6836785.66921
  21372299.7874  -15012026.23047 -11697619.30762
  22482885.8184   -5639293.08447  -4394239.06961
  20652070.9434   -1919726.70146  -1495892.64863
  23758713.9824   -1331338.61144      1939.43761
  23198809.795    -3984822.479 5  -3016298.92121
 91  3 25 23 13 14.9980000  0  6G18G 2G11G19G16G 6
  22129822.7724    8815966.50446   6869559.17761
  21366511.514   -15042442.760 7 -11721320.41522
  22484813.4434   -5629164.83747  -4386346.93161
  20652801.7094   -1915885.05247  -1492899.16863
  23758920.2724   -1330279.74545      2764.42661
  23191552.4984   -4022958.04045  -3046014.86361
 91  3 25 23 13 29.9980000  0  6G18G 2G11G19G16G 6
  22137839.0924    8858089.85446   6902382.41361
  21360736.4514  -15072792.11347 -11744969.17662
  22486765.6154   -5618892.74547  -4378342.70361
  20653542.1154   -1911988.17547  -1489862.64763
  23759139.9984   -1329105.51845      3679.33861
  23184293.647    -4061099.419 5  -3075735.32821
 91  3 25 23 13 44.9980000  0  6G18G 2G11G19G16G 6
  22145865.779     8900275.656 6   6935254.32321
  21354973.803   -15103075.099 7 -11768566.22122
  22488749.4284   -5608477.74047  -4370227.10961
  20654296.2644   -1908036.76247  -1486783.62563
  23759384.295    -1327816.887 5      4683.34221
  23177035.147    -4099247.474 5  -3105460.97321
 91  3 25 23 13 59.9980000  0  6G18G 2G11G19G16G 6
  22153906.670     8942524.495 6   6968175.36821
  21349224.248   -15133291.236 7 -11792111.17922
  22490758.0684   -5597919.40747  -4361999.83161
  20655055.467    -1904029.939 7  -1483661.44023
  23759652.506    -1326413.333 4      5776.94821
  23169775.686    -4137401.595 5  -3135191.38221
 91  3 25 23 14 14.9980000  0  6G18G 2G11G19G16G 6
  22161958.514     8984840.004 6   7001148.35221
  21343487.350   -15163436.320 7 -11815600.77122
  22492796.5454   -5587213.73047  -4353657.75761
  20655830.1784   -1899963.48547  -1480492.78163
  23759943.037    -1324890.808 4      6963.26221
  23162514.5534   -4175557.47545  -3164923.14961
 91  3 25 23 14 29.9980000  0  6G18G 2G11G19G16G 6
  22170021.709     9027218.327 6   7034170.27821
  21337763.631   -15193514.163 7 -11839037.97022
  22494858.5764   -5576364.43447  -4345203.75561
  20656614.279    -1895841.051 7  -1477280.51623
  23760250.9674   -1323253.13743      8239.25661
  23155251.881    -4213718.884 5  -3194659.21421
 91  3 25 23 14 44.9980000  0  6G18G 2G11G19G16G 6
  22178101.568     9069669.764 6   7067249.18121
  21332055.482   -15223514.246 7 -11862414.58222
  22496954.6154   -5565361.29247  -4336629.89161
  20657413.5454   -1891652.02747  -1474016.34763
  23760589.2644   -1321489.92544      9613.13961
  23147990.9754   -4251875.27545  -3224391.37761
 91  3 25 23 14 59.9980000  0  6G18G 2G11G19G16G 6
  22186192.4364    9112185.47246   7100378.17261
  21326360.529   -15253444.709 7 -11885736.94322
  22499074.3814   -5554212.70547  -4327942.68161
  20658219.139    -1887404.777 7  -1470706.82023
  23760941.811    -1319609.894 3     11078.01121
  23140728.881    -4290035.039 5  -3254126.17421
 91  3 25 23 15 14.9980000  0  6G18G 2G11G19G16G 6
  22194296.045     9154768.443 6   7133559.57321
  21320677.803   -15283302.445 7 -11909002.63322
  22501224.4824   -5542915.78647  -4319139.88061
  20659040.998    -1883096.128 7  -1467349.44823
  23761325.662    -1317609.876 3     12636.39821
  23133468.5454   -4328195.10445  -3283861.18961
 91  3 25 23 15 29.9980000  0  6G18G 2G11G19G16G 6
  22202410.834     9197411.645 6   7166787.89821
  21315008.115   -15313094.359 7 -11932217.03122
  22503399.4514   -5531477.33747  -4310226.81661
  20659870.5844   -1878732.71947  -1463949.38263
  23761728.967    -1315497.301 3     14282.47721
  23126205.1864   -4366362.07645  -3313601.60461
 91  3 25 23 15 44.9980000  0  6G18G 2G11G19G16G 6
  22210536.420     9240113.106 6   7200061.62721
  21309351.779   -15342822.023 7 -11955381.36822
  22505605.5844   -5519899.04647  -4301204.76561
  20660711.553    -1874316.114 7  -1460507.89023
  23762149.498    -1313273.752 3     16015.05821
  23118938.2484   -4404537.53945  -3343348.61961
 91  3 25 23 15 59.9980000  0  6G18G 2G11G19G16G 6
  22218673.787     9282873.739 6   7233381.46121
  21303706.936   -15372484.257 7 -11978494.72322
  22507835.3814   -5508179.95047  -4292073.00261
  20661559.5614   -1869844.90847  -1457023.84163
  23762599.022    -1310938.321 3     17834.76521
  23111672.787    -4442720.490 5  -3373101.48621
 91  3 25 23 16 14.9980000  0  6G18G 2G11G19G16G 6
  22226821.264     9325691.029 6   7266745.45521
  21298074.115   -15402083.405 7 -12001558.91822
  22510091.1544   -5496322.43747  -4282833.39061
  20662423.756    -1865321.407 7  -1453499.04823
  23763059.967    -1308493.579 3     19739.70621
  23104404.193    -4480912.955 5  -3402861.73921
 91  3 25 23 16 29.9980000  0  6G18G 2G11G19G16G 6
  22234981.068     9368562.805 6   7300151.89721
  21292452.701   -15431621.571 7 -12024575.59522
  22512373.2094   -5484328.73547  -4273487.64961
  20663295.5294   -1860747.37846  -1449934.87763
  23763545.4984   -1305941.34743     21728.36861
  23097136.1544   -4519117.15445  -3432631.15461
 91  3 25 23 16 44.9980000  0  6G18G 2G11G19G16G 6
  22243149.576     9411496.831 6   7333606.83921
  21286845.420   -15461090.192 7 -12047538.08322
  22514683.3504   -5472190.33547  -4264029.16261
  20664176.3114   -1856114.29447  -1446324.69863
  23764055.3424   -1303273.21043     23807.38261
  23089865.9514   -4557324.19045  -3462402.79061
 91  3 25 23 16 59.9980000  0  6G18G 2G11G19G16G 6
  22251330.522     9454486.488 6   7367105.13221
  21281249.397   -15490496.117 7 -12070451.71922
  22517020.1934   -5459914.28447  -4254463.41561
  20665067.006    -1851428.938 7  -1442673.78423
  23764586.287    -1300496.458 3     25971.00421
  23082593.053    -4595541.246 5  -3492182.22121
 91  3 25 23 17 14.9980000  0  6G18G 2G11G19G16G 6
  22259523.451     9497535.639 6   7400649.78121
  21275664.975   -15519834.836 7 -12093312.98622
  22519382.5924   -5447496.40347  -4244787.14861
  20665969.928    -1846686.854 7  -1438978.67223
  23765136.350    -1297606.885 3     28222.50921
  23075319.9754   -4633763.84345  -3521965.97161
 91  3 25 23 17 29.9980000  0  6G18G 2G11G19G16G 6
  22267725.857     9540641.154 6   7434238.35921
  21270095.881   -15549109.498 7 -12116124.33422
  22521771.5684   -5434939.73047  -4235002.73061
  20666880.3264   -1841890.84847  -1435241.53263
  23765704.6074   -1294607.59243     30559.58761
  23068044.8814   -4671994.87545  -3551756.30761
 91  3 25 23 17 44.9980000  0  6G18G 2G11G19G16G 6
  22275939.201     9583806.147 6   7467873.28321
  21264539.0374  -15578316.62047 -12138883.06162
  22524189.0844   -5422241.08447  -4225107.68661
  20667806.217    -1837037.290 7  -1431459.55223
  23766298.537    -1291495.303 3     32984.63021
  23060767.8114   -4710230.83145  -3581550.47261
 91  3 25 23 17 59.9980000  0  6G18G 2G11G19G16G 6
  22284163.9044    9627023.97746   7501549.37261
  21258992.193   -15607462.528 7 -12161594.08322
  22526631.162    -5409406.954 7  -4215107.09221
  20668738.4754   -1832132.36347  -1427637.53463
  23766912.8264   -1288276.45044     35492.77161
  23053489.772    -4748478.069 5  -3611353.41621
 91  3 25 23 18 14.9980000  0  6G18G 2G11G19G16G 6
  22292400.7014    9670304.91846   7535274.62761
  21253459.084   -15636536.961 7 -12184249.41422
  22529101.951    -5396426.982 7  -4204992.84621
  20669685.0454   -1827165.79947  -1423767.48863
  23767544.428    -1284940.869 4     38091.84721
  23046210.506    -4786726.141 5  -3641157.01621
 91  3 25 23 18 29.9980000  0  6G18G 2G11G19G16G 6
  22300645.412     9713637.293 6   7569039.97321
  21247937.7564  -15665551.08547 -12206857.75462
  22531597.904    -5383312.618 7  -4194773.87121
  20670636.1624   -1822148.70347  -1419858.06363
  23768198.147    -1281500.238 4     40772.80821
  23038929.9204   -4824986.30745  -3670970.05761
 91  3 25 23 18 44.9980000  0  6G18G 2G11G19G16G 6
  22308903.631     9757025.719 6   7602848.99621
  21242428.4124  -15694500.04347 -12229415.31062
  22534118.607    -5370059.178 7  -4184446.53521
  20671604.6544   -1817076.06047  -1415905.35463
  23768875.0684   -1277949.60744     43539.43161
  23031649.068    -4863253.593 5  -3700788.63621
 91  3 25 23 18 59.9980000  0  6G18G 2G11G19G16G 6
  22317169.1004    9800471.36246   7636702.59661
  21236932.8894  -15723382.47447 -12251921.03662
  22536668.311    -5356665.379 7  -4174009.83121
  20672578.9754   -1811946.39947  -1411908.20963
  23769572.7484   -1274287.77444     46392.72361
  23024365.6784   -4901526.63745  -3730611.70261
 91  3 25 23 19 14.9980000  0  6G18G 2G11G19G16G 6
  22325448.482     9843974.932 6   7670601.34521
  21231450.061   -15752197.378 7 -12274374.13522
  22539242.873    -5343130.434 7  -4163463.13721
  20673567.1784   -1806758.65047  -1407865.81063
  23770292.373    -1270514.361 4     49332.98921
  23017082.014    -4939804.575 5  -3760438.56621
 91  3 25 23 19 29.9980000  0  6G18G 2G11G19G16G 6
  22333739.529     9887538.262 6   7704546.65721
  21225978.8114  -15780942.92047 -12296773.18962
  22541845.107    -5329452.593 7  -4152805.09221
  20674565.5764   -1801510.65847  -1403776.46263
  23771030.115    -1266627.214 4     52361.86221
  23009796.2874   -4978085.10245  -3790267.45761
 91  3 25 23 19 44.9980000  0  6G18G 2G11G19G16G 6
  22342040.7954    9931158.96246   7738536.65961
  21220522.107   -15809620.841 7 -12319119.54822
  22544475.8504   -5315633.74747  -4142037.17961
  20675574.3114   -1796203.98747  -1399641.38663
  23771792.2954   -1262628.57044     55477.61161
  23002510.0144   -5016370.20846  -3820099.92461
 91  3 25 23 19 59.9980000  0  6G18G 2G11G19G16G 6
  22350351.5454    9974833.46646   7772568.59461
  21215077.0684  -15838234.60247 -12341415.91862
  22547131.959    -5301677.594 7  -4131162.27521
  20676596.2644   -1790842.09447  -1395463.28263
  23772570.5614   -1258521.93645     58677.49961
  22995225.6544   -5054663.22846  -3849938.53561
 91  3 25 23 20 14.9980000  0  6G18G 2G11G19G16G 6
  22358671.8034   10018557.28846   7806638.95361
  21209643.053   -15866788.209 7 -12363665.41022
  22549812.5224   -5287588.25647  -4120183.60261
  20677626.0144   -1785428.88847  -1391245.19163
  23773374.084    -1254311.345 5     61958.41021
  22987935.9124   -5092968.16546  -3879786.45461
 91  3 25 23 20 29.9980000  0  6G18G 2G11G19G16G 6
  22367003.8184   10062333.90646   7840750.45661
  21204221.8574  -15895278.28947 -12385865.40662
  22552520.303    -5273362.368 7  -4109098.52021
  20678667.0534   -1779960.86847  -1386984.39763
  23774197.584    -1249993.775 5     65322.66421
  22980643.2094   -5131281.62546  -3909641.00261
 91  3 25 23 20 44.9980000  0  6G18G 2G11G19G16G 6
  22375344.0294   10106173.52946   7874911.05061
  21198814.0924  -15923694.20147 -12408007.60662
  22555255.389    -5258989.611 7  -4097898.98521
  20679718.8184   -1774427.49347  -1382672.66963
  23775042.7724   -1245559.02045     68778.24061
  22973354.959    -5169592.973 6  -3939493.88921
 91  3 25 23 20 59.9980000  0  6G18G 2G11G19G16G 6
  22383697.3654   10150064.64846   7909111.77261
  21193417.740   -15952047.053 7 -12430100.66622
  22558015.045    -5244481.201 7  -4086593.74121
  20680782.2644   -1768839.70647  -1378318.54663
  23775903.8264   -1241017.78145     72316.78061
  22966062.0534   -5207913.11646  -3969353.65361
 91  3 25 23 21 14.9980000  0  6G18G 2G11G19G16G 6
  22392060.881    10194014.528 6   7943358.28721
  21188035.553   -15980329.446 7 -12452138.82622
  22560803.795    -5229829.853 7  -4075177.12921
  20681859.2874   -1763190.01347  -1373916.18063
  23776790.6004   -1236363.12345     75943.71961
  22958770.772    -5246234.725 6  -3999214.55221
 91  3 25 23 21 29.9980000  0  6G18G 2G11G19G16G 6
  22400434.5294   10238022.75346   7977650.25761
  21182668.2484  -16008541.30847 -12474122.02762
  22563618.857    -5215035.706 7  -4063649.25021
  20682943.5534   -1757478.08847  -1369465.32463
  23777700.240    -1231595.310 5     79658.80921
  22951477.045    -5284557.503 6  -4029076.37121
 91  3 25 23 21 44.9980000  0  6G18G 2G11G19G16G 6
  22408819.7954   10282087.37146   8011986.16261
  21177311.834   -16036684.783 7 -12496051.93522
  22566460.006    -5200101.109 7  -4052011.90321
  20684043.4124   -1751706.13147  -1364967.69163
  23778624.998    -1226716.484 5     83460.39021
  22944185.5684   -5322883.70246  -4058940.85161
 91  3 25 23 21 59.9980000  0  5G18G 2G11G19G 6
  22417216.2564   10326207.12046   8046365.03261
  21171968.8504  -16064760.40447 -12517928.97462
  22569329.826    -5185026.889 7  -4040265.79421
  20685151.3974   -1745874.84847  -1360423.83163
  22936888.9204   -5361213.96146  -4088808.48661
 91  3 25 23 22 14.9980000  0  5G18G 2G11G19G 6
  22425623.1314   10370383.71646   8080788.20661
  21166640.3974  -16092766.36247 -12539751.73162
  22572224.795    -5169811.138 7  -4028409.38621
  20686275.2794   -1739982.04547  -1355832.02863
  22929596.342    -5399546.328 6  -4118677.78121
 91  3 25 23 22 29.9980000  0  5G18G 2G11G19G 6
  22434040.6314   10414617.63546   8115256.03561
  21161323.990   -16120701.762 7 -12561519.50222
  22575147.100    -5154453.021 7  -4016442.05321
  20687406.4984   -1734026.72747  -1351191.52163
  22922300.7094   -5437879.61746  -4148547.78161
 91  3 25 23 22 44.9980000  0  5G18G 2G11G19G 6
  22442468.1234   10458911.12546   8149770.29061
  21156022.2484  -16148564.59147 -12583230.73062
  22578097.568    -5138950.683 7  -4004362.32621
  20688553.8184   -1728006.44847  -1346500.39963
  22915006.092    -5476211.846 6  -4178416.96621
 91  3 25 23 22 59.9980000  0  5G18G 2G11G19G 6
  22450909.4364   10503262.72646   8184329.82661
  21150733.1784  -16176355.84547 -12604886.18462
  22581075.0064   -5123305.41547  -3992171.23661
  20689708.9594   -1721922.00247  -1341759.27563
  22907710.881    -5514543.893 6  -4208286.00321
 91  3 25 23 23 14.9980000  0  5G18G 2G11G19G 6
  22459360.6004   10547674.71746   8218936.41861
  21145459.6314  -16204073.04547 -12626483.93562
  22584080.107    -5107515.126 7  -3979867.15021
  20690881.7484   -1715771.20447  -1336966.44663
  22900415.545    -5552873.485 6  -4238153.13821
 91  3 25 23 23 29.9980000  0  5G18G 2G11G19G 6
  22467823.7324   10592150.29546   8253592.55861
  21140199.0614  -16231712.52447 -12648021.12262
  22587112.3114   -5091576.23447  -3967447.26261
  20692067.5064   -1709550.13747  -1332118.85763
  22893124.537    -5591196.756 6  -4268015.33021
 91  3 25 23 23 44.9980000  0  5G18G 2G11G19G 6
  22476298.568    10636685.970 6   8288295.52121
  21134954.4594  -16259277.59747 -12669500.33262
  22590173.701    -5075491.895 7  -3954914.03421
  20693262.6004   -1703261.82547  -1327218.87363
  22885831.272    -5629516.842 5  -4297875.05621
 91  3 25 23 23 59.9980000  0  5G18G 2G11G19G 6
  22484785.8184   10681278.36146   8323042.67961
  21129720.8184  -16286771.16647 -12690923.82962
  22593261.5614   -5059265.43647  -3942270.06961
  20694468.5374   -1696909.13547  -1322268.72163
  22878539.3264   -5667836.65945  -4327734.58361
 91  3 25 23 24 14.9980000  0  5G18G 2G11G19G 6
  22493281.795    10725930.420 6   8357836.35021
  21124502.8034  -16314190.17747 -12712289.22862
  22596376.912    -5042893.908 7  -3929513.05721
  20695693.9594   -1690488.93947  -1317265.96863
  22871249.287    -5706153.016 5  -4357591.40521
 91  3 25 23 24 29.9980000  0  5G18G 2G11G19G 6
  22501788.5924   10770632.99446   8392669.37961
  21119299.5534  -16341543.81047 -12733603.68562
  22599517.7644   -5026386.71547  -3916650.33761
  20696923.1154   -1684010.20847  -1312217.59963
  22863956.842    -5744475.250 5  -4387452.82121
 91  3 25 23 24 44.9980000  0  5G18G 2G11G19G 6
  22510306.0064   10815384.53846   8427540.56461
  21114105.7324  -16368833.09547 -12754867.99862
  22602685.068    -5009745.148 7  -3903682.90421
  20698169.2484   -1677474.23047  -1307124.64363
  22856661.3894   -5782804.26245  -4417319.51261
 91  3 25 23 24 59.9980000  0  5G18G 2G11G19G 6
  22518831.326    10860190.692 6   8462454.28421
  21108926.6784  -16396051.92647 -12776077.41662
  22605878.334    -4992963.030 7  -3890605.94421
  20699422.8974   -1670874.49747  -1301981.99563
  22849369.0924   -5821133.85945  -4447186.67161
 91  3 25 23 25 14.9980000  0  5G18G 2G11G19G 6
  22527368.6314   10905059.69646   8497416.99561
  21103760.6394  -16423191.99447 -12797225.45962
  22609100.5454   -4976032.38847  -3877413.29761
  20700695.0534   -1664202.70547  -1296783.19863
  22842073.670    -5859455.629 5  -4477047.72521
 91  3 25 23 25 29.9980000  0  5G18G 2G11G19G 6
  22535917.6624   10949977.75746   8532417.94161
  21098609.7324  -16450266.71847 -12818322.58462
  22612346.342    -4958966.754 7  -3864115.45021
  20701976.5764   -1657472.12747  -1291538.59663
  22834782.764    -5897783.007 5  -4506913.14121
 91  3 25 23 25 44.9980000  0  5G18G 2G11G19G 6
  22544475.0224   10994953.03946   8567463.46161
  21093470.5614  -16477268.06147 -12839362.53262
  22615622.8814   -4941758.04147  -3850706.09261
  20703269.5144   -1650674.33247  -1286241.61463
  22827491.1864   -5936107.69445  -4536776.46861
 91  3 25 23 25 59.9980000  0  5G18G 2G11G19G 6
  22553046.4434   11039983.40646   8602551.90261
  21088346.3184  -16504197.73247 -12860346.63462
  22618923.8894   -4924408.34247  -3837186.86061
  20704575.2254   -1643811.12947  -1280893.66663
  22820196.7954   -5974431.33145  -4566638.96961
 91  3 25 23 26 14.9980000  0  5G18G 2G11G19G 6
  22561625.334    11085069.772 6   8637683.97721
  21083235.6544  -16531054.39847 -12881273.84562
  22622254.0144   -4906916.55247  -3823556.93161
  20705894.3264   -1636881.12747  -1275493.66763
  22812904.8814   -6012752.54045  -4596499.59361
 91  3 25 23 26 29.9980000  0  5G18G 2G11G19G 6
  22570214.639    11130208.152 6   8672856.57321
  21078138.2094  -16557841.68947 -12902147.00162
  22625606.1004   -4889286.40846  -3809819.19961
  20707221.9594   -1629887.80147  -1270044.32663
  22805610.334    -6051075.048 5  -4626361.21321
 91  3 25 23 26 44.9980000  0  5G18G 2G11G19G 6
  22578811.7724   11175395.99846   8708067.72161
  21073052.451   -16584562.189 7 -12922968.11522
  22628988.201    -4871520.741 7  -3795975.84921
  20708568.8344   -1622833.70447  -1264547.63063
  22798315.592    -6089401.347 5  -4656225.80521
 91  3 25 23 26 59.9980000  0  5G18G 2G11G19G 6
  22587424.4904   11220638.25346   8743321.27561
  21067981.2564  -16611210.53247 -12943732.99762
  22632396.0374   -4853614.17347  -3782022.70361
  20709921.0684   -1615713.19747  -1258999.18563
  22791022.701    -6127726.052 5  -4686089.12721
 91  3 25 23 27 14.9980000  0  5G18G 2G11G19G 6
  22596041.248    11265932.984 6   8778615.71721
  21062924.8184  -16637788.34547 -12964442.92362
  22635828.7324   -4835568.55247  -3767961.22561
  20711290.1544   -1608527.56047  -1253399.98763
  22783732.639    -6166050.528 5  -4715952.30521
 91  3 25 23 27 29.9980000  0  5G18G 2G11G19G 6
  22604669.6784   11311278.05346   8813949.37461
  21057879.9124  -16664297.43747 -12985099.30162
  22639289.0374   -4817385.86847  -3753792.92761
  20712666.4284   -1601278.80147  -1247751.59763
  22776438.975    -6204376.552 5  -4745816.66421
 91  3 25 23 27 44.9980000  0  5G18G 2G11G19G 6
  22613307.5454   11356664.70846   8849315.43861
  21052846.9514  -16690746.50247 -13005708.90462
  22642775.725    -4799075.049 7  -3739524.78021
  20714058.4674   -1593975.62247  -1242060.81363
  22769144.6934   -6242712.85245  -4775689.04461
 91  3 25 23 27 59.9980000  0  5G18G 2G11G19G 6
  22621954.5614   11402103.02146   8884721.75561
  21047827.2794  -16717124.98247 -13026263.50662
  22646283.186    -4780625.706 7  -3725148.68621
  20715459.7954   -1586607.16647  -1236319.15663
  22761847.0064   -6281048.76245  -4805561.10861
 91  3 25 23 28 14.9980000  0  5G18G 2G11G19G 6
  22630610.904    11447594.257 6   8920169.29921
  21042821.0844  -16743431.60147 -13046762.11062
  22649822.522    -4762036.878 7  -3710663.90421
  20716876.3424   -1579172.20547  -1230525.68063
  22754552.584    -6319382.938 5  -4835431.81321
 91  3 25 23 28 29.9980000  0  5G18G 2G11G19G 6
  22639277.8734   11493134.43446   8955654.99061
  21037827.5534  -16769670.33347 -13067207.81562
  22653386.2794   -4743312.43547  -3696073.44561
  20718300.8114   -1571674.28847  -1224683.15863
  22747257.436    -6357719.136 5  -4865304.09721
 91  3 25 23 28 44.9980000  0  5G18G 2G11G19G 6
  22647954.240    11538728.695 6   8991182.82721
  21032849.0924  -16795835.59947 -13087596.27762
  22656974.295    -4724447.138 6  -3681373.23021
  20719742.7014   -1564107.68547  -1218787.11163
  22739963.498    -6396051.537 5  -4895173.43021
 91  3 25 23 28 59.9980000  0  5G18G 2G11G19G 6
  22656641.6784   11584378.04646   9026753.57261
  21027884.1474  -16821925.95647 -13107926.36762
  22660593.006    -4705439.837 7  -3666562.37721
  20721198.3114   -1556470.97546  -1212836.43763
  22732668.787    -6434378.954 5  -4925038.87221
 91  3 25 23 29 14.9980000  0  5G18G 2G11G19G 6
  22665339.6624   11630083.03046   9062367.69561
  21022933.5684  -16847940.79747 -13128197.61362
  22664235.1004   -4686289.86346  -3651640.34661
  20722663.350    -1548763.293 7  -1206830.46323
  22725378.240    -6472700.494 6  -4954899.72321
 91  3 25 23 29 29.9980000  0  5G18G 2G11G19G 6
  22674046.350    11675838.232 6   9098020.93321
  21017996.225   -16873885.104 7 -13148413.89922
  22667906.740    -4667002.511 7  -3636611.25921
  20724139.936    -1540989.773 7  -1200773.18623
  22718086.2564   -6511021.22246  -4984759.95361
 91  3 25 23 29 44.9980000  0  5G18G 2G11G19G 6
  22682761.982    11721643.127 6   9133712.89721
  21013072.4124  -16899758.94347 -13168575.27762
  22671603.4824   -4647578.05646  -3621475.35661
  20725634.107    -1533150.184 7  -1194664.43523
  22710794.3424   -6549341.02846  -5014619.45261
 91  3 25 23 29 59.9980000  0  5G18G 2G11G19G 6
  22691485.647    11767491.953 6   9169439.09121
  21008160.811   -16925567.971 7 -13188686.15322
  22675325.2484   -4628022.28247  -3606237.12761
  20727136.4824   -1525250.06947  -1188508.50863
  22703503.2644   -6587665.44346  -5044482.54661
 91  3 25 23 30 14.9980000  0  5G18G 2G11G19G 6
  22700219.607    11813385.651 6   9205200.24721
  21003262.951   -16951311.222 7 -13208745.77222
  22679071.9674   -4608334.44346  -3590895.97461
  20728652.022    -1517288.390 7  -1182304.62323
  22696207.9124   -6625993.49546  -5074348.46661
 91  3 25 23 30 29.9980000  0  5G18G 2G11G19G 6
  22708964.998    11859337.660 6   9241006.84621
  20998380.3654  -16976974.87547 -13228743.36962
  22682845.0924   -4588501.00546  -3575441.39161
  20730180.631    -1509251.310 7  -1176041.98023
  22688916.9124   -6664311.21346  -5104206.34861
 91  3 25 23 30 44.9980000  0  5G18G 2G11G19G 6
  22717719.9284   11905335.55346   9276849.21061
  20993507.139   -17002571.221 7 -13248688.51922
  22686644.1234   -4568534.30846  -3559882.95961
  20731722.7094   -1501150.89747  -1169729.99263
  22681623.8974   -6702630.81946  -5134065.67961
 91  3 25 23 30 59.9980000  0  5G18G 2G11G19G 6
  22726479.529    11951378.603 6   9312726.73621
  20988650.2874  -17028100.45647 -13268581.37662
  22690468.818    -4548434.778 6  -3544221.00921
  20733274.873    -1492987.279 7  -1163368.75723
  22674331.8654   -6740952.49446  -5163926.63661
 91  3 25 23 31 14.9980000  0  5G18G 2G11G19G 6
  22735249.5764   11997468.25846   9348640.59061
  20983805.123   -17053560.838 7 -13288420.57722
  22694319.514    -4528200.920 6  -3528454.38721
  20734842.2094   -1484758.44647  -1156956.70563
  22667038.498    -6779274.387 6  -5193787.73721
 91  3 25 23 31 29.9980000  0  5G18G 2G11G19G 6
  22744030.193    12043603.543 6   9384590.00521
  20978972.850   -17078953.482 7 -13308206.99522
  22698196.764    -4507833.995 6  -3512584.06921
  20736421.834    -1476465.274 7  -1150494.52323
  22659745.1544   -6817597.53346  -5223649.85461
 91  3 25 23 31 44.9980000  0  5G18G 2G11G19G 6
  22752818.4594   12089785.22146   9420575.57361
  20974154.272   -17104277.207 7 -13327939.71922
  22702097.264    -4487333.086 6  -3496609.35321
  20738010.912    -1468106.513 7  -1143981.21823
  22652453.9824   -6855920.70246  -5253511.95361
 91  3 25 23 31 59.9980000  0  5G18G 2G11G19G 6
  22761616.381    12136018.350 6   9456601.21221
  20969348.732   -17129526.562 7 -13347614.49122
  22706023.5764   -4466692.95746  -3480526.16661
  20739613.6074   -1459676.86047  -1137412.68563
  22645163.045    -6894238.261 6  -5283369.71021
 91  3 25 23 32 14.9980000  0  5G18G 2G11G19G 6
  22770420.6544   12182291.25746   9492657.84861
  20964557.022   -17154713.088 7 -13367240.30222
  22709977.2324   -4445925.30046  -3464343.61261
  20741231.100    -1451187.629 7  -1130797.72623
  22637868.8574   -6932561.53846  -5313231.90661
 91  3 25 23 32 29.9980000  0  5G18G 2G11G19G 6
  22779235.850    12228610.585 6   9528750.66521
  20959776.834   -17179829.859 7 -13386811.76022
  22713954.0844   -4425023.30246  -3448056.37161
  20742856.678    -1442631.631 7  -1124130.73823
  22630576.3184   -6970883.60146  -5343093.15561
 91  3 25 23 32 44.9980000  0  5G18G 2G11G19G 6
  22788059.522    12274974.157 6   9564877.95221
  20955010.670   -17204878.570 7 -13406330.18122
  22717956.1544   -4403988.94646  -3431666.00961
  20744499.1544   -1434010.58647  -1117413.06663
  22623281.6004   -7009206.15146  -5372954.78961
 91  3 25 23 32 59.9980000  0  5G18G 2G11G19G 6
  22796890.240    12321382.735 6   9601040.32021
  20950256.873   -17229858.300 7 -13425794.86222
  22721984.482    -4382821.430 6  -3415171.86821
  20746152.522    -1425323.333 7  -1110643.80723
  22615990.4594   -7047528.13446  -5402815.98561
 91  3 25 23 33 14.9980000  0  5G18G 2G11G19G 6
  22805729.209    12367833.878 6   9637235.83921
  20945515.264   -17254771.425 7 -13445207.63622
  22726037.959    -4361523.445 6  -3398576.06421
  20747817.881    -1416572.306 7  -1103824.84523
  22608696.631    -7085851.907 6  -5432678.58121
 91  3 25 23 33 29.9980000  0  5G18G 2G11G19G 6
  22814578.6394   12414328.91146   9673465.55661
  20940787.490   -17279616.211 7 -13464567.16122
  22730115.2404   -4340093.55146  -3381877.47461
  20749494.537    -1407755.570 7  -1096954.67823
  22601405.4434   -7124175.51946  -5462541.06461
 91  3 25 23 33 44.9980000  0  5G18G 2G11G19G 6
  22823434.061    12460868.564 6   9709730.05621
  20936073.147   -17304391.770 7 -13483872.74122
  22734219.732    -4318530.685 6  -3365075.26521
  20751185.803    -1398871.949 7  -1090032.40323
  22594113.623    -7162497.914 6  -5492402.59521
 91  3 25 23 33 59.9980000  0  5G18G 2G11G19G 6
  22832298.123    12507450.038 6   9746027.14621
  20931371.357   -17329100.721 7 -13503126.42222
  22738347.1864   -4296837.84046  -3348171.77461
  20752887.6544   -1389924.06847  -1083060.05363
  22586818.9674   -7200821.73246  -5522265.23861
 91  3 25 23 34 14.9980000  0  5G18G 2G11G19G 6
  22841170.9594   12554075.35346   9782358.38761
  20926683.428   -17353740.874 7 -13522326.49322
  22742499.8734   -4275013.28546  -3331165.66361
  20754603.6704   -1380909.84247  -1076036.01163
  22579526.420    -7239144.746 6  -5552127.25121
 91  3 25 23 34 29.9980000  0  5G18G 2G11G19G 6
  22850053.459    12600749.348 6   9818727.56221
  20922008.068   -17378306.799 7 -13541468.71422
  22746679.740    -4253051.500 6  -3314052.60121
  20756331.318    -1371823.356 7  -1068955.65323
  22572236.4754   -7277461.24046  -5581984.19761
 91  3 25 23 34 44.9980000  0  5G18G 2G11G19G 6
  22858944.0454   12647465.18746   9855129.33761
  20917345.826   -17402805.227 7 -13560558.35022
  22750882.006    -4230959.495 6  -3296838.07621
  20758075.4434   -1362671.26947  -1061824.18963
  22564944.4824   -7315777.85946  -5611841.23461
 91  3 25 23 34 59.9980000  0  5G18G 2G11G19G 6
  22867837.6474   12694219.63246   9891561.18361
  20912696.404   -17427239.086 7 -13579597.67522
  22755112.162    -4208740.282 6  -3279524.42821
  20759827.029    -1353456.252 7  -1054643.68323
  22557652.8734   -7354097.48746  -5641700.62061
 91  3 25 23 35 14.9980000  0  5G18G 2G11G19G 6
  22876745.287    12741012.989 6   9928023.37121
  20908058.084   -17451607.957 7 -13598586.35822
  22759363.482    -4186393.655 6  -3262111.50521
  20761594.279    -1344177.859 7  -1047413.79023
  22550358.8974   -7392419.54246  -5671561.90861
 91  3 25 23 35 29.9980000  0  5G18G 2G11G19G 6
  22885658.6544   12787843.07546   9964514.16861
  20903433.436   -17475913.654 7 -13617525.81922
  22763640.8574   -4163921.63546  -3244600.85761
  20763369.4434   -1334837.81647  -1040135.86163
  22543067.100    -7430745.793 6  -5701426.45921
 91  3 25 23 35 44.9980000  0  5G18G 2G11G19G 6
  22894575.7254   12834719.36346  10001040.96861
  20898821.873   -17500146.631 7 -13636408.60722
  22767941.6784   -4141314.99746  -3226985.29461
  20765162.912    -1325426.612 7  -1032802.47323
  22535775.170    -7469066.573 6  -5731286.75121
 91  3 25 23 35 59.9980000  0  5G18G 2G11G19G 6
  22903504.2644   12881639.06646  10037601.61061
  20894224.311   -17524309.198 7 -13655236.53922
  22772269.6234   -4118576.10546  -3209266.68161
  20766968.232    -1315946.311 7  -1025415.24723
  22528482.654    -7507384.045 6  -5761144.48121
 91  3 25 23 36 14.9980000  0  5G18G 2G11G19G 6
  22912442.139    12928604.988 6  10074198.24721
  20889639.506   -17548398.652 7 -13674007.49622
  22776620.4824   -4095702.67046  -3191443.24061
  20768783.990    -1306394.051 7  -1017971.95523
  22521192.811    -7545695.394 6  -5790997.42321
 91  3 25 23 36 29.9980000  0  5G18G 2G11G19G 6
  22921390.061    12975620.401 6  10110833.46421
  20885069.998   -17572411.086 7 -13692718.44622
  22781000.225    -4072690.949 6  -3173512.06121
  20770614.1544   -1296765.87247  -1010469.50063
  22513902.873    -7583996.711 6  -5820842.56021
 91  3 25 23 36 44.9980000  0  5G18G 2G11G19G 6
  22930346.4514   13022684.65246  10147506.72761
  20880515.279   -17596346.851 7 -13711369.64922
  22785406.662    -4049541.549 6  -3155473.57421
  20772463.803    -1287061.939 7  -1002908.01823
  22506616.420    -7622288.250 6  -5850680.06821
 91  3 25 23 36 59.9980000  0  5G18G 2G11G19G 6
  22939310.7724   13069790.79746  10184212.63061
  20875972.3424  -17620212.74247 -13729966.40863
  22789836.607    -4026261.569 6  -3137333.35321
  20774320.670    -1277289.046 7   -995292.79923
  22499331.9984   -7660576.64346  -5880515.12661
 91  3 25 23 37 14.9980000  0  5G18G 2G11G19G 6
  22948280.998    13116934.543 6  10220947.83121
  20871444.787   -17644012.897 7 -13748511.93722
  22794289.990    -4002855.132 6  -3119094.60221
  20776195.4364   -1267451.13347   -987626.91763
  22492042.428    -7698865.890 6  -5910350.84621
 91  3 25 23 37 29.9980000  0  5G18G 2G11G19G 6
  22957258.740    13164115.642 6  10257712.15021
  20866929.045   -17667747.419 7 -13767006.32822
  22798767.787    -3979322.457 6  -3100757.50621
  20778076.209    -1257547.941 7   -979910.16323
  22484756.5224   -7737155.87846  -5940187.14661
 91  3 25 23 37 44.9980000  0  5G18G 2G11G19G 6
  22966246.1864   13211342.88946  10294512.40461
  20862426.240   -17691407.226 7 -13785442.50022
  22803272.7954   -3955654.90146  -3082315.28561
  20779978.193    -1247570.450 7   -972135.52023
  22477473.092    -7775437.549 6  -5970016.95421
 91  3 25 23 37 59.9980000  0  5G18G 2G11G19G 6
  22975241.7954   13258608.92146  10331342.89661
  20857936.6234  -17714999.10847 -13803825.74663
  22807800.779    -3931859.571 6  -3063773.49421
  20781891.373    -1237525.485 7   -964308.29923
  22470190.3974   -7813717.71546  -5999845.60061
 91  3 25 23 38 14.9980000  0  5G18G 2G11G19G 6
  22984241.1154   13305908.70546  10368199.67661
  20853458.8264  -17738527.88547 -13822159.81863
  22812350.842    -3907941.468 6  -3045136.04821
  20783813.295    -1227417.616 7   -956432.06023
  22462904.1314   -7852000.84446  -6029676.54661
 91  3 25 23 38 29.9980000  0  5G18G 2G11G19G 6
  22993251.420    13353244.953 6  10405084.87221
  20848994.8504  -17761990.81347 -13840442.58263
  22816926.5684   -3883897.83446  -3026400.74261
  20785747.9674   -1217243.90147   -948504.52563
  22455618.2954   -7890284.15146  -6059507.62761
 91  3 25 23 38 44.9980000  0  5G18G 2G11G19G 6
  23002267.9284   13400625.36746  10442004.49461
  20844543.248   -17785380.045 7 -13858667.91823
  22821527.5614   -3859721.11546  -3007561.73161
  20787698.904    -1206996.430 7   -940519.50623
  22448334.232    -7928559.579 6  -6089332.56321
 91  3 25 23 38 59.9980000  0  5G18G 2G11G19G 6
  23011289.6784   13448041.37146  10478951.84261
  20840105.0374  -17808703.51847 -13876842.01263
  22826151.701    -3835419.673 6  -2988625.57421
  20789659.7954   -1196683.04447   -932483.13363
  22441050.701    -7966835.164 6  -6119157.62921
 91  3 25 23 39 14.9980000  0  5G18G 2G11G19G 6
  23020318.670    13495489.175 6  10515923.96121
  20835678.9824  -17831965.20847 -13894967.97163
  22830800.436    -3810997.584 6  -2969595.39221
  20791636.2954   -1186307.57447   -924398.37863
  22433764.881    -8005114.630 6  -6148985.70121
 91  3 25 23 39 29.9980000  0  5G18G 2G11G19G 6
  23029355.139    13542974.175 6  10552925.07021
  20831265.0454  -17855159.17847 -13913041.16063
  22835472.139    -3786449.000 6  -2950466.64921
  20793621.357    -1175863.896 7   -916260.47223
  22426484.818    -8043391.813 6  -6178811.99521
 91  3 25 23 39 44.9980000  0  5G18G 2G11G19G 6
  23038399.772    13590494.421 6  10589953.63821
  20826863.8734  -17878286.89747 -13931062.72363
  22840166.6624   -3761775.76846  -2931240.76461
  20795623.3974   -1165353.50047   -908070.58063
  22419200.639    -8081668.244 6  -6208637.70521
 91  3 25 23 39 59.9980000  0  5G18G 2G11G19G 6
  23047446.904    13638046.405 6  10627006.94021
  20822474.0454  -17901352.42047 -13949035.82663
  22844884.5534   -3736982.06246  -2911920.99961
  20797634.826    -1154780.025 7   -899831.53623
  22411915.7484   -8119947.66446  -6238465.74761
 91  3 25 23 40 14.9980000  0  5G18G 2G11G19G 6
  23056503.506    13685630.589 6  10664085.33121
  20818097.5684  -17924354.60147 -13966959.57463
  22849626.2874   -3712066.77646  -2892506.49161
  20799660.225    -1144142.302 7   -891542.42123
  22404631.943    -8158228.828 6  -6268295.14821
 91  3 25 23 40 29.9980000  0  5G18G 2G11G19G 6
  23065563.279    13733244.943 6  10701187.22921
  20813731.8034  -17947295.20947 -13984835.34163
  22854390.5374   -3687031.96446  -2872998.85261
  20801693.975    -1133441.997 7   -883204.54623
  22397344.529    -8196513.446 6  -6298127.23721
 91  3 25 23 40 44.9980000  0  5G18G 2G11G19G 6
  23074628.350    13780889.234 6  10738312.44721
  20809378.2324  -17970174.28547 -14002663.16263
  22859176.193    -3661878.169 6  -2853398.47721
  20803743.967    -1122679.191 6   -874817.96923
  22390057.631    -8234801.477 6  -6327961.98821
 91  3 25 23 40 59.9980000  0  5G18G 2G11G19G 6
  23083702.982    13828569.089 6  10775465.38821
  20805037.6704  -17992985.71347 -14020438.26863
  22863987.811    -3636599.593 6  -2833700.89321
  20805804.061    -1111847.728 7   -866377.89023
  22382774.772    -8273086.782 6  -6357794.61421
 91  3 25 23 41 14.9980000  0  5G18G 2G11G19G 6
  23092784.842    13876284.793 6  10812646.24921
  20800709.8814  -18015728.89047 -14038160.19563
  22868820.8424   -3611195.68946  -2813905.67561
  20807880.397    -1100946.696 6   -857883.60323
  22375488.115    -8311368.591 6  -6387624.50821
 91  3 25 23 41 29.9980000  0  5G18G 2G11G19G 6
  23101870.8504   13924032.97646  10849852.43661
  20796393.1704  -18038407.32847 -14055831.67763
  22873678.795    -3585670.268 6  -2794015.71921
  20809969.842    -1089979.477 6   -849337.73823
  22368203.693    -8349650.158 6  -6417454.22421
 91  3 25 23 41 44.9980000  0  5G18G 2G11G19G 6
  23110962.131    13971816.977 6  10887086.52921
  20792089.9904  -18061017.30547 -14073449.80963
  22878560.0684   -3560019.52046  -2774028.11561
  20812068.459    -1078942.071 6   -840737.18322
  22360918.943    -8387927.575 6  -6447280.70021
 91  3 25 23 41 59.9980000  0  5G18G 2G11G19G 6
  23120059.732    14019629.146 6  10924342.57021
  20787799.8894  -18083566.26847 -14091020.40163
  22883462.545    -3534251.276 6  -2753948.95121
  20814177.537    -1067841.799 7   -832087.63723
  22353633.584    -8426208.167 6  -6477109.65621
 91  3 25 23 42 14.9980000  0  5G18G 2G11G19G 6
  23129168.3344   14067480.13546  10961628.85561
  20783522.8734  -18106043.32547 -14108534.95563
  22888389.912    -3508354.867 6  -2733769.91821
  20816305.8504   -1056667.78346   -823380.62362
  22346351.467    -8464480.899 6  -6506932.48921
 91  3 25 23 42 29.9980000  0  5G18G 2G11G19G 6
  23138279.3504   14115363.91046  10998940.67161
  20779258.0764  -18128454.09547 -14125997.86163
  22893341.529    -3482336.210 6  -2713495.61721
  20818444.772    -1045425.670 7   -814620.55122
  22339068.0844   -8502751.30546  -6536753.52361
 91  3 25 23 42 44.9980000  0  5G18G 2G11G19G 6
  23147399.232    14163282.616 6  11036279.70421
  20775006.5224  -18150796.48347 -14143407.48563
  22898315.4594   -3456193.30046  -2693124.51661
  20820597.1544   -1034113.01146   -805805.50562
  22331787.693    -8541017.228 6  -6566571.05321
 91  3 25 23 42 59.9980000  0  5G18G 2G11G19G 6
  23156523.568    14211234.456 6  11073644.57321
  20770767.1234  -18173071.86247 -14160764.88863
  22903315.592    -3429927.798 6  -2672657.91121
  20822763.201    -1022730.950 7   -796936.37822
  22324506.139    -8579279.798 6  -6596385.97321
 91  3 25 23 43 14.9980000  0  5G18G 2G11G19G 6
  23165656.1704   14259226.75946  11111040.97461
  20766542.4594  -18195272.76047 -14178064.25563
  22908337.3894   -3403532.40646  -2652090.07261
  20824945.451    -1011271.893 6   -788007.25522
  22317227.3814   -8617531.37146  -6626192.33661
 91  3 25 23 43 29.9980000  0  5G18G 2G11G19G 6
  23174794.584    14307256.830 6  11148466.78821
  20762332.9594  -18217401.43447 -14195307.34363
  22913385.029    -3377009.695 6  -2631423.03621
  20827137.4904    -999738.19647   -779019.96563
  22309949.404    -8655774.258 6  -6655991.92221
 91  3 25 23 43 44.9980000  0  5G18G 2G11G19G 6
  23183944.0534   14355322.65746  11185920.47561
  20758134.1624  -18239459.60847 -14212495.49563
  22918456.7874   -3350361.69146  -2610658.37161
  20829348.1074    -988131.47346   -769975.77662
  22302671.5924   -8694010.01846  -6685785.96161
 91  3 25 23 43 59.9980000  0  5G18G 2G11G19G 6
  23193095.0064   14403421.10046  11223399.55761
  20753949.0144  -18261450.42747 -14229631.15963
  22923548.740    -3323591.789 6  -2589798.72621
  20831569.7874    -976454.68446   -760876.98562
  22295396.3974   -8732241.62746  -6715576.76161
 91  3 25 23 44 14.9980000  0  5G18G 2G11G19G 6
  23202253.8034   14451546.23746  11260899.44761
  20749776.7174  -18283379.17747 -14246718.45663
  22928665.3734   -3296705.40346  -2568848.31161
  20833804.592     -964712.883 6   -751727.54522
  22288122.4284   -8770474.23146  -6745368.33261
 91  3 25 23 44 29.9980000  0  5G18G 2G11G19G 6
  23211417.553    14499703.682 6  11298424.50421
  20745616.389   -18305240.058 7 -14263752.86623
  22933807.3814   -3269697.08346  -2547802.88661
  20836051.084     -952900.353 6   -742522.98722
  22280848.1704   -8808701.97846  -6775156.12961
 91  3 25 23 44 44.9980000  0  5G18G 2G11G19G 6
  23220588.404    14547897.061 6  11335977.56721
  20741469.990   -18327029.542 7 -14280731.64423
  22938967.990    -3242563.559 6  -2526659.90221
  20838314.459     -941013.492 6   -733260.51222
  22273575.8114   -8846921.20046  -6804937.27561
 91  3 25 23 44 59.9980000  0  5G18G 2G11G19G 6
  23229763.5684   14596115.17946  11373549.92261
  20737335.811   -18348758.175 7 -14297663.00523
  22944153.248    -3215315.525 6  -2505427.69321
  20840588.584     -929062.508 6   -723948.07622
  22266302.436    -8885142.105 6  -6834719.72621
 91  3 25 23 45 14.9980000  0  5G18G 2G11G19G 6
  23238946.1704   14644361.65146  11411144.34661
  20733212.436   -18370422.696 7 -14314544.40723
  22949362.1314   -3187949.75246  -2484103.74261
  20842875.592     -917043.876 6   -714582.92422
  22259030.295    -8923361.233 6  -6864500.79121
 91  3 25 23 45 29.9980000  0  5G18G 2G11G19G 6
  23248132.9364   14692627.98745  11448754.25061
  20729101.186   -18392031.122 7 -14331382.09223
  22954589.8974   -3160474.68346  -2462694.62561
  20845174.662     -904965.564 6   -705171.26722
  22251755.303    -8961586.552 6  -6894286.68721
 91  3 25 23 45 44.9980000  0  5G18G 2G11G19G 6
  23257322.4284   14740922.20645  11486385.86761
  20725000.772   -18413575.026 7 -14348169.49823
  22959838.709    -3132882.282 6  -2441194.09221
  20847486.311     -892819.368 6   -695706.71822
  22244481.5764   -8999809.63546  -6924070.83861
 91  3 25 23 45 59.9980000  0  5G18G 2G11G19G 6
  23266518.100    14789247.004 5  11524041.32121
  20720914.162   -18435051.555 7 -14364904.40722
  22965115.2014   -3105169.71946  -2419599.92461
  20849808.873     -880602.111 7   -686186.79722
  22237208.1394   -9038027.35146  -6953850.79261
 91  3 25 23 46 14.9980000  0  5G18G 2G11G19G 6
  23275719.584    14837600.234 5  11561718.93821
  20716840.686   -18456462.655 7 -14381588.33523
  22970411.381    -3077339.216 6  -2397913.83221
  20852148.389     -868315.553 6   -676612.87422
  22229937.3894   -9076241.54846  -6983628.00061
 91  3 25 23 46 29.9980000  0  5G18G 2G11G19G 6
  23284924.068    14885980.814 6  11599417.85921
  20712777.459   -18477809.110 7 -14398221.89123
  22975728.779    -3049391.687 6  -2376136.58221
  20854498.342     -855960.132 7   -666985.29823
  22222664.600    -9114452.675 6  -7013402.83221
 91  3 25 23 46 44.9980000  0  5G18G 2G11G19G 6
  23294134.865    14934383.780 5  11637134.23421
  20708726.631   -18499095.612 7 -14414808.71723
  22981068.295    -3021332.276 6  -2354272.15721
  20856862.873     -843540.767 6   -657307.88822
  22215392.7874   -9152665.53646  -7043178.99861
 91  3 25 23 46 59.9980000  0  5G18G 2G11G19G 6
  23303354.623    14982817.070 5  11674874.22921
  20704687.662   -18520313.889 7 -14431342.39123
  22986430.8894   -2993152.90646  -2332314.28061
  20859238.201     -831049.000 7   -647574.06723
  22208121.8114   -9190871.63746  -7072949.89161
 91  3 25 23 47 14.9980000  0  5G18G 2G11G19G 6
  23312574.7404   15031275.21645  11712633.56961
  20700663.561   -18541469.322 7 -14447827.09623
  22991815.6474   -2964858.96446  -2310267.09161
  20861630.373     -818489.895 6   -637787.76722
  22200852.0684   -9229076.06846  -7102719.48261
 91  3 25 23 47 29.9980000  0  5G18G 2G11G19G 6
  23321804.6314   15079770.68945  11750422.00761
  20696652.623   -18562549.307 7 -14464253.00923
  22997222.6314   -2936438.24846  -2288121.10961
  20864033.061     -805850.799 7   -627939.14322
  22193585.068    -9267266.099 6  -7132477.85321
 91  3 25 23 47 44.9980000  0  5G18G 2G11G19G 6
  23331038.0844   15128294.98445  11788232.89261
  20692653.334   -18583561.830 7 -14480626.35823
  23002653.451    -2907898.932 6  -2265882.70821
  20866453.584     -793139.521 6   -618034.27422
  22186318.3574   -9305449.59746  -7162231.12661
 91  3 25 23 47 59.9980000  0  5G18G 2G11G19G 6
  23340275.529    15176844.633 5  11826063.55021
  20688665.123   -18604510.175 7 -14496949.69523
  23008107.3504   -2879244.70946  -2243554.80261
  20868883.990     -780359.369 7   -608075.73722
  22179053.7874   -9343629.78146  -7191981.82961
 91  3 25 23 48 14.9980000  0  5G18G 2G11G19G 6
  23349519.404    15225419.024 5  11863913.48321
  20684693.193   -18625394.849 7 -14513223.41923
  23013580.990    -2850476.312 6  -2221137.90621
  20871331.334     -767510.742 7   -598063.84222
  22171789.209    -9381807.003 6  -7221730.19821
 91  3 25 23 48 29.9980000  0  5G18G 2G11G19G 6
  23358768.6544   15274020.92645  11901784.85261
  20680731.756   -18646212.506 7 -14529444.92223
  23019077.959    -2821590.728 6  -2198629.73121
  20873790.779     -754590.095 6   -587995.82122
  22164525.014    -9419977.810 6  -7251473.58321
 91  3 25 23 48 44.9980000  0  5G18G 2G11G19G 6
  23368023.1544   15322653.26745  11939679.94061
  20676783.225   -18666960.515 7 -14545612.15923
  23024600.0614   -2792585.28346  -2176028.15661
  20876262.662     -741594.472 6   -577869.38422
  22157264.834    -9458139.251 6  -7281209.65921
 91  3 25 23 48 59.9980000  0  5G18G 2G11G19G 6
  23377284.115    15371310.542 5  11977594.45121
  20672848.342   -18687643.653 8 -14561728.84523
  23030138.482    -2763465.078 6  -2153337.12321
  20878746.490     -728528.718 7   -567688.29322
  22150003.303    -9496296.065 6  -7310942.14321
 91  3 25 23 49 14.9980000  0  5G18G 2G11G19G 6
  23386545.9824   15419996.04745  12015530.96161
  20668924.115   -18708258.369 7 -14577792.21923
  23035704.006    -2734227.082 6  -2130554.34221
  20881249.373     -715389.372 7   -557449.85322
  22142743.1314   -9534444.61346  -7340668.18161
 91  3 25 23 49 29.9980000  0  5G18G 2G11G19G 6
  23395816.3574   15468702.41145  12053483.72361
  20665012.5924  -18728811.95548 -14593807.96563
  23041287.5684   -2704878.50946  -2107685.37161
  20883760.506     -702183.404 7   -547159.50322
  22135484.9284   -9572591.84046  -7370393.19661
 91  3 25 23 49 44.9980000  0  5G18G 2G11G19G 6
  23405087.9824   15517433.95545  12091456.10361
  20661114.6234  -18749299.98348 -14609772.62363
  23046895.3574   -2675415.23246  -2084727.02261
  20886290.311     -688906.273 7   -536813.70422
  22128224.623    -9610733.220 6  -7400113.64521
 91  3 25 23 49 59.9980000  0  5G18G 2G11G19G 6
  23414366.732    15566191.153 5  12129448.46721
  20657227.6394  -18769721.64748 -14625685.57163
  23052522.1704   -2645836.84546  -2061678.98461
  20888826.467     -675557.019 7   -526411.70422
  22120968.0844   -9648867.83146  -7429828.83261
 91  3 25 23 50 14.9980000  0  5G18G 2G11G19G 6
  23423650.8264   15614972.21845  12167459.42661
  20653354.8504  -18790078.46248 -14641547.98263
  23058172.522    -2616145.060 6  -2038542.56621
  20891384.147     -662137.233 7   -515954.74322
  22113712.9204   -9686997.06846  -7459539.83461
 91  3 25 23 50 29.9980000  0  5G18G 2G11G19G 6
  23432939.326    15663775.270 5  12205487.53121
  20649492.6074  -18810372.18648 -14657361.24463
  23063847.068    -2586341.878 6  -2015319.35421
  20893950.842     -648648.481 7   -505444.04322
  22106457.1624   -9725122.62946  -7489247.96261
 91  3 25 23 50 44.9980000  0  5G18G 2G11G19G 6
  23442228.006    15712598.050 5  12243530.99321
  20645642.4594  -18830604.65548 -14673126.76963
  23069537.2014   -2556429.19846  -1992010.81761
  20896529.678     -635092.375 7   -494880.85822
  22099202.9364   -9763245.92446  -7518954.32361
 91  3 25 23 50 59.9980000  0  5G18G 2G11G19G 6
  23451521.5224   15761434.84645  12281585.40061
  20641802.3504  -18850781.37848 -14688848.85663
  23075248.9124   -2526412.90146  -1968621.54261
  20899118.772     -621474.428 7   -484269.48422
  22091946.4434   -9801372.39646  -7548663.15961
 91  3 25 23 51 14.9980000  0  5G18G 2G11G19G 6
  23460820.2564   15810293.64345  12319656.92361
  20637975.4434  -18870894.03348 -14704521.02563
  23080982.0684   -2496284.94046  -1945145.24361
  20901726.365     -607786.025 7   -473603.20722
  22084693.873    -9839493.562 6  -7578367.86021
 91  3 25 23 51 29.9980000  0  5G18G 2G11G19G 6
  23470121.9674   15859176.60545  12357747.30161
  20634160.1864  -18890940.49948 -14720141.60763
  23086737.2954   -2466043.52646  -1921580.53961
  20904341.779     -594025.125 7   -462880.44422
  22077441.8654   -9877607.22646  -7608066.70361
 91  3 25 23 51 44.9980000  0  5G18G 2G11G19G 6
  23479430.443    15908080.517 5  12395853.97821
  20630358.7794  -18910923.74548 -14735712.93763
  23092511.897    -2435691.911 6  -1897929.95721
  20906976.389     -580194.349 7   -452103.23022
  22070189.248    -9915716.087 6  -7637761.81121
 91  3 25 23 51 59.9980000  0  5G18G 2G11G19G 6
  23488738.7254   15957005.31345  12433976.92561
  20626567.318   -18930843.481 8 -14751234.76723
  23098309.8034   -2405229.97346  -1874193.43961
  20909619.826     -566293.392 7   -441271.33123
  22062939.115    -9953819.776 6  -7667452.87721
 91  3 25 23 52 14.9980000  0  5G18G 2G11G19G 6
  23498051.568    16005951.782 5  12472116.77621
  20622788.4904  -18950698.91548 -14766706.49363
  23104128.576    -2374656.866 6  -1850370.28221
  20912280.584     -552320.916 7   -430383.70122
  22055687.748    -9991917.000 6  -7697138.91921
 91  3 25 23 52 29.9980000  0  5G18G 2G11G19G 6
  23507369.0064   16054919.97945  12510273.55261
  20619022.943   -18970489.708 8 -14782127.84323
  23109966.7484   -2343972.75246  -1826460.61161
  20914951.350     -538276.690 7   -419440.16322
  22048440.420   -10030007.408 6  -7726819.64221
 91  3 25 23 52 44.9980000  0  5G18G 2G11G19G 6
  23516693.162    16103905.808 5  12548444.06621
  20615268.147   -18990219.589 8 -14797501.75823
  23115825.5614   -2313181.54046  -1802467.49961
  20917638.607     -524164.416 7   -408443.59922
  22041192.318   -10068094.592 6  -7756497.86421
 91  3 25 23 52 59.9980000  0  5G18G 2G11G19G 6
  23526019.818    16152912.841 5  12586631.09721
  20611526.490   -19009884.697 8 -14812825.17523
  23121705.178    -2282279.790 6  -1778388.26021
  20920336.5764    -509980.22447   -397390.99662
  22033946.397   -10106174.741 6  -7786170.59821
 91  3 25 23 53 14.9980000  0  5G18G 2G11G19G 6
  23535349.795    16201938.919 5  12624832.99021
  20607796.365   -19029486.697 8 -14828099.41323
  23127607.318    -2251269.323 6  -1754224.31321
  20923050.0614    -495725.74147   -386283.61563
  22026700.1704  -10144249.17946  -7815838.87561
 91  3 25 23 53 29.9980000  0  5G18G 2G11G19G 6
  23544682.803    16250983.466 5  12663049.25821
  20604077.670   -19049026.231 8 -14843324.98923
  23133529.053    -2220150.941 6  -1729976.26021
  20925773.272     -481401.326 7   -375121.74822
  22019455.779   -10182318.297 6  -7845503.00321
 91  3 25 23 53 44.9980000  0  5G18G 2G11G19G 6
  23554018.7254   16300045.90145  12701279.45561
  20600371.3574  -19068503.54347 -14858502.06963
  23139471.5374   -2188925.32046  -1705644.66861
  20928515.5684    -467007.13247   -363905.50262
  22012212.897   -10220382.329 6  -7875163.18821
 91  3 25 23 53 59.9980000  0  5G18G 2G11G19G 6
  23563358.357    16349128.029 5  12739525.01021
  20596676.3504  -19087916.43947 -14873628.96663
  23145433.8034   -2157590.55546  -1681228.04161
  20931269.9674    -452540.77047   -352633.02562
  22004970.029   -10258438.828 6  -7904817.48921
 91  3 25 23 54 14.9980000  0  5G18G 2G11G19G 6
  23572702.7644   16398230.21945  12777786.18961
  20592994.8034  -19107264.51847 -14888705.35863
  23151417.1704   -2126146.46546  -1656726.20461
  20934035.1784    -438001.81147   -341303.97762
  21997729.850   -10296487.239 6  -7934465.46721
 91  3 25 23 54 29.9980000  0  5G18G 2G11G19G 6
  23582049.4754   16447356.37945  12816066.04161
  20589327.022   -19126543.707 7 -14903728.05323
  23157424.584    -2094589.254 6  -1632136.24221
  20936814.2094    -423386.06247   -329915.08762
  21990489.5454  -10334523.37346  -7964103.88561
 91  3 25 23 54 44.9980000  0  5G18G 2G11G19G 6
  23591400.3574   16496496.05345  12854356.41961
  20585668.6544  -19145764.26547 -14918705.07563
  23163446.482    -2062929.194 6  -1607466.10221
  20939610.857     -408703.603 7   -318474.22222
  21983252.248   -10372557.170 6  -7993740.49221
 91  3 25 23 54 59.9980000  0  5G18G 2G11G19G 6
  23600756.022    16545651.462 5  12892659.09621
  20582022.8974  -19164923.61447 -14933634.39763
  23169491.4364   -2031164.25646  -1582714.23661
  20942415.4514    -393951.80147   -306979.32262
  21976015.732   -10410586.022 6  -8023373.26121
 91  3 25 23 55 14.9980000  0  5G18G 2G11G19G 6
  23610115.287    16594827.251 5  12930977.59421
  20578390.389   -19184016.471 7 -14948511.90723
  23175557.389    -1999289.561 6  -1557876.88821
  20945238.7174    -379125.34847   -295426.24962
  21968783.264   -10448604.481 6  -8052997.91421
 91  3 25 23 55 29.9980000  0  5G18G 2G11G19G 6
  23619478.3034   16644018.59745  12969308.25961
  20574769.1154  -19203047.78847 -14963341.47963
  23181644.522    -1967310.005 6  -1532957.80421
  20948071.2094    -364228.99147   -283818.71162
  21961547.670   -10486617.212 6  -8082618.11721
 91  3 25 23 55 44.9980000  0  5G18G 2G11G19G 6
  23628842.732    16693235.012 5  13007658.42121
  20571159.389   -19222007.944 7 -14978115.57323
  23187751.389    -1935216.313 6  -1507949.77321
  20950923.8974    -349252.96647   -272149.08762
  21954319.154   -10524614.487 6  -8112226.27421
 91  3 25 23 55 59.9980000  0  5G18G 2G11G19G 6
  23638212.772    16742470.484 5  13046023.44121
  20567564.6864  -19240902.77747 -14992838.78063
  23193877.9984   -1903014.54646  -1482857.54861
  20953785.068     -334202.847 7   -260421.73622
  21947088.7874  -10562601.88346  -8141826.75261
 91  3 25 23 56 14.9980000  0  5G18G 2G11G19G 6
  23647584.0144   16791719.47045  13084398.97861
  20563980.5374  -19259737.56847 -15007515.20263
  23200026.2954   -1870710.29646  -1457685.46961
  20956665.1704    -319084.01347   -248640.84062
  21939861.1704  -10600584.51346  -8171423.47861
 91  3 25 23 56 29.9980000  0  5G18G 2G11G19G 6
  23656956.529    16840982.907 5  13122785.82021
  20560406.928   -19278511.211 7 -15022143.96723
  23206193.7954   -1838302.61346  -1432432.78661
  20959553.084     -303895.123 7   -236805.35322
  21932634.240   -10638560.975 6  -8201015.43021
 91  3 25 23 56 44.9980000  0  5G18G 2G11G19G 6
  23666335.0924   16890260.53545  13161183.69461
  20556846.920   -19297223.258 7 -15036724.73723
  23212379.8504   -1805791.35446  -1407099.38361
  20962459.506     -288635.608 7   -224914.83422
  21925409.4904  -10676530.76146  -8230602.14961
 91  3 25 23 56 59.9980000  0  5G18G 2G11G19G 6
  23675713.3114   16939551.78145  13199592.17861
  20553297.4904  -19315874.55148 -15051258.17563
  23218585.7094   -1773177.66046  -1381686.16361
  20965373.678     -273306.160 7   -212969.82722
  21918184.5924  -10714494.56146  -8260184.22561
 91  3 25 23 57 14.9980000  0  5G18G 2G11G19G 6
  23685097.1704   16988855.38045  13238010.30561
  20549760.3424  -19334465.70348 -15065744.75363
  23224811.6544   -1740462.36946  -1356193.77261
  20968307.412     -257907.508 7   -200970.89322
  21910961.764   -10752452.793 6  -8289761.97121
 91  3 25 23 57 29.9980000  0  5G18G 2G11G19G 6
  23694481.5374   17038172.79745  13276439.17661
  20546234.3344  -19352995.32548 -15080183.38563
  23231056.4904   -1707644.36746  -1330621.33861
  20971248.006     -242437.927 7   -188916.69122
  21903738.607   -10790403.795 6  -8319334.10221
 91  3 25 23 57 44.9980000  0  5G18G 2G11G19G 6
  23703869.4904   17087502.20345  13314877.37361
  20542717.8894  -19371465.05748 -15094575.35463
  23237320.5764   -1674725.58146  -1304970.40161
  20974207.811     -226898.966 7   -176808.42822
  21896518.7794  -10828349.07246  -8348901.75461
 91  3 25 23 57 59.9980000  0  5G18G 2G11G19G 6
  23713259.8814   17136844.30145  13353325.47761
  20539215.522   -19389873.738 8 -15108919.73323
  23243604.2564   -1641705.18346  -1279240.25461
  20977177.639     -211289.379 7   -164645.14022
  21889298.529   -10866287.305 6  -8378463.91321
 91  3 25 23 58 14.9980000  0  5G18G 2G11G19G 6
  23722651.443    17186199.501 5  13391783.76821
  20535724.959   -19408220.602 8 -15123215.94423
  23249907.2014   -1608582.64646  -1253430.53361
  20980161.404     -195608.318 6   -152426.15622
  21882081.5534  -10904217.58546  -8408019.88161
 91  3 25 23 58 29.9980000  0  5G18G 2G11G19G 6
  23732047.686    17235565.570 5  13430250.55621
  20532245.295   -19426507.944 8 -15137465.77623
  23256228.842    -1575360.348 6  -1227543.04921
  20983156.5764    -179857.94647   -140153.16762
  21874863.0144  -10942141.82546  -8437571.14061
 91  3 25 23 58 44.9980000  0  5G18G 2G11G19G 6
  23741444.3574   17284944.96845  13468727.70161
  20528776.451   -19444733.063 8 -15151667.12523
  23262571.2094   -1542035.90946  -1201575.99861
  20986169.131     -164035.359 6   -127823.90422
  21867649.1624  -10980057.12146  -8467115.42961
 91  3 25 23 58 59.9980000  0  5G18G 2G11G19G 6
  23750840.8034   17334330.11645  13507209.33361
  20525319.623   -19462903.305 8 -15165825.70923
  23268930.4204   -1508617.05046  -1175535.37061
  20989190.8574    -148147.62247   -115443.88162
  21860434.6624  -11017970.74746  -8496658.40961
 91  3 25 23 59 14.9980000  0  5G18G 2G11G19G 6
  23760242.068    17383728.223 5  13545701.08321
  20521873.3894  -19481011.25048 -15179935.76463
  23275308.756    -1475096.552 6  -1149415.54921
  20992230.162     -132187.251 6   -103007.24722
  21853220.7874  -11055875.07746  -8526194.16561
 91  3 25 23 59 29.9980000  0  5G18G 2G11G19G 6
  23769644.1624   17433142.65745  13584205.54361
  20518440.201   -19499053.393 8 -15193994.53023
  23281707.5374   -1441471.17946  -1123214.00061
  20995278.897     -116150.938 7    -90511.45022
  21846009.5374  -11093766.43446  -8555719.79361
 91  3 25 23 59 44.9980000  0  5G18G 2G11G19G 6
  23779051.701    17482573.354 5  13622722.67421
  20515018.5844  -19517029.37748 -15208001.74763
  23288126.4124   -1407740.94646  -1096930.74361
  20998348.092     -100038.160 6    -77956.06222
  21838802.131   -11131644.397 6  -8585234.98021
 91  3 25 23 59 59.9980000  0  5G18G 2G11G19G 6
  23788459.1394   17532012.27545  13661246.23461
  20511609.6934  -19534946.87748 -15221963.40063
  23294563.787    -1373913.735 6  -1070571.93321
  21001424.9044     -83856.35046    -65346.88862
  21831596.272   -11169516.297 6  -8614745.44721
 91  3 26  0  0 14.9980000  0  4G 2G11G19G 6
  20508209.4984  -19552815.35048 -15235886.85163
  23301017.8424   -1339999.25346  -1044145.12261
  21004513.561      -67614.811 7    -52691.16422
  21824387.678   -11207391.420 6  -8644258.43521
 91  3 26  0  0 29.9980000  0  4G 2G11G19G 6
  20504820.8974  -19570622.58048 -15249762.57463
  23307490.115    -1305985.644 6  -1017641.04621
  21007619.279      -51301.331 6    -39979.38922
  21817180.5224  -11245257.28246  -8673764.21061
 91  3 26  0  0 44.9980000  0  4G 2G11G19G 6
  20501443.764   -19588367.029 8 -15263589.36823
  23313981.1074   -1271871.51746   -991058.66261
  21010735.928      -34914.335 7    -27210.32022
  21809978.209   -11283112.329 6  -8703261.55621
 91  3 26  0  0 59.9980000  0  4G 2G11G19G 6
  20498078.9204  -19606050.22448 -15277368.43963
  23320493.045    -1237658.735 6   -964399.37421
  21013873.022      -18455.080 6    -14384.95022
  21802774.857   -11320957.759 6  -8732751.39721
 91  3 26  0  1 14.9980000  0  4G 2G11G19G 6
  20494723.248   -19623681.839 8 -15291107.31723
  23327019.443    -1203357.211 6   -937670.94821
  21017012.639       -1933.276 7     -1510.83422
  21795574.397   -11358803.074 6  -8762241.16821
 91  3 26  0  1 29.9980000  0  4G 2G11G19G 6
  20491379.1394  -19641259.30348 -15304804.00363
  23333565.2644   -1168964.44446   -910871.41161
  21020169.404       14654.008 6     11414.30222
  21788373.818   -11396645.312 6  -8791728.52521
 91  3 26  0  1 44.9980000  0  4G 2G11G19G 6
  20488045.0764  -19658775.66648 -15318453.07963
  23340127.818    -1134474.222 6   -883995.89721
  21023338.076       31313.557 7     24395.75422
  21781174.2564  -11434477.62546  -8821208.16261
 91  3 26  0  1 59.9980000  0  4G 2G11G19G 6
  20484726.545   -19676219.378 8 -15332045.53823
  23346710.3184   -1099875.08146   -857035.56761
  21026526.740       48056.941 6     37442.53222
  21773976.9984  -11472288.26346  -8850670.90061
 91  3 26  0  2 14.9980000  0  4G 2G11G19G 6
  20481417.3654  -19693606.64148 -15345594.01663
  23353313.998    -1065183.443 6   -830003.15621
  21029723.467       64868.327 6     50542.29822
  21766784.0844  -11510093.01046  -8880129.06561
 91  3 26  0  2 29.9980000  0  4G 2G11G19G 6
  20478119.357   -19710933.553 8 -15359095.45823
  23359932.8734   -1030395.54446   -802895.71061
  21032938.0224      81751.87046     63698.29362
  21759593.3264  -11547887.78146  -8909579.43261
 91  3 26  0  2 44.9980000  0  4G 2G11G19G 6
  20474834.365   -19728201.760 8 -15372551.16323
  23366572.1704    -995513.50646   -775714.95161
  21036163.248       98705.736 6     76909.08822
  21752402.912   -11585674.056 6  -8939023.18221
 91  3 26  0  2 59.9980000  0  4G 2G11G19G 6
  20471560.201   -19745410.072 8 -15385960.18523
  23373226.1314    -960536.39646   -748460.10461
  21039406.5614     115731.26646     90175.72362
  21745212.6004  -11623450.53546  -8968459.30161
 91  3 26  0  3 14.9980000  0  4G 2G11G19G 6
  20468294.889   -19762565.209 8 -15399327.77623
  23379900.4204    -925471.04446   -721136.49661
  21042655.022      132821.937 6    103493.11322
  21738026.545   -11661223.765 6  -8997892.91121
 91  3 26  0  3 29.9980000  0  4G 2G11G19G 6
  20465043.912   -19779652.853 8 -15412642.78023
  23386592.873     -890303.424 6   -693733.17521
  21045926.920      149992.147 6    116872.47822
  21730841.834   -11698979.109 6  -9027312.55621
 91  3 26  0  3 44.9980000  0  4G 2G11G19G 6
  20461801.131   -19796689.386 8 -15425917.94623
  23393299.873     -855050.237 6   -666263.20321
  21049201.568      167225.646 7    130301.15622
  21723657.412   -11736732.788 6  -9056730.93721
 91  3 26  0  3 59.9980000  0  4G 2G11G19G 6
  20458571.350   -19813666.057 8 -15439146.46823
  23400026.639     -819702.988 6   -638719.93321
  21052497.115      184531.240 6    143786.01022
  21716473.0844  -11774475.79646  -9086141.00861
 91  3 26  0  4 14.9980000  0  4G 2G11G19G 6
  20455351.240   -19830583.570 8 -15452328.89823
  23406771.959     -784262.774 6   -611104.18121
  21055800.1934     201908.28446    157326.53662
  21709293.779   -11812208.719 6  -9115543.18421
 91  3 26  0  4 29.9980000  0  4G 2G11G19G 6
  20452142.8734  -19847441.25048 -15465464.69863
  23413532.3894    -748729.03346   -583415.58561
  21059126.3034     219357.65046    170923.41562
  21702116.107   -11849930.541 6  -9144936.71021
 91  3 26  0  4 44.9980000  0  4G 2G11G19G 6
  20448944.8574  -19864242.18448 -15478556.27163
  23420313.1624    -713105.31646   -555656.88061
  21062455.5614     236876.43246    184574.38562
  21694940.912   -11887644.290 6  -9174323.95321
 91  3 26  0  4 59.9980000  0  4G 2G11G19G 6
  20445761.006   -19880978.773 8 -15491597.71323
  23427108.1864    -677384.35046   -527822.38761
  21065806.6004     254472.18446    198285.32762
  21687765.373   -11925342.077 6  -9203698.77721
 91  3 26  0  5 14.9980000  0  4G 2G11G19G 6
  20442585.881   -19897660.192 8 -15504596.17223
  23433922.6314    -641575.19946   -499919.17461
  21069166.1074     272136.12046    212049.40162
  21680592.912   -11963032.717 6  -9233068.00721
 91  3 26  0  5 29.9980000  0  4G 2G11G19G 6
  20439423.0844  -19914284.78648 -15517550.34263
  23440754.5684    -605676.65746   -471946.32461
  21072543.1474     289869.80946    225867.81862
  21673422.100   -12000714.441 6  -9262430.30321
 91  3 26  0  5 44.9980000  0  4G 2G11G19G 6
  20436272.053   -19930846.699 8 -15530455.68423
  23447603.076     -569682.984 6   -443899.32321
  21075929.7644     307679.30246    239745.30662
  21666254.295   -12038381.109 6  -9291780.86721
 91  3 26  0  5 59.9980000  0  4G 2G11G19G 6
  20433131.592   -19947347.925 8 -15543313.73823
  23454470.7874    -533596.69446   -415780.15461
  21079336.123      325562.669 6    253680.35422
  21659088.1704  -12076034.66046  -9321121.20361
 91  3 26  0  6 14.9980000  0  4G 2G11G19G 6
  20430001.3504  -19963793.64048 -15556128.54063
  23461356.2644    -497423.11746   -387592.95461
  21082748.303      343514.846 6    267669.01822
  21651925.725   -12113679.975 6  -9350455.14521
 91  3 26  0  6 29.9980000  0  4G 2G11G19G 6
  20426884.3654  -19980177.07648 -15568894.81563
  23468256.545     -461156.031 6   -359332.90621
  21086183.5224     361542.48846    281716.49162
  21644765.006   -12151310.122 6  -9379777.22921
 91  3 26  0  6 44.9980000  0  4G 2G11G19G 6
  20423777.0684  -19996504.94448 -15581617.79663
  23475172.936     -424802.169 6   -331005.24121
  21089622.498      379639.033 6    295817.64722
  21637605.850   -12188931.537 6  -9409092.53021
 91  3 26  0  6 59.9980000  0  4G 2G11G19G 6
  20420680.8894  -20012778.29548 -15594298.30563
  23482107.725     -388362.896 6   -302611.04021
  21093082.006      397803.638 6    309971.83922
  21630447.154   -12226545.041 6  -9438401.65521
 91  3 26  0  7 14.9980000  0  4G 2G11G19G 6
  20417595.022   -20028992.496 8 -15606932.72723
  23489059.662     -351833.878 6   -274146.88121
  21096550.568      416040.974 6    324182.70522
  21623292.084   -12264145.760 6  -9467700.80521
 91  3 26  0  7 29.9980000  0  4G 2G11G19G 6
  20414520.615   -20045145.966 8 -15619519.82223
  23496029.1394    -315213.79146   -245611.80061
  21100038.8734     434352.70046    338451.53962
  21616140.725   -12301731.938 6  -9496988.63621
 91  3 26  0  7 44.9980000  0  4G 2G11G19G 6
  20411456.529   -20061249.085 8 -15632067.68123
  23503011.6394    -278513.15945   -217013.91861
  21103531.295      452728.754 6    352770.50222
  21608988.8974  -12339313.60746  -9526272.96261
 91  3 26  0  7 59.9980000  0  4G 2G11G19G 6
  20408401.506   -20077301.596 8 -15644576.11923
  23510010.061     -241732.324 5   -188353.55021
  21107043.318      471169.446 6    367139.82822
  21601838.389   -12376890.482 6  -9555553.54321
 91  3 26  0  8 14.9980000  0  4G 2G11G19G 6
  20405356.490   -20093303.213 8 -15657044.90023
  23517027.0534    -204871.17246   -159630.57061
  21110563.1544     489675.10546    381559.77962
  21594687.6314  -12414462.04246  -9584829.98261
 91  3 26  0  8 29.9980000  0  4G 2G11G19G 6
  20402325.506   -20109233.680 8 -15669458.23323
  23524059.9284    -167909.66446   -130829.39561
  21114103.4044     508266.04046    396046.18262
  21587542.311   -12452007.860 6  -9614086.36121
 91  3 26  0  8 44.9980000  0  4G 2G11G19G 6
  20399304.561   -20125107.592 8 -15681827.49823
  23531110.8654    -130862.77245   -101961.69961
  21117650.709      526927.698 6    410587.68822
  21580399.8114  -12489542.37446  -9643333.94061
 91  3 26  0  8 59.9980000  0  4G 2G11G19G 6
  20396294.889   -20140926.140 8 -15694153.62623
  23538172.3264     -93732.00945    -73028.63861
  21121221.8264     545658.96246    425183.44362
  21573259.7724  -12527066.48046  -9672573.40761
 91  3 26  0  9 14.9980000  0  4G 2G11G19G 6
  20393295.5224  -20156687.72648 -15706435.37163
  23545254.131      -56516.104 5    -44029.25821
  21124793.3574     564461.64646    439834.85262
  21566123.1624  -12564578.25546  -9701803.27161
 91  3 26  0  9 29.9980000  0  4G 2G11G19G 6
  20390308.061   -20172385.411 8 -15718667.31623
  23552355.764      -19208.358 5    -14958.30321
  21128390.4754     583342.65146    454547.29262
  21558986.8184  -12602070.68046  -9731018.05061
 91  3 26  0  9 44.9980000  0  4G 2G11G19G 6
  20387332.092   -20188024.034 8 -15730853.24523
  23559470.459       18186.335 5     14180.39021
  21131993.4204     602297.50246    469317.27762
  21551856.4204  -12639548.21646  -9760221.24361
 91  3 26  0  9 59.9980000  0  4G 2G11G19G 6
  20384366.561   -20203608.429 8 -15742996.91123
  23566601.1474      55662.81645     43382.84261
  21135618.1154     621321.42746    484141.07862
  21544726.193   -12677015.401 6  -9789416.34921
 91  3 26  0 10 14.9980000  0  4G 2G11G19G 6
  20381411.100   -20219136.090 8 -15755096.37923
  23573749.951       93223.177 5     72650.64021
  21139247.928      640416.919 6    499020.66622
  21537598.186   -12714469.498 6  -9818601.24921
 91  3 26  0 10 29.9980000  0  4G 2G11G19G 6
  20378466.404   -20234612.986 8 -15767156.27223
  23580913.3424     130861.15745    101978.89961
  21142898.6314     659578.06746    513951.39662
  21530471.1704  -12751916.41646  -9847780.56661
 91  3 26  0 10 44.9980000  0  4G 2G11G19G 6
  20375532.1394  -20250032.63848 -15779171.55463
  23588092.561      168582.964 5    131372.50621
  21146554.826      678811.353 6    528938.34922
  21523349.9824  -12789349.48246  -9876949.09961
 91  3 26  0 10 59.9980000  0  4G 2G11G19G 6
  20372609.631   -20265391.694 8 -15791139.61623
  23595287.5454     206391.77346    160833.92461
  21150231.459      698120.277 6    543984.24322
  21516228.7954  -12826765.03246  -9906103.97561
 91  3 26  0 11 14.9980000  0  4G 2G11G19G 6
  20369697.7874  -20280691.95548 -15803061.87363
  23602497.1624     244285.41345    190361.42561
  21153917.1394     717503.19046    559087.78462
  21509111.3184  -12864164.63546  -9935246.44161
 91  3 26  0 11 29.9980000  0  4G 2G11G19G 6
  20366796.0614  -20295935.13648 -15814939.63963
  23609724.0144     282261.89945    219953.49561
  21157621.8574     736958.41946    574247.67962
  21501998.1544  -12901549.76146  -9964377.61061
 91  3 26  0 11 44.9980000  0  4G 2G11G19G 6
  20363906.506   -20311120.295 8 -15826772.20523
  23616967.529      320322.107 5    249610.83421
  21161335.4984     756487.34346    589464.99162
  21494886.498   -12938919.233 6  -9993496.60621
 91  3 26  0 11 59.9980000  0  4G 2G11G19G 6
  20361028.818   -20326246.564 8 -15838558.88123
  23624226.912      358466.369 5    279333.64221
  21165067.834      776090.623 6    604740.25022
  21487778.272   -12976272.020 7 -10022602.61221
 91  3 26  0 12 14.9980000  0  4G 2G11G19G 6
  20358160.561   -20341316.493 8 -15850301.66923
  23631498.537      396692.015 5    309119.84821
  21168809.904      795766.006 6    620071.69522
  21480673.443   -13013610.250 7 -10051697.25021
 91  3 26  0 12 29.9970000  0  4G 2G11G19G 6
  20355305.142   -20356320.895 8 -15861993.38923
  23638788.6814     435004.09245    338973.41361
  21172572.056      815520.191 6    635464.53422
  21473573.3374  -13050923.15747 -10080772.15361
 91  3 26  0 12 44.9970000  0  4G 2G11G19G 6
  20352460.509   -20371274.976 8 -15873645.89823
  23646095.9074     473394.39145    368887.92961
  21176341.5094     835342.73546    650910.64562
  21466474.1494  -13088228.77747 -10109841.38261
 91  3 26  0 12 59.9970000  0  5G15G 2G11G19G 6
  23601379.6104         -0.25255
  20349625.9154  -20386167.79448 -15885250.65863
  23653419.2674     511870.13345    398869.02261
  21180130.407      855242.587 6    666416.99922
  21459378.1424  -13125514.20047 -10138894.88161
 91  3 26  0 13 14.9970000  0  5G15G 2G11G19G 6
  23594685.704      -35177.877 5
  20346803.9074  -20401000.53948 -15896808.60563
  23660754.9464     550429.76245    428915.49661
  21183929.337      875218.450 6    681982.57722
  21452287.0324  -13162780.48147 -10167933.44561
 91  3 26  0 13 29.9970000  0  5G15G 2G11G19G 6
  23588005.9154     -70277.42145
  20343994.415   -20415765.464 8 -15908313.72723
  23668111.0564     589080.75645    459033.17561
  21187753.290      895278.308 6    697613.61622
  21445200.1814  -13200019.67147 -10196950.90461
 91  3 26  0 13 44.9970000  0  5G15G 2G11G19G 6
  23581337.0954    -105314.39545        -0.48271
  20341193.8684  -20430478.51648 -15919778.41763
  23675478.1574     627806.79245    489209.35261
  21191576.939      915405.982 6    713297.49422
  21438115.376   -13237247.563 7 -10225959.57821
 91  3 26  0 13 59.9970000  0  5G15G 2G11G19G 6
  23574685.556     -140277.856 5    -27244.65121
  20338405.3064  -20445129.44748 -15931194.69463
  23682863.8374     666617.84745    519451.78061
  21195426.110      935612.168 6    729042.54822
  21431035.5014  -13274453.51447 -10254951.14061
 91  3 26  0 14 14.9970000  0  5G15G 2G11G19G 6
  23568046.5714    -175167.13145    -54431.03261
  20335629.3294  -20459717.79148 -15942562.19963
  23690267.1964     705513.98845    549760.46961
  21199281.837      955897.156 6    744849.01222
  21423960.8764  -13311636.96347 -10283925.15661
 91  3 26  0 14 29.9970000  0  5G15G 2G11G19G 6
  23561418.6494    -209986.23945    -81562.72161
  20332865.3294  -20474247.90648 -15953884.33663
  23697684.501      744490.559 5    580131.85921
  21203159.126      976256.682 6    760713.55022
  21416887.837   -13348802.094 7 -10312884.88921
 91  3 26  0 14 44.9970000  0  5G15G 2G11G19G 6
  23554810.751     -244734.989 5   -108639.61421
  20330110.2984  -20488720.15948 -15965161.37863
  23705114.3764     783546.98645    610565.45361
  21207045.376      996690.558 6    776636.02522
  21409818.5484  -13385949.03447 -10341830.46461
 91  3 26  0 14 59.9970000  0  5G15G 2G11G19G 6
  23548208.860     -279412.103 5   -135660.66321
  20327367.6264  -20503133.82748 -15976392.77663
  23712561.8604     822683.88145    641061.78161
  21210948.1424    1017199.69346    792617.13462
  21402753.3064  -13423076.58247 -10370760.92661
 91  3 26  0 15 14.9970000  0  5G15G 2G11G19G 6
  23541620.728     -314023.218 5   -162630.29021
  20324636.2124  -20517494.90948 -15987583.19463
  23720024.8994     861894.90145    671615.84761
  21214864.9074    1037777.99546    808652.15462
  21395691.556   -13460190.653 6 -10399680.90821
 91  3 26  0 15 29.9970000  0  5G15G 2G11G19G 6
  23535049.181     -348564.446 5   -189545.45921
  20321913.0174  -20531799.86148 -15998729.87463
  23727502.595      901183.213 5    702230.14421
  21218799.4234    1058429.11246    824743.90062
  21388630.907   -13497287.369 7 -10428587.36921
 91  3 26  0 15 44.9970000  0  5G15G 2G11G19G 6
  23528488.345     -383040.409 5   -216409.75721
  20319201.3454  -20546053.75448 -16009836.77063
  23734990.8374     940543.37645    732900.42761
  21222736.8144    1079148.16246    840888.57862
  21381573.9854  -13534371.65546 -10457484.09261
 91  3 26  0 15 59.9970000  0  5G15G 2G11G19G 6
  23521940.8604    -417449.40645   -243221.87761
  20316498.3214  -20560255.72748 -16020903.20263
  23742495.0244     979976.19245    763627.33861
  21226694.8924    1099936.16346    857086.98862
  21374519.899   -13571442.279 6 -10486370.18821
 91  3 26  0 16 14.9970000  0  5G15G 2G11G19G 6
  23515405.946     -451791.189 5   -269981.61221
  20313805.0644  -20574405.69648 -16031929.11363
  23750012.649     1019481.219 5    794410.51521
  21230660.4074    1120793.21446    873339.19662
  21367468.6964  -13608498.99347 -10515245.45761
 91  3 26  0 16 29.9970000  0  5G15G 2G11G19G 6
  23508883.9394    -486064.81545   -296688.21461
  20311122.9934  -20588503.25648 -16042914.18463
  23757543.228     1059058.727 5    825250.13821
  21234645.485     1141719.714 6    889645.51922
  21360419.157   -13645541.249 6 -10544109.46621
 91  3 26  0 16 44.9970000  0  5G15G 2G11G19G 6
  23502377.5484    -520269.48445   -323341.09761
  20308449.689   -20602548.032 8 -16053858.12123
  23765086.837     1098708.876 5    856146.36021
  21238638.845     1162716.292 6    906006.44822
  21353372.7984  -13682568.19146 -10572961.54261
 91  3 26  0 16 59.9970000  0  5G15G 2G11G19G 6
  23495879.892     -554400.137 5   -349936.30821
  20305787.5794  -20616535.18848 -16064757.16363
  23772648.4854    1138436.15345    887102.72061
  21242651.899     1183787.738 6    922425.71022
  21346330.8294  -13719574.79346 -10601797.75961
 91  3 26  0 17 14.9970000  0  5G15G 2G11G19G 6
  23489401.8374    -588455.27845   -376472.63361
  20303138.3144  -20630463.71448 -16075610.52363
  23780222.040     1178241.223 5    918119.68621
  21246673.267     1204935.165 6    938904.18522
  21339293.5714  -13756559.87546 -10630617.22361
 91  3 26  0 17 29.9970000  0  5G15G 2G11G19G 6
  23482931.6034    -622440.96545   -402954.87761
  20300497.704   -20644339.938 8 -16086423.12223
  23787808.5794    1218117.33145    949192.01561
  21250711.798     1226152.120 6    955436.82822
  21332257.5244  -13793529.60546 -10659424.70661
 91  3 26  0 17 44.9970000  0  5G15G 2G11G19G 6
  23476479.3844    -656352.76745   -429379.50261
  20297867.0094  -20658159.97848 -16097191.94363
  23795413.0484    1258068.10245    980322.54261
  21254762.243     1247442.655 6    972026.80922
  21325227.360   -13830479.936 6 -10688217.07721
 91  3 26  0 17 59.9970000  0  5G15G 2G11G19G 6
  23470038.571     -690188.047 5   -455744.52421
  20295248.3454  -20671921.81748 -16107915.42363
  23803031.446     1298095.521 5   1011512.80921
  21258831.118     1268809.087 6    988675.92822
  21318198.657   -13867408.372 6 -10716992.37621
 91  3 26  0 18 14.9970000  0  4G15G 2G19G 6
  23463614.626     -723949.352 5   -482051.87321
  20292640.9784  -20685628.57848 -16118595.97263
  21262906.915     1290248.300 6   1005381.76122
  21311174.446   -13904317.892 6 -10745752.96421
 91  3 26  0 18 29.9970000  0  4G15G 2G19G 6
  23457203.314     -757641.573 5   -508305.42221
  20290041.5714  -20699285.49448 -16129237.69063
  21267003.126     1311755.053 6   1022140.22322
  21304154.3214  -13941213.32846 -10774502.56361
 91  3 26  0 18 44.9970000  0  4G15G 2G19G 6
  23450807.298     -791259.961 5   -534501.41221
  20287452.8374  -20712888.06948 -16139837.06263
  21271107.204     1333333.974 6   1038954.91722
  21297136.2984  -13978089.94547 -10803237.48661
 91  3 26  0 18 59.9970000  0  4G15G 2G19G 6
  23444424.9464    -824801.56645   -560637.56761
  20284875.1104  -20726433.58548 -16150391.97963
  21275233.064     1354987.800 6   1055827.98622
  21290121.860   -14014945.026 7 -10831955.62821
 91  3 26  0 19 14.9970000  0  4G15G 2G19G 6
  23438056.9394    -858263.00845   -586711.27661
  20282308.860   -20739919.062 8 -16160900.09723
  21279362.368     1376719.675 6   1072761.86622
  21283114.149   -14051775.282 7 -10860654.41621
 91  3 26  0 19 29.9970000  0  4G15G 2G19G 6
  23431701.821     -891647.660 5   -612725.13721
  20279752.8374  -20753348.56548 -16171364.59963
  21283514.9464    1398525.56246   1089753.42762
  21276111.618   -14088584.536 7 -10889336.87921
 91  3 26  0 19 44.9970000  0  4G15G 2G19G 6
  23425361.9854    -924960.26245   -638682.85361
  20277207.759   -20766727.154 8 -16181789.43323
  21287674.892     1420400.491 6   1106798.78422
  21269109.3604  -14125377.42747 -10918006.57861
 91  3 26  0 19 59.9970000  0  4G15G 2G19G 6
  23419039.610     -958196.328 5   -664580.95421
  20274672.353   -20780050.889 8 -16192171.51723
  21291855.2434    1442348.38146   1123900.99962
  21262111.720   -14162149.814 7 -10946660.28321
 91  3 26  0 20 14.9970000  0  4G15G 2G19G 6
  23412727.134     -991357.882 5   -690420.98121
  20272147.415   -20793322.341 8 -16202512.85323
  21296041.4544    1464366.85146   1141058.21062
  21255117.1814  -14198903.88347 -10975299.70362
 91  3 26  0 20 29.9970000  0  4G15G 2G19G 6
  23406433.407    -1024449.329 5   -716206.39221
  20269629.876   -20806546.239 8 -16212817.14223
  21300246.2434    1486451.29446   1158266.82662
  21248125.9154  -14235644.22947 -11003928.44861
 91  3 26  0 20 44.9970000  0  4G15G 2G19G 6
  23400145.048    -1057470.165 5   -741936.76821
  20267122.649   -20819722.448 8 -16223084.27023
  21304459.5014    1508601.91546   1175527.02062
  21241135.6494  -14272370.48647 -11032546.21362
 91  3 26  0 20 59.9970000  0  4G15G 2G19G 6
  23393875.7674   -1090415.71845   -767608.51161
  20264624.5564  -20832846.63348 -16233310.86763
  21308690.0324    1530823.00946   1192842.12462
  21234151.1344  -14309078.01447 -11061149.38562
 91  3 26  0 21 14.9970000  0  4G15G 2G19G 6
  23387619.728    -1123287.603 5   -793222.82021
  20262136.9784  -20845921.25648 -16243498.84563
  21312928.9074    1553112.39746   1210210.45262
  21227168.8924  -14345768.93647 -11089739.61461
 91  3 26  0 21 29.9970000  0  4G15G 2G19G 6
  23381382.071    -1156078.002 5   -818773.63921
  20259660.009   -20858938.673 8 -16253642.24423
  21317188.8604    1575477.71046   1227637.94162
  21220191.3684  -14382435.48147 -11118310.86962
 91  3 26  0 21 44.9970000  0  4G15G 2G19G 6
  23375157.649    -1188792.932 5   -844265.64421
  20257192.540   -20871905.432 8 -16263746.16623
  21321455.931     1597912.497 6   1245119.56322
  21213216.4394  -14419083.85547 -11146867.94162
 91  3 26  0 21 59.9970000  0  4G15G 2G19G 6
  23368948.5404   -1221426.78745   -869694.46961
  20254735.6034  -20884816.16148 -16273806.44463
  21325740.7904    1620422.06746   1262659.45862
  21206247.814   -14455708.495 7 -11175406.54922
 91  3 26  0 22 14.9970000  0  4G15G 2G19G 6
  23362751.431    -1253974.897 5   -895056.48821
  20252290.8214  -20897666.60048 -16283819.73763
  21330037.5404    1643010.69646   1280260.95462
  21199284.2594  -14492304.99747 -11203923.22361
 91  3 26  0 22 29.9970000  0  4G15G 2G19G 6
  23356574.196    -1286444.527 5   -920357.33621
  20249855.3214  -20910464.49748 -16293792.08463
  21334351.1734    1665670.65646   1297918.03662
  21192323.345   -14528880.695 7 -11232423.65421
 91  3 26  0 22 44.9970000  0  4G15G 2G19G 6
  23350408.868    -1318840.751 5   -945600.99621
  20247428.095   -20923215.294 8 -16303727.72423
  21338672.6034    1688396.61446   1315626.54162
  21185365.6894  -14565440.90747 -11260912.01162
 91  3 26  0 22 59.9970000  0  4G15G 2G19G 6
  23344258.790    -1351159.980 5   -970784.65221
  20245012.196   -20935915.942 8 -16313624.29023
  21343014.5244    1711191.95546   1333389.11262
  21178412.829   -14601982.178 7 -11289385.61921
 91  3 26  0 23 14.9970000  0  4G15G 2G19G 6
  23338124.8604   -1383400.44045   -995906.91061
  20242604.251   -20948564.853 8 -16323480.54123
  21347361.4464    1734058.11646   1351206.87162
  21171462.853   -14638502.740 7 -11317843.08822
 91  3 26  0 23 29.9970000  0  4G15G 2G19G 6
  23332004.384    -1415561.835 6  -1020967.57421
  20240206.243   -20961162.345 8 -16333296.72523
  21351730.0954    1756995.07846   1369079.79262
  21164516.9154  -14675002.53847 -11346284.38861
 91  3 26  0 23 44.9970000  0  4G15G 2G19G 6
  23325900.743    -1447642.290 5  -1045965.16021
  20237819.5874  -20973706.83348 -16343071.61563
  21356105.196     1780004.340 6   1387009.06422
  21157576.0644  -14711479.78447 -11374708.10061
 91  3 26  0 23 59.9970000  0  4G15G 2G19G 6
  23319808.0954   -1479646.35745  -1070903.22361
  20235441.6894  -20986203.42348 -16352809.17863
  21360500.1574    1803080.76046   1404990.65562
  21150638.1494  -14747939.38347 -11403118.08461
 91  3 26  0 24 14.9970000  0  4G15G 2G19G 6
  23313733.603    -1511570.116 6  -1095778.69421
  20233074.274   -20998648.861 8 -16362506.87723
  21364902.1814    1826227.80846   1423027.28962
  21143702.9624  -14784377.53647 -11431511.36161
 91  3 26  0 24 29.9970000  0  4G15G 2G19G 6
  23307673.1104   -1543410.61545  -1120589.30161
  20230715.8374  -21011040.39848 -16372162.58563
  21369323.0174    1849448.15346   1441121.03162
  21136773.759   -14820791.483 7 -11459885.75821
 91  3 26  0 24 44.9970000  0  4G15G 2G19G 6
  23301627.6574   -1575171.89245  -1145338.16861
  20228367.1734  -21023382.42848 -16381779.71363
  21373752.7044    1872737.31746   1459268.39862
  21129848.2904  -14857185.38947 -11488244.55661
 91  3 26  0 24 59.9970000  0  4G15G 2G19G 6
  23295600.7354   -1606853.14146  -1170024.67661
  20226027.689   -21035674.553 8 -16391357.95023
  21378199.9934    1896095.87046   1477469.83862
  21122927.759   -14893558.587 7 -11516587.19921
 91  3 26  0 25 14.9970000  0  4G15G 2G19G 6
  23289590.376    -1638448.431 5  -1194644.22821
  20223699.3454  -21047911.18048 -16400892.94263
  21382656.9074    1919529.62146   1495729.87562
  21116010.6184  -14929905.19747 -11544909.12862
 91  3 26  0 25 29.9970000  0  4G15G 2G19G 6
  23283592.9314   -1669961.44346  -1219199.66661
  20221381.3764  -21060096.32448 -16410387.81963
  21387133.3374    1943034.69446   1514045.48562
  21109097.0174  -14966228.95047 -11573213.25461
 91  3 26  0 25 44.9970000  0  4G15G 2G19G 6
  23277609.860    -1701394.871 6  -1243693.11021
  20219070.5244  -21072233.35448 -16419845.20563
  21391615.681     1966607.767 6   1532414.08822
  21102189.8764  -15002532.83247 -11601501.87561
 91  3 26  0 25 59.9970000  0  4G15G 2G19G 6
  23271644.399    -1732743.436 6  -1268120.42921
  20216770.5484  -21084317.22248 -16429261.16463
  21396119.0874    1990253.70646   1550839.46662
  21095286.7514  -15038811.73647 -11629771.05661
 91  3 26  0 26 14.9970000  0  4G15G 2G19G 6
  23265696.306    -1764006.848 6  -1292481.39521
  20214481.4784  -21096348.45248 -16438636.10463
  21400628.4704    2013972.33246   1569321.47962
  21088387.751   -15075065.727 7 -11658020.81822
 91  3 26  0 26 29.9970000  0  4G15G 2G19G 6
  23259763.673    -1795184.566 6  -1316775.60621
  20212203.735   -21108326.507 8 -16447969.62023
  21405157.462     2037763.996 6   1587860.41722
  21081492.9074  -15111294.19247 -11686250.69062
 91  3 26  0 26 44.9970000  0  4G15G 2G19G 6
  23253843.314    -1826283.206 6  -1341008.20021
  20209931.6654  -21120258.67848 -16457267.37663
  21409697.6264    2061621.78446   1606450.87262
  21074601.8374  -15147503.75347 -11714465.83762
 91  3 26  0 26 59.9970000  0  4G15G 2G19G 6
  23247941.0014   -1857297.02146  -1365174.67561
  20207670.837   -21132139.397 8 -16466525.03423
  21414252.204     2085551.098 6   1625097.06422
  21067716.3844  -15183688.84647 -11742661.92662
 91  3 26  0 27 14.9970000  0  4G15G 2G19G 6
  23242057.392    -1888224.043 6  -1389273.55221
  20205420.181   -21143967.086 8 -16475741.37323
  21418815.915     2109553.446 6   1643800.16922
  21060835.5794  -15219847.63447 -11770837.50062
 91  3 26  0 27 29.9970000  0  4G15G 2G19G 6
  23236188.6104   -1919066.14346  -1413306.22861
  20203180.196   -21155744.026 8 -16484918.16123
  21423399.259     2133626.496 6   1662558.36822
  21053959.478   -15255982.198 7 -11798994.20122
 91  3 26  0 27 44.9970000  0  4G15G 2G19G 6
  23230335.204    -1949824.522 6  -1437273.68221
  20200947.548   -21167471.638 8 -16494056.51323
  21427993.118     2157769.027 6   1681370.70621
  21047087.235   -15292093.678 7 -11827132.91622
 91  3 26  0 27 59.9970000  0  4G15G 2G19G 6
  23224496.1964   -1980498.31546  -1461175.21861
  20198724.071   -21179149.684 8 -16503156.24623
  21432605.626     2181981.367 6   1700237.44621
  21040220.157   -15328181.516 7 -11855253.20422
 91  3 26  0 28 14.9970000  0  5G15G 2G13G19G 6
  23218678.423    -2011084.027 6  -1485008.11321
  20196512.243   -21190775.288 8 -16512215.11023
  23307927.1264         -0.20454
  21437221.345     2206266.669 6   1719161.03621
  21033357.532   -15364242.693 7 -11883352.73922
 91  3 26  0 28 29.9970000  0  5G15G 2G13G19G 6
  23212870.5014   -2041585.02746  -1508774.99561
  20194309.3604  -21202352.17848 -16521236.02263
  23295444.1654     -65579.52744
  21441858.423     2230621.139 6   1738138.52722
  21026500.3374  -15400280.48647 -11911434.04762
 91  3 26  0 28 44.9970000  0  5G15G 2G13G19G 6
  23207085.728    -2071996.454 6  -1532472.06721
  20192117.181   -21213875.913 8 -16530215.51123
  23282975.2044    -131127.50545
  21446503.931     2255049.285 6   1757173.41822
  21019646.7124  -15436290.15347 -11939493.41662
 91  3 26  0 28 59.9970000  0  5G15G 2G13G19G 6
  23201315.829    -2102321.973 6  -1556102.19321
  20189932.915   -21225350.412 8 -16539156.63923
  23270504.4704    -196647.74645
  21451167.673     2279547.128 6   1776262.63121
  21012800.0954  -15472275.30847 -11967533.73062
 91  3 26  0 29 14.9970000  0  5G15G 2G13G19G 6
  23195559.9394   -2132561.32746  -1579665.18461
  20187758.095   -21236775.855 8 -16548059.53923
  23258043.3214    -262139.78045
  21455841.8294    2304114.55746   1795406.05461
  21005957.040   -15508235.951 7 -11995554.93222
 91  3 26  0 29 29.9970000  0  5G15G 2G13G19G 6
  23189823.1344   -2162709.57246  -1603157.17361
  20185594.251   -21248147.760 8 -16556920.71823
  23245585.5714    -327598.79945
  21460533.064     2328755.979 6   1814607.13921
  20999118.814   -15544167.375 7 -12023553.35622
 91  3 26  0 29 44.9970000  0  5G15G 2G13G19G 6
  23184102.3534   -2192771.38046  -1626581.81461
  20183439.423   -21259471.035 8 -16565744.00123
  23233133.0174    -393029.37244
  21465233.173     2353466.678 6   1833862.20921
  20992286.9314  -15580074.09147 -12051532.53462
 91  3 26  0 29 59.9970000  0  5G15G 2G13G19G 6
  23178398.6654   -2222744.84846  -1649937.62061
  20181294.454   -21270744.120 8 -16574528.17323
  23220689.6654    -458429.36745
  21469949.5714    2378248.31746   1853172.54261
  20985457.2984  -15615954.37947 -12079491.10562
 91  3 26  0 30 14.9970000  0  5G15G 2G13G19G 6
  23172709.6734   -2252627.34645  -1673222.52861
  20179159.579   -21281965.128 8 -16583271.76823
  23208251.6034    -523796.43645
  21474677.5174    2403102.74146   1872539.59761
  20978635.1894  -15651805.90647 -12107427.25262
 91  3 26  0 30 29.9970000  0  5G15G 2G13G19G 6
  23167043.0714   -2282423.34746  -1696440.04361
  20177033.024   -21293138.872 8 -16591978.54023
  23195816.1574    -589135.00745
  21479422.8764    2428025.29546   1891959.74561
  20971818.4154  -15687633.27447 -12135344.59762
 91  3 26  0 30 44.9970000  0  5G15G 2G13G19G 6
  23161386.274    -2312134.222 5  -1719591.24421
  20174915.095   -21304266.860 8 -16600649.65323
  23183385.1894    -654446.36645        -0.26871
  21484175.5244    2453014.16146   1911431.55661
  20965005.0794  -15723437.74647 -12163244.09162
 91  3 26  0 30 59.9970000  0  5G15G 2G13G19G 6
  23155749.923    -2341757.235 5  -1742673.96421
  20172806.157   -21315347.015 8 -16609283.49423
  23170963.181     -719727.906 5    -50868.43921
  21488946.321     2478071.762 6   1930956.92022
  20958195.1964  -15759217.01147 -12191123.94262
 91  3 26  0 31 14.9970000  0  5G15G 2G13G19G 6
  23150129.7434   -2371294.58745  -1765689.96261
  20170707.243   -21326381.673 8 -16617881.88523
  23158543.6964    -784981.41545   -101714.82261
  21493726.5404    2503195.96646   1950534.19161
  20951392.0564  -15794973.15047 -12218985.77862
 91  3 26  0 31 29.9970000  0  5G15G 2G13G19G 6
  23144525.665    -2400744.727 5  -1788638.00721
  20168615.853   -21337370.177 8 -16626444.30623
  23146135.0014    -850205.88545   -152538.58361
  21498525.0484    2528387.42746   1970163.86561
  20944592.8144  -15830705.07747 -12246828.76162
 91  3 26  0 31 44.9970000  0  5G15G 2G13G19G 6
  23138940.0564   -2430109.61545  -1811519.61261
  20166533.517   -21348314.340 8 -16634972.17523
  23133729.3144    -915402.66944   -203340.75261
  21503325.7674    2553644.19146   1989844.41561
  20937796.2434  -15866414.43647 -12274654.14662
 91  3 26  0 31 59.9970000  0  5G15G 2G13G19G 6
  23133365.048    -2459391.981 5  -1834336.93121
  20164458.985   -21359217.459 8 -16643468.06223
  23121323.1104    -980574.64644   -254123.52761
  21508146.1184    2578962.87846   2009573.23161
  20931005.3064  -15902104.25947 -12302464.30662
 91  3 26  0 32 14.9970000  0  5G15G 2G13G19G 6
  23127811.157    -2488582.106 5  -1857082.37721
  20162393.493   -21370070.137 8 -16651924.64223
  23108930.665    -1045711.962 5   -304879.37521
  21512974.290     2604353.051 6   2029357.74121
  20924219.9854  -15937764.75547 -12330251.61262
 91  3 26  0 32 29.9970000  0  5G15G 2G13G19G 6
  23122270.5484   -2517684.59245  -1879759.51261
  20160337.267   -21380877.495 8 -16660345.90823
  23096537.6494   -1110819.03645   -355611.64661
  21517823.2434    2629809.76846   2049194.10161
  20917437.8214  -15973400.81247 -12358019.87162
 91  3 26  0 32 44.9970000  0  5G15G 2G13G19G 6
  23116753.548    -2546695.064 6  -1902364.96621
  20158289.931   -21391635.526 8 -16668728.73423
  23084152.1894   -1175891.57745   -406317.05461
  21522676.3764    2655337.05846   2069085.46262
  20910661.7904  -16009008.03647 -12385765.66762
 91  3 26  0 32 59.9970000  0  5G15G 2G13G19G 6
  23111248.657    -2575614.368 5  -1924899.38621
  20156251.860   -21402345.425 8 -16677074.06523
  23071778.868    -1240930.561 4   -456996.24421
  21527550.5644    2680933.64546   2089030.81962
  20903890.5014  -16044587.44347 -12413489.76362
 91  3 26  0 33 14.9970000  0  5G15G 2G13G19G 6
  23105763.353    -2604438.853 5  -1947359.90921
  20154223.259   -21413003.864 8 -16685379.29423
  23059408.946    -1305932.109 5   -507646.30521
  21532431.9704    2706603.12546   2109032.98061
  20897127.8684  -16080135.34547 -12441189.29762
 91  3 26  0 33 29.9970000  0  5G15G 2G13G19G 6
  23100296.6814   -2633170.40945  -1969748.00761
  20152204.399   -21423613.173 8 -16693646.24223
  23047047.399    -1370898.069 5   -558268.66021
  21537332.7674    2732343.13546   2129090.09962
  20890367.4854  -16115653.99547 -12468866.06862
 91  3 26  0 33 44.9970000  0  5G15G 2G13G19G 6
  23094844.118    -2661815.624 5  -1992068.85121
  20150194.181   -21434180.336 8 -16701880.35023
  23034686.0094   -1435834.94444   -608868.34261
  21542242.4234    2758146.57946   2149196.64661
  20883612.165   -16151149.952 7 -12496525.15522
 91  3 26  0 33 59.9970000  0  5G15G 2G13G19G 6
  23089407.3144   -2690382.33845  -2014328.52661
  20148189.470   -21444713.870 8 -16710088.25223
  23022334.9784   -1500750.96545   -659451.77361
  21547166.5644    2784004.99946   2169346.03161
  20876861.610   -16186631.515 7 -12524173.01522
 91  3 26  0 34 14.9970000  0  5G15G 2G13G19G 6
  23083991.821    -2718852.747 5  -2036513.15921
  20146193.806   -21455196.075 8 -16718256.15923
  23009990.040    -1565627.968 5   -710004.74921
  21552096.2124    2809936.08946   2189552.04561
  20870115.470   -16222080.715 7 -12551795.66722
 91  3 26  0 34 29.9970000  0  5G15G 2G13G19G 6
  23078591.173    -2747227.980 6  -2058623.61221
  20144208.6424  -21465628.39948 -16726385.20263
  22997651.8764   -1630466.90545   -760528.18461
  21557047.7354    2835938.37446   2209813.53161
  20863375.642   -16257498.690 7 -12579393.98322
 91  3 26  0 34 44.9970000  0  5G15G 2G13G19G 6
  23073208.3144   -2775510.01245  -2080661.45761
  20142231.8604  -21476013.20048 -16734477.21263
  22985317.735    -1695269.771 5   -811023.46321
  21562005.1264    2862009.78146   2230128.87761
  20856641.712   -16292887.377 7 -12606969.46222
 91  3 26  0 34 59.9970000  0  5G15G 2G13G19G 6
  23067847.6034   -2803698.03245  -2102626.03461
  20140266.040   -21486349.988 8 -16742531.80923
  22972993.8454   -1760035.50345   -861489.80561
  21566984.3144    2888150.56046   2250498.28962
  20849910.978   -16328246.258 7 -12634521.73722
 91  3 26  0 35 14.9970000  0  5G15G 2G13G19G 6
  23062501.431    -2831787.011 5  -2124513.43021
  20138308.946   -21496634.374 8 -16750545.57223
  22960676.314    -1824759.122 5   -911923.36221
  21571967.3604    2914365.43946   2270925.44161
  20843190.587   -16363570.391 7 -12662046.92122
 91  3 26  0 35 29.9970000  0  5G15G 2G13G19G 6
  23057172.821    -2859782.583 5  -2146328.05221
  20136360.470   -21506872.265 8 -16758523.10323
  22948367.1104   -1889446.30245   -962328.50661
  21576974.2284    2940648.43346   2291405.66562
  20836473.321   -16398865.396 7 -12689549.40922
 91  3 26  0 35 44.9970000  0  5G15G 2G13G19G 6
  23051861.876    -2887683.694 5  -2168069.06121
  20134420.9464  -21517062.99848 -16766463.89663
  22936064.6964   -1954095.86745  -1012704.37161
  21581984.7904    2967000.20646   2311939.47661
  20829763.1424  -16434130.53247 -12717028.61462
 91  3 26  0 35 59.9970000  0  5G15G 2G13G19G 6
  23046571.9854   -2915491.78445  -2189737.57661
  20132490.173   -21527208.453 8 -16774369.39923
  22923770.540    -2018709.269 5  -1063052.04421
  21587015.8534    2993418.81146   2332525.37261
  20823057.2984  -16469367.26747 -12744485.70762
 91  3 26  0 36 14.9970000  0  5G15G 2G13G19G 6
  23041301.767    -2943195.414 6  -2211324.70521
  20130570.735   -21537297.333 8 -16782230.82023
  22911482.3064   -2083274.93145  -1113362.54461
  21592053.5794    3019915.54646   2353172.14661
  20816358.9854  -16504564.22147 -12771911.81862
 91  3 26  0 36 29.9970000  0  5G15G 2G13G19G 6
  23036046.6344   -2970809.69146  -2232842.19761
  20128658.2044  -21547345.59348 -16790060.59063
  22899200.462    -2147808.224 5  -1163647.78821
  21597111.3214    3046474.66546   2373867.53261
  20809665.454   -16539736.759 7 -12799318.88222
 91  3 26  0 36 44.9970000  0  5G15G 2G13G19G 6
  23030809.2204   -2998324.77146  -2254282.40361
  20126754.978   -21557343.461 8 -16797851.09623
  22886928.126    -2212298.945 5  -1213899.90821
  21602175.9314    3073105.92546   2394619.12561
  20802978.8294  -16574874.84247 -12826699.11362
 91  3 26  0 36 59.9970000  0  5G15G 2G13G19G 6
  23025590.392    -3025742.444 6  -2275646.70721
  20124861.8764  -21567293.14048 -16805604.04963
  22874664.212    -2276748.787 5  -1264120.14221
  21607258.9704    3099807.15746   2415425.24561
  20796298.7674  -16609980.45547 -12854054.03762
 91  3 26  0 37 14.9970000  0  5G15G 2G13G19G 6
  23020391.1574   -3053067.13945  -2296938.56061
  20122976.142   -21577199.357 8 -16813323.13723
  22862406.892    -2341162.402 5  -1314312.19821
  21612351.3294    3126573.56846   2436282.15961
  20789624.2514  -16645058.09347 -12881387.16162
 91  3 26  0 37 29.9970000  0  5G15G 2G13G19G 6
  23015208.1264   -3080307.09246  -2318164.37461
  20121098.3214  -21587070.66648 -16821015.02463
  22850152.5174   -2405547.71145  -1364482.15161
  21617457.4314    3153396.76446   2457183.32161
  20782952.6344  -16680115.96647 -12908704.89462
 91  3 26  0 37 44.9970000  0  5G15G 2G13G19G 6
  23010039.7674   -3107452.88346  -2339316.81361
  20119228.8924  -21596898.13248 -16828672.75463
  22837909.134    -2469895.082 5  -1414622.56521
  21622571.0564    3180285.67946   2478135.68661
  20776286.774   -16715144.821 7 -12935999.99322
 91  3 26  0 37 59.9970000  0  5G15G 2G13G19G 6
  23004890.0794   -3134500.21345  -2360392.53561
  20117367.5094  -21606677.80548 -16836293.23763
  22825670.876    -2534200.188 5  -1464730.05921
  21627703.4314    3207244.26246   2499142.34061
  20769627.7824  -16750140.40947 -12963269.19662
 91  3 26  0 38 14.9970000  0  5G15G 2G13G19G 6
  22999767.1574   -3161448.01746  -2381390.70661
  20115515.6494  -21616409.36348 -16843876.23363
  22813442.829    -2598462.524 5  -1514804.21921
  21632845.8604    3234272.91146   2520203.59561
  20762974.9854  -16785102.19347 -12990512.05862
 91  3 26  0 38 29.9970000  0  5G15G 2G13G19G 6
  22994657.9464   -3188293.36346  -2402309.03461
  20113673.7824  -21626090.05848 -16851419.59063
  22801222.6734   -2662678.70045  -1564842.40461
  21638007.6104    3261374.31746   2541321.53561
  20756327.970   -16820027.128 7 -13017726.20322
 91  3 26  0 38 44.9970000  0  5G15G 2G13G19G 6
  22989571.4784   -3215032.01646  -2423144.22261
  20111841.595   -21635715.706 8 -16858920.05023
  22789011.3214   -2726844.22245  -1614841.12861
  21643174.2904    3288552.49346   2562499.29861
  20749689.579   -16854910.775 7 -13044908.18422
 91  3 26  0 38 59.9970000  0  5G15G 2G13G19G 6
  22984497.8064   -3241671.44446  -2443902.09761
  20110019.1494  -21645294.19848 -16866383.76963
  22776808.196    -2790966.453 5  -1664806.09021
  21648360.5094    3315799.87046   2583730.98661
  20743058.5794  -16889760.60347 -13072063.80362
 91  3 26  0 39 14.9970000  0  5G15G 2G13G19G 6
  22979449.2434   -3268214.38646  -2464584.80161
  20108204.8144  -21654828.71148 -16873813.21863
  22764613.6574   -2855048.21145  -1714739.54661
  21653557.0874    3343113.23246   2605014.09061
  20736432.329   -16924579.503 7 -13099195.31522
 91  3 26  0 39 29.9970000  0  5G15G 2G13G19G 6
  22974417.4394   -3294660.03446  -2485191.67761
  20106399.0014  -21664318.74948 -16881208.01163
  22752426.8764   -2919088.63545  -1764640.79061
  21658769.2594    3370493.06246   2626348.98461
  20729812.2594  -16959366.79447 -13126302.18962
 91  3 26  0 39 44.9970000  0  5G15G 2G13G19G 6
  22969401.1104   -3321006.40146  -2505721.19161
  20104601.478   -21673762.732 8 -16888566.91623
  22740250.0324   -2983085.97845  -1814508.45161
  21663990.8764    3397940.84246   2647736.82561
  20723198.314   -16994120.753 7 -13153383.11722
 91  3 26  0 39 59.9970000  0  5G15G 2G13G19G 6
  22964410.2514   -3347250.64646  -2526171.13561
  20102814.079   -21683158.359 8 -16895888.13623
  22728079.7984   -3047037.04745  -1864340.07061
  21669228.2904    3425458.94846   2669179.46661
  20716591.806   -17028838.539 7 -13180435.84922
 91  3 26  0 40 14.9970000  0  5G15G 2G13G19G 6
  22959434.2284   -3373391.04346  -2546540.15261
  20101035.462   -21692504.163 8 -16903170.54023
  22715919.4854   -3110939.78745  -1914134.00961
  21674478.0954    3453048.96346   2690678.14361
  20709992.149   -17063518.302 7 -13207458.96522
 91  3 26  0 40 29.9970000  0  5G15G 2G13G19G 6
  22954480.8764   -3399432.49046  -2566832.07661
  20099265.087   -21701805.232 8 -16910418.08323
  22703764.8844   -3174799.04845  -1963894.10061
  21679743.5954    3480705.84346   2712228.91861
  20703399.985   -17098164.926 7 -13234456.24922
 91  3 26  0 40 44.9970000  0  5G15G 2G13G19G 6
  22949541.1814   -3425373.34946  -2587045.61161
  20097504.407   -21711060.388 8 -16917629.85123
  22691622.423    -3238613.221 5  -2013619.02421
  21685017.4624    3508430.74346   2733832.69461
  20696813.048   -17132776.907 7 -13261426.54122
 91  3 26  0 40 59.9970000  0  5G15G 2G13G19G 6
  22944622.4314   -3451214.00646  -2607181.06361
  20095751.634   -21720270.332 8 -16924806.39223
  22679488.110    -3302382.769 5  -2063309.16521
  21690305.9624    3536222.88746   2755488.87161
  20690232.8994  -17167354.71447 -13288370.18862
 91  3 26  0 41 14.9970000  0  5G15G 2G13G19G 6
  22939728.626    -3476952.494 6  -2627236.91821
  20094007.3144  -21729433.69348 -16931946.62863
  22667361.899    -3366105.842 5  -2112963.09321
  21695606.814     3564083.721 6   2777198.56821
  20683660.4154  -17201896.70847 -13315285.93962
 91  3 26  0 41 29.9970000  0  5G15G 2G13G19G 6
  22934849.7984   -3502587.05646  -2647211.76961
  20092272.9464  -21738548.93248 -16939049.37463
  22655243.540    -3429780.551 5  -2162579.33921
  21700922.478     3592014.580 6   2798962.82221
  20677094.978   -17236401.206 7 -13342172.48222
 91  3 26  0 41 44.9970000  0  5G15G 2G13G19G 6
  22929988.8214   -3528122.89046  -2667109.69861
  20090546.853   -21747621.375 8 -16946118.76823
  22643136.235    -3493411.557 5  -2212161.54721
  21706249.657     3620010.393 6   2820777.70721
  20670534.095   -17270873.059 7 -13369033.58522
 91  3 26  0 41 59.9970000  0  5G15G 2G13G19G 6
  22925150.0714   -3553553.44546  -2686925.59861
  20088829.931   -21756645.099 8 -16953150.18523
  22631036.103    -3556992.533 5  -2261704.75021
  21711591.814     3648077.077 6   2842647.80221
  20663981.079   -17305305.923 7 -13395864.31322
 91  3 26  0 42 14.9970000  0  5G15G 2G13G19G 6
  22920329.4314   -3578880.87146  -2706661.13161
  20087121.056   -21765622.329 8 -16960145.38823
  22618945.415    -3620525.360 5  -2311210.43921
  21716943.4624    3676212.13146   2864571.16761
  20657436.399   -17339701.854 7 -13422666.25422
 91  3 26  0 42 29.9970000  0  5G15G 2G13G19G 6
  22915527.1104   -3604106.31046  -2726317.20161
  20085421.876   -21774554.700 8 -16967105.63223
  22606865.556    -3684011.357 5  -2360679.60421
  21722311.509     3704414.118 6   2886546.69121
  20650898.571   -17374062.315 7 -13449440.56622
 91  3 26  0 42 44.9970000  0  5G15G 2G13G19G 6
  22910751.1264   -3629220.67246  -2745886.70961
  20083731.509   -21783433.467 8 -16974024.10623
  22594793.7514   -3747441.18245  -2410105.05861
  21727690.673     3732692.014 6   2908581.36921
  20644368.4934  -17408377.86947 -13476179.87362
 91  3 26  0 42 59.9970000  0  5G15G 2G13G19G 6
  22905989.6184   -3654231.10746  -2765375.23761
  20082050.6184  -21792266.15248 -16980906.67463
  22582732.532    -3810821.794 5  -2459492.11621
  21733087.306     3761038.223 6   2930669.27121
  20637844.5874  -17442656.03247 -13502890.04662
 91  3 26  0 43 14.9970000  0  5G15G 2G13G19G 6
  22901250.196    -3679141.346 6  -2784785.69121
  20080377.478   -21801057.003 8 -16987756.64323
  22570679.7124   -3874157.27245  -2508844.02361
  21738492.267     3789448.572 6   2952807.15921
  20631327.3294  -17476900.56747 -13529574.00962
 91  3 26  0 43 29.9970000  0  5G15G 2G13G19G 6
  22896530.7904   -3703950.60246  -2804117.46261
  20078713.189   -21809805.746 8 -16994573.80123
  22558636.368    -3937446.855 5  -2558160.14421
  21743912.853     3817923.240 6   2974995.16521
  20624816.329   -17511111.007 7 -13556231.40922
 91  3 26  0 43 44.9970000  0  5G15G 2G13G19G 6
  22891830.0324   -3728649.03846  -2823362.86961
  20077058.009   -21818502.483 8 -17001350.43223
  22546602.4314   -4000680.06645  -2607432.37161
  21749343.337     3846472.163 6   2997241.02621
  20618316.103   -17545277.252 7 -13582854.38222
 91  3 26  0 43 59.9970000  0  5G15G 2G13G19G 6
  22887150.048    -3753242.004 6  -2842526.10721
  20075412.540   -21827152.970 8 -17008091.03223
  22534578.8604   -4063862.35045  -2656664.89561
  21754795.610     3875089.642 6   3019540.31221
  20611821.4154  -17579404.58847 -13609447.01662
 91  3 26  0 44 14.9970000  0  5G15G 2G13G19G 6
  22882489.7044   -3777725.90446  -2861604.34961
  20073775.173   -21835753.982 8 -17014793.07523
  22522567.485    -4126990.107 5  -2705854.93021
  21760248.735     3903778.701 6   3041895.38021
  20605335.540   -17613489.656 7 -13636006.72822
 91  3 26  0 44 29.9970000  0  5G15G 2G13G19G 6
  22877851.087    -3802106.496 6  -2880602.11221
  20072146.806   -21844311.394 8 -17021461.14723
  22510562.860    -4190069.109 5  -2755006.96521
  21765723.274     3932533.371 6   3064301.56221
  20598856.337   -17647538.232 7 -13662538.00922
 91  3 26  0 44 44.9970000  0  5G15G 2G13G19G 6
  22873231.564    -3826383.842 6  -2899519.40321
  20070525.876   -21852825.830 8 -17028095.72523
  22498567.423    -4253099.380 5  -2804121.07421
  21771204.4074    3961353.23446   3086758.55761
  20592383.095   -17681550.269 7 -13689040.81522
 91  3 26  0 44 59.9970000  0  5G15G 2G13G19G 6
  22868634.087    -3850550.200 6  -2918350.22921
  20068915.8454  -21861290.00048 -17034691.14363
  22486583.204    -4316073.186 5  -2853191.17121
  21776704.814     3990245.491 6   3109271.95321
  20585920.345   -17715518.310 7 -13715509.33522
 91  3 26  0 45 14.9970000  0  5G15G 2G13G19G 6
  22864053.556    -3874608.569 6  -2937096.91021
  20067313.9464  -21869707.05948 -17041249.85763
  22474609.907    -4378993.052 5  -2902219.20721
  21782214.1424    4019206.94346   3131839.25961
  20579463.587   -17749445.138 7 -13741945.74922
 91  3 26  0 45 29.9970000  0  5G15G 2G13G19G 6
  22859496.1894   -3898561.17146  -2955761.17461
  20065720.134   -21878079.502 8 -17047773.79423
  22462646.8924   -4441860.99545  -2951206.81361
  21787741.274     4048235.270 6   3154458.68721
  20573016.282   -17783333.037 7 -13768351.81923
 91  3 26  0 45 44.9970000  0  5G15G 2G13G19G 6
  22854957.8144   -3922407.12746  -2974342.34861
  20064136.0874  -21886407.04148 -17054262.74763
  22450692.501    -4504676.096 5  -3000153.22121
  21793275.806     4077330.931 6   3177130.58721
  20566574.962   -17817181.252 7 -13794726.97523
 91  3 26  0 45 59.9970000  0  5G15G 2G13G19G 6
  22850442.7824   -3946146.80646  -2992840.70061
  20062559.1494  -21894690.32748 -17060717.22163
  22438748.1494   -4567438.84345  -3049058.87261
  21798825.259     4106493.055 6   3199854.26821
  20560140.4314  -17850990.24247 -13821071.56363
 91  3 26  0 46 14.9970000  0  5G15G 2G13G19G 6
  22845940.2284   -3969776.99646  -3011253.74461
  20060991.8764  -21902926.14848 -17067134.70863
  22426816.774    -4630145.793 5  -3097921.02021
  21804387.564     4135724.629 6   3222632.06921
  20553715.4704  -17884756.55447 -13847382.88863
 91  3 26  0 46 29.9970000  0  5G15G 2G13G19G 6
  22841467.9784   -3993292.62646  -3029577.52661
  20059435.2824  -21911109.91848 -17073511.63663
  22414895.532    -4692791.744 5  -3146735.64121
  21809968.032     4165030.448 6   3245467.72121
  20547298.603   -17918475.255 7 -13873657.11223
 91  3 26  0 46 44.9970000  0  5G15G 2G13G19G 6
  22837013.165    -4016696.350 6  -3047814.11021
  20057887.1894  -21919244.68348 -17079850.37263
  22402984.314    -4755379.791 5  -3195505.17221
  21815553.962     4194407.384 6   3268358.78521
  20540890.165   -17952149.115 7 -13899896.40423
 91  3 26  0 46 59.9970000  0  5G15G 2G13G19G 6
  22832582.360    -4039989.540 6  -3065964.56621
  20056348.0794  -21927332.27048 -17086152.35063
  22391084.048    -4817910.744 5  -3244230.20221
  21821161.564     4223853.553 6   3291303.80221
  20534490.501   -17985779.617 7 -13926101.91223
 91  3 26  0 47 14.9970000  0  5G15G 2G13G19G 6
  22828172.759    -4063171.821 6  -3084028.60821
  20054818.4934  -21935372.60448 -17092417.50863
  22379194.829    -4880384.344 5  -3292910.54221
  21826772.9464    4253369.25346   3314302.99161
  20528100.032   -18019366.294 7 -13952273.27623
 91  3 26  0 47 29.9970000  0  5G15G 2G13G19G 6
  22823779.110    -4086250.328 6  -3102011.78321
  20053296.2434  -21943373.22248 -17098651.71663
  22367317.6574   -4942807.77545  -3341551.79761
  21832405.103     4282946.828 6   3337350.39721
  20521715.454   -18052916.344 7 -13978416.09023
 91  3 26  0 47 44.9970000  0  5G15G 2G13G19G 6
  22819408.5954   -4109216.41246  -3119907.34661
  20051783.1574  -21951325.79148 -17104848.48963
  22355449.1894   -5005172.17445  -3390147.04261
  21838045.5094    4312594.66046   3360452.54661
  20515339.524   -18086421.297 7 -14004523.77023
 91  3 26  0 47 59.9970000  0  5G15G 2G13G19G 6
  22815060.173    -4132067.677 6  -3137713.44321
  20050279.2124  -21959228.18148 -17111006.16063
  22343595.009    -5067474.915 5  -3438694.27521
  21843704.157     4342314.780 5   3383611.02621
  20508971.946   -18119878.667 7 -14030594.37023
 91  3 26  0 48 14.9970000  0  5G15G 2G13G19G 6
  22810734.0174   -4154808.08246  -3155433.18061
  20048783.7354  -21967084.49948 -17117127.92363
  22331750.3374   -5129719.85145  -3487196.46261
  21849370.1344    4372102.99546   3406822.56061
  20502613.923   -18153292.364 7 -14056630.94123
 91  3 26  0 48 29.9970000  0  5G15G 2G13G19G 6
  22806426.7744   -4177437.74146  -3173066.59461
  20047297.1264  -21974895.36548 -17123214.27863
  22319913.157    -5191907.135 5  -3535653.69821
  21855052.7514    4401958.69145   3430086.68461
  20496263.501   -18186662.600 7 -14082633.64523
 91  3 26  0 48 44.9970000  0  5G15G 2G13G19G 6
  22802140.329    -4199953.995 6  -3190611.65021
  20045819.8534  -21982658.42248 -17129263.37963
  22308091.321    -5254033.897 5  -3584063.82321
  21860744.196     4431884.375 6   3453405.34221
  20489922.3994  -18219986.57447 -14108600.31163
 91  3 26  0 48 59.9970000  0  5G15G 2G13G19G 6
  22797878.532    -4222360.121 6  -3208070.89321
  20044350.9234  -21990377.15348 -17135277.94163
  22296279.212    -5316102.925 5  -3632428.97321
  21866455.259     4461876.645 5   3476775.88821
  20483588.696   -18253267.432 7 -14134533.36123
 91  3 26  0 49 14.9970000  0  5G15G 2G13G19G 6
  22793633.689    -4244656.224 5  -3225444.38921
  20042890.9074  -21998051.84648 -17141258.18363
  22284480.993    -5378114.724 5  -3680749.50621
  21872170.392     4491934.896 6   3500197.84821
  20477264.321   -18286505.443 7 -14160433.03123
 91  3 26  0 49 29.9970000  0  5G15G 2G13G19G 6
  22789412.876    -4266841.478 6  -3242731.51321
  20041438.7594  -22005682.06748 -17147203.77863
  22272689.6574   -5440068.39045  -3729024.74461
  21877906.735     4522059.514 6   3523671.51921
  20470948.204   -18319699.775 7 -14186298.65923
 91  3 26  0 49 44.9970000  0  5G15G 2G13G19G 6
  22785209.5564   -4288924.10746  -3259938.65861
  20039993.6574  -22013276.77348 -17153121.70063
  22260908.884    -5501972.078 5  -3777261.04221
  21883648.8604    4552241.67046   3547190.01961
  20464636.642   -18352858.968 7 -14212136.91323
 91  3 26  0 49 59.9970000  0  5G15G 2G13G19G 6
  22781028.524    -4310893.095 6  -3277057.24621
  20038557.439   -22020824.717 8 -17159003.18823
  22249141.954    -5563814.516 6  -3825449.63721
  21889406.5484    4582492.55145   3570762.07561
  20458336.3534  -18385971.64747 -14237938.91863
 91  3 26  0 50 14.9970000  0  5G15G 2G13G19G 6
  22776872.6104   -4332750.34246  -3294088.77661
  20037128.8534  -22028328.46848 -17164850.23363
  22237384.3924   -5625597.62846  -3873591.99261
  21895173.9464    4612809.77846   3594385.82461
  20452043.181   -18419039.775 7 -14263706.21123
 91  3 26  0 50 29.9970000  0  5G15G 2G13G19G 6
  22772733.524    -4354493.845 6  -3311031.65721
  20035709.6344  -22035786.24048 -17170661.45463
  22225636.689    -5687319.247 6  -3921686.46021
  21900957.7744    4643195.15446   3618062.68461
  20445758.3374  -18452061.49847 -14289437.35463
 91  3 26  0 50 44.9970000  0  5G15G 2G13G19G 6
  22768616.4624   -4376130.83846  -3327891.53161
  20034297.8144  -22043205.26148 -17176442.47763
  22213902.6264   -5748986.28546  -3969738.37661
  21906749.806     4673641.183 6   3641786.78921
  20439483.259   -18485043.814 7 -14315137.78923
 91  3 26  0 50 59.9970000  0  5G15G 2G13G19G 6
  22764520.345    -4397645.058 5  -3344655.74321
  20032896.298   -22050570.121 8 -17182181.30323
  22202183.0644   -5810582.51746  -4017735.14461
  21912563.6184    4704163.44046   3665570.29961
  20433217.3064  -18517970.78547 -14340795.09962
 91  3 26  0 51 14.9970000  0  5G15G 2G13G19G 6
  22760450.298    -4419042.704 6  -3361329.12421
  20031503.5564  -22057887.07348 -17187882.79163
  22190471.618    -5872113.972 6  -4065681.43521
  21918378.720     4734755.560 6   3689408.26021
  20426961.2824  -18550848.42647 -14366413.97362
 91  3 26  0 51 29.9970000  0  5G15G 2G13G19G 6
  22756398.5794   -4440328.27546  -3377915.16661
  20030120.1734  -22065160.81048 -17193550.60863
  22178772.8214   -5933585.05146  -4113580.65461
  21924215.7824    4765412.75946   3713296.94161
  20420712.7354  -18583681.11447 -14391997.81862
 91  3 26  0 51 44.9970000  0  5G15G 2G13G19G 6
  22752372.368    -4461495.132 6  -3394408.72421
  20028745.0564  -22072385.13148 -17199179.92063
  22167090.1654   -5994989.06446  -4161427.64861
  21930060.4934    4796141.19546   3737241.11461
  20414474.399   -18616462.379 7 -14417541.57922
 91  3 26  0 51 59.9970000  0  5G15G 2G13G19G 6
  22748365.524    -4482546.186 6  -3410812.03121
  20027379.212   -22079563.208 8 -17204773.20123
  22155417.1184   -6056328.76646  -4209224.51461
  21935923.9154    4826937.72946   3761238.35061
  20408244.915   -18649195.139 7 -14443047.56222
 91  3 26  0 52 14.9970000  0  5G15G 2G13G19G 6
  22744381.696    -4503486.648 6  -3427129.17321
  20026021.3844  -22086700.42748 -17210334.63763
  22143754.1494   -6117609.33746  -4256975.31561
  21941792.532     4857797.039 6   3785284.51621
  20402024.884   -18681884.475 7 -14468519.68522
 91  3 26  0 52 29.9970000  0  5G15G 2G13G19G 6
  22740416.853    -4524317.181 6  -3443360.64921
  20024670.5324  -22093797.87548 -17215865.07963
  22132105.243    -6178831.389 6  -4304680.51821
  21947679.3844    4888717.91646   3809378.65861
  20395812.376   -18714531.057 7 -14493958.51022
 91  3 26  0 52 44.9970000  0  5G15G 2G13G19G 6
  22736472.985    -4545032.588 6  -3459502.42121
  20023328.4934  -22100850.76948 -17221360.80563
  22120468.0874   -6239989.69746  -4352336.05961
  21953575.853     4919704.939 6   3833524.32821
  20389608.8534  -18747129.95547 -14519360.18062
 91  3 26  0 52 59.9970000  0  5G15G 2G13G19G 6
  22732553.5094   -4565637.26946  -3475557.91861
  20021993.4234  -22107863.75248 -17226825.43763
  22108839.6034   -6301088.51746  -4399945.23361
  21959487.814     4950753.632 5   3857718.05921
  20383413.1964  -18779685.38247 -14544727.98162
 91  3 26  0 53 14.9970000  0  5G15G 2G13G19G 6
  22728652.399    -4586123.177 6  -3491520.85821
  20020667.6814  -22114829.21248 -17232253.04063
  22097227.1494   -6362119.44646  -4447501.51761
  21965404.1264    4981871.76946   3881965.90361
  20377228.665   -18812189.089 7 -14570055.46922
 91  3 26  0 53 29.9970000  0  5G15G 2G13G19G 6
  22724779.126    -4606494.931 6  -3507394.84821
  20019350.6344  -22121751.83548 -17237647.25163
  22085624.2904   -6423087.12146  -4495008.50961
  21971340.439     5013054.653 6   3906264.20421
  20371051.8604  -18844645.72447 -14595346.26462
 91  3 26  0 53 44.9970000  0  5G15G 2G13G19G 6
  22720924.3294   -4626751.25346  -3523178.89061
  20018041.634   -22128630.637 8 -17243007.31223
  22074033.4314   -6483990.19246  -4542465.16761
  21977284.806     5044303.066 6   3930613.56421
  20364885.439   -18877054.109 7 -14620599.47322
 91  3 26  0 53 59.9970000  0  5G15G 2G13G19G 6
  22717091.767    -4646889.770 6  -3538871.14021
  20016740.5794  -22135463.25348 -17248331.39263
  22062457.689    -6544825.910 6  -4589869.34921
  21983245.9074    5075619.34946   3955015.81061
  20358727.6494  -18909411.49247 -14645812.95362
 91  3 26  0 54 14.9970000  0  5G15G 2G13G19G 6
  22713280.368    -4666914.464 6  -3554474.68621
  20015448.1654  -22142254.46648 -17253623.20863
  22050892.798    -6605598.506 6  -4637224.32621
  21989216.4394    5106998.59146   3979467.10761
  20352580.3764  -18941722.35347 -14670990.18062
 91  3 26  0 54 29.9970000  0  5G15G 2G13G19G 6
  22709490.360    -4686822.477 6  -3569987.32121
  20014164.4464  -22149001.50748 -17258880.60363
  22039338.509    -6666305.132 6  -4684527.90621
  21995201.5794    5138443.49445   4003969.56361
  20346439.7744  -18973983.69347 -14696128.82162
 91  3 26  0 54 44.9970000  0  5G15G 2G13G19G 6
  22705726.118    -4706614.382 6  -3585409.48421
  20012889.743   -22155704.988 8 -17264104.04723
  22027801.0174   -6726945.79446  -4731780.10261
  22001195.8214    5169953.53946   4028522.77961
  20340310.8604  -19006195.68447 -14721228.99562
 91  3 26  0 54 59.9970000  0  5G15G 2G13G19G 6
  22701982.4154   -4726283.60746  -3600736.04961
  20011622.478   -22162358.757 8 -17269288.75823
  22016273.8994   -6787513.82946  -4778975.65961
  22007206.1574    5201534.62845   4053131.36061
  20334190.5874  -19038351.98847 -14746285.79262
 91  3 26  0 55 14.9970000  0  5G15G 2G13G19G 6
  22698264.384    -4745832.589 6  -3615968.91221
  20010366.1104  -22168965.70948 -17274436.99063
  22004761.7984   -6848011.92946  -4826116.77161
  22013228.6574    5233184.00646   4077793.15761
  20328082.189   -19070454.994 7 -14771301.04922
 91  3 26  0 55 29.9970000  0  5G15G 2G13G19G 6
  22694565.415    -4765265.439 6  -3631111.29321
  20009116.7354  -22175530.26448 -17279552.18663
  21993262.3844   -6908444.00646  -4873206.42461
  22019265.2984    5264897.37445   4102504.80561
  20321982.681   -19102508.906 7 -14796278.05222
 91  3 26  0 55 44.9970000  0  5G15G 2G13G19G 6
  22690889.8064   -4784584.68046  -3646165.14761
  20007875.6964  -22182055.07848 -17284636.41663
  21981774.3604   -6968812.28546  -4920246.34861
  22025309.0954    5296671.88746   4127264.09861
  20315890.478   -19134516.156 7 -14821218.68922
 91  3 26  0 55 59.9970000  0  5G15G 2G13G19G 6
  22687235.6424   -4803782.02546  -3661124.01161
  20006642.571   -22188532.096 8 -17289683.40023
  21970299.6344   -7029108.23646  -4967229.94161
  22031370.5874    5328515.62145   4152077.33561
  20309811.032   -19166468.333 7 -14846116.41222
 91  3 26  0 56 14.9970000  0  5G15G 2G13G19G 6
  22683605.071    -4822862.076 6  -3675991.48021
  20005418.556   -22194966.213 8 -17294696.95323
  21958838.649    -7089336.578 6  -5014160.83021
  22037439.2904    5360423.53145   4176940.58261
  20303740.1734  -19198370.04147 -14870974.82163
 91  3 26  0 56 29.9970000  0  5G15G 2G13G19G 6
  22679994.235    -4841820.461 6  -3690764.14321
  20004202.735   -22201353.427 8 -17299673.95923
  21947390.3294   -7149492.82946  -5061035.55561
  22043532.3144    5392399.65945   4201856.98061
  20297679.993   -19230216.905 7 -14895790.49022
 91  3 26  0 56 44.9970000  0  5G15G 2G13G19G 6
  22676411.3924   -4860664.42846  -3705447.65761
  20002994.735   -22207701.299 8 -17304620.30823
  21935955.798    -7209584.072 6  -5107859.61121
  22049622.5874    5424436.55145   4226820.72761
  20291628.946   -19262016.100 7 -14920569.00722
 91  3 26  0 56 59.9970000  0  5G15G 2G13G19G 6
  22672847.5244   -4879386.47846  -3720036.17761
  20001795.915   -22214002.669 8 -17309530.40723
  21924535.2284   -7269602.60546  -5154627.01561
  22055733.696     5456541.240 5   4251837.30621
  20285588.595   -19293760.177 7 -14945304.58022
 91  3 26  0 57 14.9970000  0  5G15G 2G13G19G 6
  22669308.454    -4897982.960 6  -3734526.84921
  20000605.548   -22220253.960 8 -17314401.50023
  21913127.9544   -7329544.70346  -5201334.85961
  22061855.4394    5488717.21046   4276909.43561
  20279557.626   -19325445.345 7 -14969994.24423
 91  3 26  0 57 29.9970000  0  5G15G 2G13G19G 6
  22665793.8144   -4916464.19246  -3748927.72061
  19999423.345   -22226465.818 8 -17319241.86423
  21901733.5244   -7389420.61146  -5247991.13261
  22067992.6184    5520953.59845   4302028.63661
  20273539.478   -19357082.010 7 -14994646.11622
 91  3 26  0 57 44.9970000  0  5G15G 2G13G19G 6
  22662296.524    -4934829.792 6  -3763238.49421
  19998249.267   -22232638.068 8 -17324051.35923
  21890351.306    -7449229.745 6  -5294595.36721
  22074136.235     5553250.601 5   4327195.07121
  20267526.962   -19388669.460 7 -15019259.63323
 91  3 26  0 57 59.9970000  0  5G15G 2G13G19G 6
  22658824.1104   -4953078.02646  -3777457.80061
  19997083.189   -22238769.048 8 -17328828.69623
  21878983.157    -7508969.881 6  -5341145.82821
  22080296.1814    5585609.87245   4352410.02861
  20261525.704   -19420205.935 7 -15043833.42822
 91  3 26  0 58 14.9970000  0  5G15G 2G13G19G 6
  22655373.8144   -4971205.23846  -3791582.82061
  19995923.884   -22244855.617 8 -17333571.43023
  21867629.790    -7568637.611 6  -5387639.89121
  22086465.5644    5618034.56745   4377675.97061
  20255535.704   -19451687.895 7 -15068364.75523
 91  3 26  0 58 29.9970000  0  5G15G 2G13G19G 6
  22651948.0644   -4989213.83846  -3805615.41861
  19994774.329   -22250900.500 8 -17338281.68123
  21856288.1034   -7628235.18546  -5434079.29161
  22092647.439     5650521.833 5   4402990.66221
  20249554.7124  -19483117.66147 -15092855.41263
 91  3 26  0 58 44.9970000  0  5G15G 2G13G19G 6
  22648544.2744   -5007104.33546  -3819555.98761
  19993631.462   -22256904.484 8 -17342960.06323
  21844960.321    -7687763.146 6  -5480464.43221
  22098838.0324    5683070.98545   4428353.57961
  20243583.6184  -19514495.82947 -15117305.86462
 91  3 26  0 58 59.9970000  0  5G15G 2G13G19G 6
  22645162.353    -5024866.505 6  -3833396.55921
  19992498.204   -22262857.464 8 -17347598.70523
  21833647.478    -7747211.067 6  -5526787.22221
  22105050.1184    5715691.98445   4453772.47961
  20237624.2984  -19545812.07047 -15141708.06663
 91  3 26  0 59 14.9970000  0  5G15G 2G13G19G 6
  22641804.782    -5042512.210 6  -3847146.38021
  19991372.314   -22268771.654 8 -17352207.12223
  21822347.0644   -7806590.63346  -5573056.73561
  22111265.8454    5748372.60645   4479237.84761
  20231674.103   -19577078.113 7 -15166071.14022
 91  3 26  0 59 29.9970000  0  5G15G 2G13G19G 6
  22638469.931    -5060034.201 6  -3860799.80621
  19990255.8294  -22274640.28248 -17356780.04363
  21811061.5644   -7865894.59646  -5619267.33861
  22117500.6344    5781119.54245   4504754.88361
  20225735.212   -19608286.833 7 -15190389.55323
 91  3 26  0 59 44.9970000  0  5G15G 2G13G19G 6
  22635160.251    -5077430.451 6  -3874355.25521
  19989148.3844  -22280461.32748 -17361315.87763
  21799790.556    -7925120.704 6  -5665417.30021
  22123741.3684    5813934.85745   4530325.19461
  20219808.274   -19639435.865 7 -15214661.45023
 91  3 26  0 59 59.9970000  0  5G15G 2G13G19G 6
  22631873.189    -5094702.543 6  -3887813.95221
  19988049.5244  -22286236.54948 -17365816.01564
  21788535.4234   -7984270.36546  -5711507.66261
  22130002.0874    5846816.92145   4555947.51661
  20213891.6034  -19670526.75547 -15238888.04963
 91  3 26  1  0 14.9970000  0  5G15G 2G13G19G 6
  22628610.478    -5111850.988 6  -3901176.30121
  19986958.1344  -22291966.82448 -17370281.12563
  21777293.9784   -8043344.04346  -5757538.83061
  22136267.6574    5879764.62845   4581620.99261
  20207985.173   -19701560.073 7 -15263069.78323
 91  3 26  1  0 29.9970000  0  5G15G 2G13G19G 6
  22625369.931    -5128873.198 6  -3914440.28621
  19985876.5874  -22297649.69248 -17374709.29863
  21766067.1734   -8102339.02046  -5803508.67261
  22142557.5174    5912780.14945   4607347.31761
  20202091.6494  -19732533.01847 -15287204.47263
 91  3 26  1  0 44.9970000  0  5G15G 2G13G19G 6
  22622155.251    -5145772.270 6  -3927608.31921
  19984803.2904  -22303288.51948 -17379103.15164
  21754854.907    -8161258.083 6  -5849419.36721
  22148845.4854    5945860.31545   4633124.00061
  20196208.5484  -19763448.72547 -15311294.56463
 91  3 26  1  0 59.9970000  0  5G15G 2G13G19G 6
  22618963.259    -5162549.179 6  -3940681.16521
  19983739.3144  -22308884.73248 -17383463.80763
  21743656.0244   -8220102.04846  -5895271.54361
  22155158.2284    5979003.49345   4658949.78661
  20190335.3214  -19794308.28647 -15335340.91363
 91  3 26  1  1 14.9970000  0  5G15G 2G13G19G 6
  22615794.5874   -5179200.93046  -3953656.48561
  19982682.4704  -22314435.34948 -17387788.92563
  21732474.6034   -8278867.82846  -5941062.78561
  22161472.5564    6012212.63045   4684826.97161
  20184475.7674  -19825108.38547 -15359340.92663
 91  3 26  1  1 29.9970000  0  5G15G 2G13G19G 6
  22612645.3994   -5195725.26846  -3966532.52461
  19981635.8994  -22319938.65748 -17392077.18163
  21721306.189    -8337553.061 6  -5986791.28621
  22167809.0324    6045489.31445   4710756.79561
  20178626.1344  -19855846.93947 -15383292.97863
 91  3 26  1  1 44.9970000  0  5G15G 2G13G19G 6
  22609530.134    -5212122.351 6  -3979309.39121
  19980597.1814  -22325394.70848 -17396328.61563
  21710154.5714   -8396157.73746  -6032456.99061
  22174151.9854    6078833.36745   4736739.11461
  20172787.8924  -19886523.76847 -15407196.93663
 91  3 26  1  1 59.9970000  0  5G15G 2G13G19G 6
  22606430.462    -5228392.660 6  -3991987.48021
  19979567.6894  -22330804.24048 -17400543.80263
  21699018.314    -8454682.151 6  -6078060.17821
  22180510.1424    6112244.08945   4762773.37061
  20166962.8604  -19917139.34547 -15431053.15763
 91  3 26  1  2 14.9970000  0  5G15G 2G13G19G 6
  22603361.853    -5244539.253 6  -4004569.16021
  19978546.9704  -22336170.65948 -17404725.39163
  21687893.571    -8513129.172 6  -6123603.05221
  22186880.4624    6145718.21845   4788857.05161
  20161146.5954  -19947696.56647 -15454863.91563
 91  3 26  1  2 29.9970000  0  5G15G 2G13G19G 6
  22600310.939    -5260558.685 6  -4017051.75121
  19977534.9934  -22341490.86548 -17408870.97163
  21676787.4854   -8571495.43846  -6169083.00061
  22193263.9934    6179258.79445   4814992.49661
  20155344.5014  -19978192.13947 -15478626.63663
 91  3 26  1  2 44.9970000  0  5G15G 2G13G19G 6
  22597287.806    -5276449.087 6  -4029433.81621
  19976531.1734  -22346763.19348 -17412979.24463
  21665696.376    -8629779.033 6  -6214498.51921
  22199658.7124    6212867.12945   4841180.75161
  20149552.5564  -20008624.18447 -15502339.85363
 91  3 26  1  2 59.9970000  0  5G15G 2G13G19G 6
  22594287.845    -5292212.343 6  -4041716.79121
  19975536.6734  -22351989.52148 -17417051.66363
  21654620.556    -8687981.546 6  -6259850.87621
  22206067.0794    6246541.20245   4867420.21661
  20143773.6034  -20038994.34147 -15526004.84463
 91  3 26  1  3 14.9970000  0  5G15G 2G13G19G 6
  22591314.6264   -5307844.37846  -4053897.51261
  19974550.8764  -22357166.16848 -17421085.37363
  21643562.0324   -8746098.62246  -6305136.64461
  22212486.7124    6280284.86745   4893713.92461
  20138006.1654  -20069298.33847 -15549618.29263
 91  3 26  1  3 29.9970000  0  5G15G 2G13G19G 6
  22588362.579    -5323349.706 6  -4065979.51321
  19973574.9314  -22362297.97348 -17425084.14663
  21632516.228    -8804134.895 6  -6350359.46121
  22218925.470     6314093.270 5   4920058.06021
  20132251.5794  -20099540.77047 -15573183.76063
 91  3 26  1  3 44.9970000  0  5G15G 2G13G19G 6
  22585436.126    -5338730.090 6  -4077964.14321
  19972606.3454  -22367386.73548 -17429049.37563
  21621488.618    -8862091.560 6  -6395520.24121
  22225364.345     6347964.441 5   4946451.11021
  20126508.6964  -20129723.08047 -15596702.38563
 91  3 26  1  3 59.9970000  0  5G15G 2G13G19G 6
  22582533.1964   -5353982.35746  -4089848.93561
  19971646.6104  -22372429.75348 -17432978.96463
  21610474.9154   -8919965.62846  -6440616.66961
  22231826.134     6381901.135 5   4972895.19821
  20120776.782   -20159842.199 7 -15620171.77523
 91  3 26  1  4 14.9970000  0  5G15G 2G13G19G 6
  22579654.3454   -5369107.47846  -4101634.65961
  19970695.8294  -22377428.00448 -17436873.67463
  21599477.2434   -8977757.90146  -6485649.36261
  22238292.298     6415902.216 5   4999389.47621
  20115057.2044  -20189899.00647 -15643592.60563
 91  3 26  1  4 29.9970000  0  5G15G 2G13G19G 6
  22576802.5244   -5384104.02946  -4113320.20061
  19969753.1814  -22382380.50648 -17440732.73263
  21588495.8534   -9035466.86246  -6530617.14661
  22244778.7284    6449968.70645   5025934.72761
  20109349.2984  -20219892.11447 -15666963.80563
 91  3 26  1  4 44.9970000  0  5G15G 2G13G19G 6
  22573972.5484   -5398974.11746  -4124907.19061
  19968819.4234  -22387289.58848 -17444557.96563
  21577529.470    -9093094.579 6  -6575521.61021
  22251272.0244    6484098.06745   5052528.96061
  20103652.8374  -20249823.49447 -15690286.89763
 91  3 26  1  4 59.9970000  0  5G15G 2G13G19G 6
  22571167.0324   -5413713.39946  -4136392.25061
  19967893.7434  -22392150.77948 -17448345.86963
  21566580.1814   -9150636.30846  -6620359.07461
  22257780.548     6518294.704 5   5079175.61921
  20097970.4074  -20279688.43147 -15713558.21463
 91  3 26  1  5 14.9970000  0  5G15G 2G13G19G 6
  22568386.1344   -5428325.74746  -4147778.39961
  19966977.5324  -22396968.43248 -17452099.85463
  21555644.571    -9208095.853 6  -6665132.49921
  22264296.665     6552554.147 5   5105871.21421
  20092299.134   -20309490.982 7 -15736780.92623
 91  3 26  1  5 29.9970000  0  5G15G 2G13G19G 6
  22565627.142    -5442813.536 6  -4159067.48821
  19966068.9854  -22401744.82248 -17455821.68063
  21544724.767    -9265475.340 6  -6709843.56521
  22270832.1264    6586874.05345   5132613.92461
  20086638.9154  -20339233.28647 -15759956.68663
 91  3 26  1  5 44.9970000  0  5G15G 2G13G19G 6
  22562896.7904   -5457172.17246  -4170255.93661
  19965168.0244  -22406475.89548 -17459508.19963
  21533823.0564   -9322770.05846  -6754488.55861
  22277370.384     6621258.501 5   5159406.93221
  20080991.665   -20368910.697 7 -15783081.88923
 91  3 26  1  5 59.9970000  0  5G15G 2G13G19G 6
  22560187.9544   -5471402.42146  -4181344.34661
  19964275.4544  -22411162.69548 -17463160.21963
  21522934.728    -9379980.736 6  -6799068.07521
  22283930.2824    6655706.40145   5186249.37961
  20075356.9854  -20398523.99047 -15806157.12263
 91  3 26  1  6 14.9970000  0  5G15G 2G13G19G 6
  22557504.0014   -5485509.83946  -4192337.03861
  19963391.4154  -22415810.94148 -17466782.19663
  21512063.9314   -9437112.65046  -6843586.21261
  22290493.8454    6690212.03445   5213136.82361
  20069732.3064  -20428078.47547 -15829186.53463
 91  3 26  1  6 29.9970000  0  5G15G 2G13G19G 6
  22554842.696    -5499492.318 6  -4203232.38221
  19962515.368   -22420418.677 8 -17470372.61223
  21501206.485    -9494163.770 6  -6888041.40421
  22297072.4394    6724777.15545   5240070.61561
  20064121.142   -20457571.992 7 -15852168.44323
 91  3 26  1  6 44.9970000  0  5G15G 2G13G19G 6
  22552205.493    -5513347.200 6  -4214028.29621
  19961646.407   -22424983.466 8 -17473929.56823
  21490365.868    -9551131.249 6  -6932431.41921
  22303660.228     6759404.105 5   5267052.58621
  20058519.915   -20487001.848 7 -15875100.74423
 91  3 26  1  6 59.9970000  0  5G15G 2G13G19G 6
  22549594.0644   -5527076.46946  -4224726.33061
  19960785.985   -22429507.481 8 -17477454.75423
  21479542.4154   -9608016.74546  -6976757.55361
  22310264.907     6794090.732 5   5294081.05121
  20052930.751   -20516369.694 7 -15897984.73623
 91  3 26  1  7 14.9970000  0  5G15G 2G13G19G 6
  22547004.0954   -5540683.27446  -4235328.93861
  19959931.782   -22433994.105 8 -17480950.79723
  21468731.2744   -9664823.61746  -7021022.41861
  22316873.5874    6828833.40245   5321153.19961
  20047353.571   -20545678.898 7 -15920823.01823
 91  3 26  1  7 29.9970000  0  5G15G 2G13G19G 6
  22544438.7284   -5554167.61746  -4245836.12061
  19959083.993   -22438443.756 8 -17484418.03523
  21457936.251    -9721551.524 6  -7065225.76621
  22323495.571     6863631.857 5   5348268.82121
  20041787.2984  -20574929.37747 -15943615.54063
 91  3 26  1  7 44.9970000  0  5G15G 2G13G19G 6
  22541898.415    -5567524.369 6  -4256243.87921
  19958245.923   -22442851.420 8 -17487852.55223
  21447155.829    -9778195.135 6  -7109363.42321
  22330128.3144    6898491.01545   5375431.73761
  20036233.149   -20604115.753 7 -15966358.11723
 91  3 26  1  7 59.9970000  0  5G15G 2G13G19G 6
  22539379.767    -5580753.288 6  -4266552.02421
  19957415.610   -22447216.806 8 -17491254.12423
  21436394.587    -9834753.853 6  -7153434.92821
  22336774.3844    6933411.00345   5402642.05061
  20030692.0244  -20633237.48747 -15989050.32163
 91  3 26  1  8 14.9970000  0  5G15G 2G13G19G 6
  22536886.368    -5593856.578 6  -4276762.28321
  19956591.3454  -22451542.42648 -17494624.71263
  21425645.931    -9891230.036 6  -7197442.12321
  22343429.407     6968389.270 5   5429897.77221
  20025161.7744  -20662296.79047 -16011693.87663
 91  3 26  1  8 29.9970000  0  5G15G 2G13G19G 6
  22534418.618    -5606827.206 6  -4286869.16221
  19955776.134   -22455821.240 8 -17497958.82823
  21414916.798    -9947616.233 6  -7241379.18521
  22350098.6734    7003432.63645   5457204.22161
  20019645.407   -20691286.464 7 -16034283.17923
 91  3 26  1  8 44.9970000  0  5G15G 2G13G19G 6
  22531972.7594   -5619669.86646  -4296876.34561
  19954971.595   -22460058.270 8 -17501260.38523
  21404203.306   -10003916.705 6  -7285249.47221
  22356778.134     7038536.166 5   5484557.54821
  20014141.9234  -20720210.94247 -16056821.67563
 91  3 26  1  8 59.9970000  0  5G15G 2G13G19G 6
  22529554.5174   -5632384.08146  -4306783.43061
  19954172.712   -22464253.327 8 -17504529.24023
  21393504.134   -10060131.019 6  -7329052.60821
  22363476.407     7073699.856 5   5511957.75421
  20008649.4784  -20749069.75947 -16079308.99963
 91  3 26  1  9 14.9970000  0  5G15G 2G13G19G 6
  22527156.8294   -5644975.48346  -4316594.82361
  19953382.282   -22468412.146 8 -17507769.85023
  21382823.4784  -10116264.77946  -7372792.97861
  22370169.6494    7108917.75545   5539400.21261
  20003169.0564  -20777868.56647 -16101749.56763
 91  3 26  1  9 29.9970000  0  5G15G 2G13G19G 6
  22524787.8374   -5657435.70946  -4326303.99361
  19952598.2044  -22472526.27748 -17510975.63363
  21372158.7124  -10172309.21446  -7416463.76061
  22376886.649     7144198.344 5   5566891.52121
  19997702.7284  -20806598.60547 -16124136.55163
 91  3 26  1  9 44.9970000  0  5G15G 2G13G19G 6
  22522437.1104   -5669771.05746  -4335915.86461
  19951822.4704  -22476602.38648 -17514151.79263
  21361509.3764  -10228270.68746  -7460069.90961
  22383607.8534    7179534.85245   5594426.39861
  19992246.6344  -20835266.22647 -16146474.89563
 91  3 26  1  9 59.9970000  0  5G15G 2G13G19G 6
  22520117.243    -5681980.255 6  -4345429.43021
  19951055.220   -22480639.486 8 -17517297.55923
  21350875.954   -10284147.811 6  -7503610.29421
  22390346.790     7214928.240 5   5622005.59021
  19986803.790   -20863869.958 7 -16168763.45623
 91  3 26  1 10 14.9970000  0  5G15G 2G13G19G 6
  22517816.4544   -5694062.26746  -4354843.88861
  19950294.118   -22484637.094 8 -17520412.55123
  21340258.642   -10339939.564 6  -7547084.19321
  22397090.7044    7250379.00145   5649629.49061
  19981373.2354  -20892409.02947 -16191001.64163
 91  3 26  1 10 29.9970000  0  5G15G 2G13G19G 6
  22515542.4464   -5706012.32446  -4364155.52961
  19949542.7204  -22488590.47748 -17523493.08263
  21329660.384   -10395640.776 6  -7590487.53321
  22403852.1814    7285891.68745   5677301.64861
  19975955.1184  -20920878.17747 -16213185.33163
 91  3 26  1 10 44.9970000  0  5G15G 2G13G19G 6
  22513292.360    -5717833.237 6  -4373366.53521
  19948798.2674  -22492502.23348 -17526541.17163
  21319075.915   -10451253.973 6  -7633822.28121
  22410617.642     7321463.542 5   5705019.91121
  19970550.6574  -20949280.03747 -16235316.59063
 91  3 26  1 10 59.9970000  0  5G15G 2G13G19G 6
  22511064.7434   -5729533.66346  -4382483.65261
  19948059.1964  -22496381.21948 -17529563.72663
  21308507.9784  -10506787.64746  -7677095.07061
  22417397.5874    7357085.50345   5732777.21961
  19965157.1344  -20977623.16147 -16257402.08163
 91  3 26  1 11 14.9970000  0  5G15G 2G13G19G 6
  22508862.7354   -5741109.58446  -4391503.75761
  19947329.3534  -22500223.82348 -17532557.93363
  21297956.884   -10562237.846 6  -7720302.81521
  22424184.001     7392761.130 5   5760576.33021
  19959775.2124  -21005903.59847 -16279438.72963
 91  3 26  1 11 29.9970000  0  5G15G 2G13G19G 6
  22506684.8534   -5752553.19046  -4400420.76161
  19946605.4074  -22504022.30348 -17535517.75963
  21287420.642   -10617596.611 6  -7763439.32421
  22430989.1264    7428498.04545   5788423.21461
  19954407.4934  -21034113.29447 -16301420.25263
 91  3 26  1 11 44.9970000  0  5G15G 2G13G19G 6
  22504530.9624   -5763870.43546  -4409239.30561
  19945889.4544  -22507782.69948 -17538447.90763
  21276903.626   -10672869.464 6  -7806508.87621
  22437795.2354    7464290.11245   5816313.06461
  19949051.017   -21062257.935 7 -16323351.08823
 91  3 26  1 11 59.9970000  0  5G15G 2G13G19G 6
  22502403.2044   -5775062.01746  -4417959.91961
  19945181.1494  -22511506.31448 -17541349.38963
  21266402.0564  -10728057.21946  -7849512.11161
  22444622.8214    7500136.32645   5844245.11261
  19943708.196   -21090338.335 7 -16345231.86623
 91  3 26  1 12 14.9970000  0  5G15G 2G13G19G 6
  22500296.7674   -5786129.02746  -4426583.47261
  19944479.3994  -22515194.28248 -17544223.10163
  21255915.9934  -10783160.75746  -7892449.74061
  22451450.571     7536035.202 5   5872218.20921
  19938376.665   -21118355.453 7 -16367063.33223
 91  3 26  1 12 29.9970000  0  5G15G 2G13G19G 6
  22498212.8844   -5797067.19846  -4435106.62661
  19943785.048   -22518842.332 8 -17547065.68823
  21245446.8294  -10838175.53346  -7935318.19661
  22458295.837     7571990.934 5   5900235.58521
  19933057.3924  -21146304.77847 -16388841.96663
 91  3 26  1 12 44.9970000  0  5G15G 2G13G19G 6
  22496157.5564   -5807878.64646  -4443531.03761
  19943097.8604  -22522452.62948 -17549878.87063
  21234994.040   -10893103.173 6  -7978118.76521
  22465143.634     7608001.227 5   5928295.48621
  19927751.6104  -21174188.01547 -16410569.10863
 91  3 26  1 12 59.9970000  0  5G15G 2G13G19G 6
  22494124.2354   -5818561.05246  -4451854.89161
  19942418.7284  -22526023.12248 -17552661.02463
  21224559.064   -10947941.633 6  -8020849.84321
  22472011.7594    7644067.89445   5956399.30661
  19922458.6574  -21202002.95447 -16432243.02463
 91  3 26  1 13 14.9970000  0  5G15G 2G13G19G 6
  22492116.1734   -5829110.07746  -4460074.81761
  19941747.595   -22529549.849 8 -17555409.08723
  21214141.353   -11002686.488 6  -8063507.96221
  22478882.306     7680195.102 5   5984550.30921
  19917179.4154  -21229745.28747 -16453860.36763
 91  3 26  1 13 29.9970000  0  5G15G 2G13G19G 6
  22490133.712    -5839529.700 6  -4468193.90821
  19941083.3764  -22533036.85948 -17558126.19563
  21203740.181   -11057341.220 6  -8106095.87421
  22485770.5714    7716378.73945   6012745.28661
  19911912.5324  -21257418.59147 -16475423.91863
 91  3 26  1 13 44.9970000  0  5G15G 2G13G19G 6
  22488175.446    -5849818.268 6  -4476210.87021
  19940427.376   -22536482.335 8 -17560810.93724
  21193356.6034  -11111903.87446  -8148612.02161
  22492663.142     7752620.300 5   6040985.38721
  19906661.4934  -21285020.95047 -16496932.18363
 91  3 26  1 13 59.9970000  0  5G15G 2G13G19G 6
  22486243.7044   -5859976.43346  -4484126.22861
  19939779.806   -22539887.124 8 -17563463.97224
  21182991.368   -11166375.124 6  -8191056.96321
  22499575.103     7788918.833 5   6069269.87821
  19901420.8214  -21312552.87147 -16518385.56863
 91  3 26  1 14 14.9970000  0  5G15G 2G13G19G 6
  22484335.2594   -5870005.52546  -4491941.01261
  19939139.118   -22543252.827 8 -17566086.55223
  21172641.759   -11220756.359 6  -8233431.75521
  22506491.7204    7825272.50645   6097597.34861
  19896195.3684  -21340015.75147 -16539785.14363
 91  3 26  1 14 29.9970000  0  5G15G 2G13G19G 6
  22482450.024    -5879898.673 6  -4499649.85721
  19938507.540   -22546573.065 8 -17568673.70224
  21162312.767   -11275040.486 6  -8275730.87721
  22513420.1734    7861687.87445   6125972.88961
  19890983.9544  -21367402.65747 -16561125.52263
 91  3 26  1 14 44.9970000  0  5G15G 2G13G19G 6
  22480593.767    -5889660.469 6  -4507256.34421
  19937884.032   -22549852.306 8 -17571228.90724
  21151999.821   -11329231.987 6  -8317957.83221
  22520358.899     7898160.171 5   6154392.79221
  19885785.6034  -21394717.88347 -16582410.05163
 91  3 26  1 14 59.9970000  0  5G15G 2G13G19G 6
  22478763.392    -5899291.996 6  -4514761.32221
  19937266.689   -22553091.632 8 -17573753.00523
  21141705.431   -11383331.418 6  -8360113.03021
  22527313.439     7934688.303 5   6182856.21421
  19880601.3144  -21421962.28047 -16603639.37963
 91  3 26  1 15 14.9970000  0  5G15G 2G13G19G 6
  22476954.532    -5908789.769 6  -4522162.07821
  19936658.478   -22556288.127 8 -17576243.73323
  21131428.657   -11437335.422 6  -8402193.88821
  22534271.439     7971275.145 5   6211365.37421
  19875431.0324  -21449132.41447 -16624810.84763
 91  3 26  1 15 29.9970000  0  5G15G 2G13G19G 6
  22475172.1814   -5918160.84246  -4529464.10761
  19936057.157   -22559448.913 8 -17578706.63123
  21121167.9704  -11491250.59646  -8444205.51561
  22541249.946     8007913.529 5   6239914.69621
  19870273.696   -21476235.055 7 -16645929.71723
 91  3 26  1 15 44.9970000  0  5G15G 2G13G19G 6
  22473413.251    -5927401.669 6  -4536664.65321
  19935463.485   -22562570.086 8 -17581138.66323
  21110926.7744  -11545073.08946  -8486144.93061
  22548228.048     8044606.824 5   6268506.80021
  19865129.4784  -21503266.24447 -16666992.91863
 91  3 26  1 15 59.9970000  0  5G15G 2G13G19G 6
  22471678.3994   -5936516.81146  -4543767.25761
  19934875.103   -22565656.516 8 -17583543.62423
  21100699.376   -11598807.490 6  -8528015.70721
  22555229.0714    8081350.04245   6297137.81061
  19859999.009   -21530230.597 7 -16688004.02223
 91  3 26  1 16 14.9970000  0  5G15G 2G13G19G 6
  22469963.892    -5945501.973 6  -4550768.58221
  19934296.001   -22568704.065 8 -17585918.28723
  21090492.829   -11652449.175 6  -8569814.22621
  22562221.6574    8118147.66945   6325811.21261
  19854880.1964  -21557123.40847 -16708959.38963
 91  3 26  1 16 29.9960000  0  5G15G 2G13G19G 6
  22468282.582    -5954343.516 6  -4557657.99121
  19933726.207   -22571699.754 8 -17588252.53623
  21080305.934   -11705981.539 6  -8611527.56021
  22569240.9494    8155009.94045   6354535.00161
  19849779.613   -21583929.971 7 -16729847.54423
 91  3 26  1 16 44.9960000  0  5G15G 2G13G19G 6
  22466628.0514   -5963053.10546  -4564444.57461
  19933163.059   -22574654.664 8 -17590555.00823
  21070136.8324  -11759422.03646  -8653169.31861
  22576261.090     8191930.767 5   6383304.39821
  19844692.949   -21610664.124 7 -16750679.28023
 91  3 26  1 16 59.9960000  0  5G15G 2G13G19G 6
  22464995.941    -5971630.748 6  -4571128.36321
  19932607.809   -22577569.605 8 -17592826.33724
  21059985.340   -11812767.813 6  -8694737.26921
  22583300.965     8228906.554 5   6412116.61921
  19839618.8954  -21637324.76547 -16771453.73963
 91  3 26  1 17 14.9960000  0  5G15G 2G13G19G 6
  22463384.863    -5980077.565 6  -4577710.18821
  19932061.723   -22580445.393 8 -17595067.15723
  21049851.652   -11866019.410 6  -8736231.82921
  22590346.2774    8265936.26745   6440970.88161
  19834558.332   -21663912.534 7 -16792171.40123
 91  3 26  1 17 29.9960000  0  5G15G 2G13G19G 6
  22461806.4494   -5988391.55446  -4584188.52561
  19931521.777   -22583279.857 8 -17597275.77723
  21039735.824   -11919174.213 6  -8777650.96521
  22597401.215     8303022.081 5   6469868.84621
  19829514.441   -21690425.047 7 -16812830.43023
 91  3 26  1 17 44.9960000  0  5G15G 2G13G19G 6
  22460245.3404   -5996573.47646  -4590563.95661
  19930990.559   -22586074.641 8 -17599453.47723
  21029639.715   -11972233.317 6  -8818995.53421
  22604472.2774    8340162.32845   6498809.23261
  19824482.895   -21716863.229 7 -16833431.53823
 91  3 26  1 17 59.9960000  0  5G15G 2G13G19G 6
  22458717.629    -6004620.390 6  -4596834.17921
  19930466.8794  -22588826.85848 -17601598.00663
  21019560.074   -12025193.666 6  -8860263.14921
  22611554.856     8377359.787 4   6527794.17921
  19819466.629   -21743224.124 7 -16853972.42123
 91  3 26  1 18 14.9960000  0  5G15G 2G13G19G 6
  22457210.4414   -6012531.11246  -4602998.28861
  19929950.262   -22591534.984 8 -17603708.18023
  21009502.340   -12078053.562 6  -8901452.48521
  22618639.6064    8414615.79245   6556824.76461
  19814464.918   -21769506.009 7 -16874451.74423
 91  3 26  1 18 29.9960000  0  5G15G 2G13G19G 6
  22455730.7154   -6020308.18046  -4609058.23961
  19929444.363   -22594201.772 8 -17605786.14723
  20999462.0354  -12130815.53546  -8942565.51961
  22625743.723     8451927.452 5   6585898.70021
  19809478.707   -21795711.280 7 -16894871.36123
 91  3 26  1 18 44.9960000  0  5G15G 2G13G19G 6
  22454278.3794   -6027954.84146  -4615016.58661
  19928942.449   -22596830.594 8 -17607834.52623
  20989438.004   -12183482.718 6  -8983604.70321
  22632850.004     8489291.250 5   6615013.27821
  19804506.129   -21821843.002 7 -16915233.66723
 91  3 26  1 18 59.9960000  0  5G15G 2G13G19G 6
  22452847.3874   -6035469.01446  -4620871.69961
  19928450.379   -22599419.742 8 -17609851.98823
  20979434.824   -12236052.904 6  -9024568.28521
  22639970.137     8526708.821 5   6644169.75221
  19799546.5124  -21847899.09147 -16935537.04563
 91  3 26  1 19 14.9960000  0  5G15G 2G13G19G 6
  22451439.7774   -6042854.69446  -4626626.68861
  19927963.746   -22601973.117 8 -17611841.57923
  20969448.973   -12288529.922 6  -9065459.27821
  22647101.9884    8564176.11945   6673364.98561
  19794603.332   -21873883.322 7 -16955784.42223
 91  3 26  1 19 29.9960000  0  5G15G 2G13G19G 6
  22450058.887    -6050107.088 6  -4632277.81621
  19927486.168   -22604486.194 8 -17613799.76823
  20959482.512   -12340908.576 6  -9106273.62621
  22654241.223     8601697.527 5   6702602.36421
  19789672.4734  -21899790.71847 -16975971.93463
 91  3 26  1 19 44.9960000  0  5G15G 2G13G19G 6
  22448705.5124   -6057226.63246  -4637825.43661
  19927016.535   -22606959.325 8 -17615726.83223
  20949533.5594  -12393189.22546  -9147011.60361
  22661389.7544    8639272.37645   6731881.40861
  19784757.2704  -21925621.43247 -16996099.69163
 91  3 26  1 19 59.9960000  0  5G15G 2G13G19G 6
  22447374.801    -6064215.828 6  -4643271.47221
  19926553.098   -22609395.213 8 -17617624.87523
  20939601.426   -12445374.354 6  -9187675.15021
  22668552.777     8676897.999 4   6761200.00621
  19779855.5044  -21951377.92547 -17016169.61663
 91  3 26  1 20 14.9960000  0  5G15G 2G13G19G 6
  22446072.340    -6071071.796 6  -4648613.70621
  19926095.684   -22611791.006 8 -17619491.67623
  20929690.949   -12497460.575 6  -9228261.62721
  22675720.801     8714577.305 5   6790560.43421
  19774969.0124  -21977056.85047 -17036179.10163
 91  3 26  1 20 29.9960000  0  5G15G 2G13G19G 6
  22444793.316    -6077799.314 6  -4653855.84721
  19925646.488   -22614151.666 8 -17621331.10324
  20919797.051   -12549452.337 6  -9268774.49421
  22682902.2314    8752305.22544   6819958.74761
  19770095.8014  -22002662.85947 -17056131.76463
 91  3 26  1 20 44.9960000  0  5G15G 2G13G19G 6
  22443536.8564   -6084391.52046  -4658992.54761
  19925205.574   -22616470.375 8 -17623137.83923
  20909922.441   -12601342.608 6  -9309208.28021
  22690087.3954    8790088.29244   6849400.01461
  19765238.0664  -22028188.84647 -17076022.07463
 91  3 26  1 20 59.9960000  0  5G15G 2G13G19G 6
  22442305.481    -6090854.602 6  -4664028.63221
  19924771.637   -22618753.383 8 -17624916.75523
  20900066.504   -12653137.625 6  -9349567.84821
  22697293.4814    8827920.19844   6878879.33161
  19760395.7154  -22053640.70447 -17095854.62163
 91  3 26  1 21 14.9960000  0  5G15G 2G13G19G 6
  22441100.1524   -6097187.73646  -4668963.44261
  19924344.004   -22621000.192 8 -17626667.47123
  20890227.4184  -12704836.37746  -9389852.40761
  22704496.902     8865801.308 5   6908397.00321
  19755566.2234  -22079017.74447 -17115628.86663
 91  3 26  1 21 29.9960000  0  5G15G 2G13G19G 6
  22439921.3714   -6103390.93646  -4673797.02161
  19923923.027   -22623210.803 8 -17628389.97623
  20880408.0824  -12756438.59146  -9430061.73361
  22711721.9814    8903731.35744   6937952.82561
  19750751.0984  -22104319.71447 -17135344.62263
 91  3 26  1 21 44.9960000  0  5G15G 2G13G19G 6
  22438764.676    -6109460.215 6  -4678526.24021
  19923510.129   -22625381.207 8 -17630081.15423
  20870607.7934  -12807940.27146  -9470192.72461
  22718944.6454    8941714.22244   6967549.80261
  19745952.4884  -22129542.39447 -17154998.59563
 91  3 26  1 21 59.9960000  0  5G15G 2G13G19G 6
  22437636.7154   -6115393.08346  -4683149.16261
  19923105.0124  -22627509.19548 -17631739.28763
  20860826.6454  -12859338.46446  -9510243.08661
  22726187.2774    8979752.16044   6997189.68161
  19741167.0434  -22154683.14447 -17174588.72363
 91  3 26  1 22 14.9960000  0  5G15G 2G13G19G 6
  22436534.4814   -6121196.59846  -4687671.28661
  19922706.496   -22629602.017 8 -17633370.01223
  20851064.8954  -12910640.26646  -9550218.32561
  22733430.3954    9017837.74944   7026866.69961
  19736397.8484  -22179748.92947 -17194120.44263
 91  3 26  1 22 29.9960000  0  5G15G 2G13G19G 6
  22435449.691    -6126872.923 6  -4692094.30321
  19922315.0434  -22631661.97548 -17634975.13363
  20841319.0594  -12961847.46246  -9590119.85661
  22740687.7314    9055968.63444   7056579.00961
  19731641.1604  -22204741.50047 -17213595.10763
 91  3 26  1 22 44.9960000  0  5G15G 2G13G19G 6
  22434396.1134   -6132415.09346  -4696412.79661
  19921930.293   -22633681.926 8 -17636549.08323
  20831594.0514  -13012952.88346  -9629942.08361
  22747950.520     9094151.554 4   7086331.85621
  19726901.2544  -22229653.77847 -17233007.21563
 91  3 26  1 22 59.9960000  0  5G15G 2G13G19G 6
  22433371.4654   -6137821.38046  -4700625.38561
  19921553.207   -22635660.454 8 -17638090.74223
  20821888.5044  -13063954.86947  -9669683.70461
  22755232.840     9132387.868 4   7116126.30221
  19722177.3564  -22254483.86647 -17252355.26563
 91  3 26  1 23 14.9960000  0  5G15G 2G13G19G 6
  22432364.1604   -6143093.78246  -4704733.66761
  19921184.2934  -22637599.53348 -17639601.67463
  20812203.8094  -13114854.96847  -9709345.94561
  22762514.910     9170675.450 4   7145960.69721
  19717466.0904  -22279233.51647 -17271640.65163
 91  3 26  1 23 29.9960000  0  5G15G 2G13G19G 6
  22431385.3244   -6148232.79746  -4708738.00361
  19920822.707   -22639499.592 8 -17641082.19423
  20802535.4024  -13165653.68946  -9748929.18561
  22769812.8874    9209013.74444   7175834.62761
  19712772.1994  -22303902.97147 -17290863.53663
 91  3 26  1 23 44.9960000  0  5G15G 2G13G19G 6
  22430431.6844   -6153245.99246  -4712644.29361
  19920468.191   -22641368.284 8 -17642538.27523
  20792887.0904  -13216358.18047  -9788438.99561
  22777115.1524    9247395.03844   7205742.05161
  19708091.0664  -22328499.42647 -17310029.54663
 91  3 26  1 23 59.9960000  0  5G15G 2G13G19G 6
  22429502.0514   -6158130.42646  -4716450.25261
  19920117.231   -22643202.826 8 -17643967.74623
  20783255.387   -13266965.392 7  -9827873.01121
  22784428.5204    9285822.01144   7235685.09161
  19703424.9184  -22353019.83147 -17329136.29463
 91  3 26  1 24 14.9960000  0  5G15G 2G13G19G 6
  22428597.0124   -6162879.55046  -4720150.78161
  19919776.8874  -22644996.83948 -17645365.63463
  20773645.1844  -13317468.79647  -9867226.13661
  22791744.8714    9324300.76444   7265668.46761
  19698775.0434  -22377457.62147 -17348178.66563
 91  3 26  1 24 29.9960000  0  5G15G 2G13G19G 6
  22427724.7704   -6167493.75146  -4723746.17061
  19919442.426   -22646750.956 8 -17646732.43523
  20764056.6214  -13367868.22147  -9906498.23461
  22799083.6134    9362830.69344   7295691.69461
  19694139.0744  -22401812.97947 -17367156.80963
 91  3 26  1 24 44.9960000  0  5G15G 2G13G19G 6
  22426870.7464   -6171971.17946  -4727234.98561
  19919116.363   -22648463.270 8 -17648066.66223
  20754483.738   -13418161.555 7  -9945687.67321
  22806420.8094    9401413.52945   7325756.14461
  19689521.5434  -22426083.65547 -17386068.96163
 91  3 26  1 24 59.9960000  0  5G15G 2G13G19G 6
  22426042.254    -6176318.630 6  -4730622.50821
  19918797.926   -22650140.509 8 -17649373.55523
  20744933.2934  -13468355.38547  -9984799.57061
  22813776.535     9440042.457 4   7355856.53621
  19684917.6764  -22450276.23247 -17404920.26063
 91  3 26  1 25 14.9960000  0  5G15G 2G13G19G 6
  22425238.9654   -6180535.05246  -4733907.94361
  19918485.9414  -22651781.59548 -17650652.28663
  20735400.113   -13518448.545 6 -10023833.03621
  22821134.106     9478718.256 4   7385993.45921
  19680328.9654  -22474389.39547 -17423709.67663
 91  3 26  1 25 29.9960000  0  5G15G 2G13G19G 6
  22424464.5124   -6184611.84246  -4737084.55761
  19918180.988   -22653378.059 8 -17651896.23924
  20725888.848   -13568432.300 7 -10062781.24121
  22828507.520     9517449.159 4   7416173.30421
  19675757.856   -22498414.407 7 -17442430.41123
 91  3 26  1 25 44.9960000  0  5G15G 2G13G19G 6
  22423711.3164   -6188549.72446  -4740152.94261
  19917886.5514  -22654930.91448 -17653106.22063
  20716397.356   -13618307.412 7 -10101644.80321
  22835884.215     9556234.357 5   7446395.46521
  19671201.4184  -22522351.77947 -17461082.85363
 91  3 26  1 25 59.9960000  0  5G15G 2G13G19G 6
  22422992.535    -6192353.186 6  -4743116.58521
  19917597.238   -22656444.724 8 -17654285.76923
  20706925.934   -13668077.952 7 -10140426.87121
  22843274.9024    9595069.03944   7476656.20361
  19666662.363   -22546205.792 7 -17479670.34123
 91  3 26  1 26 14.9960000  0  5G15G 2G13G19G 6
  22422291.832    -6196014.519 6  -4745969.45421
  19917319.707   -22657911.495 8 -17655428.66424
  20697476.066   -13717735.656 7 -10179121.01921
  22850676.1294    9633961.05244   7506961.60361
  19662140.027   -22569968.207 7 -17498186.45823
 91  3 26  1 26 29.9960000  0  5G15G 2G13G19G 6
  22421623.5824   -6199538.25946  -4748715.14061
  19917047.504   -22659336.183 8 -17656538.76723
  20688047.824   -13767285.213 7 -10217730.89021
  22858091.0124    9672905.20644   7537307.61461
  19657635.4814  -22593643.63047 -17516634.77963
 91  3 26  1 26 44.9960000  0  5G15G 2G13G19G 6
  22420982.5904   -6202918.82646  -4751349.25661
  19916786.152   -22660713.059 8 -17657611.61423
  20678640.582   -13816720.676 7 -10256251.87621
  22865506.387     9711906.977 4   7567698.57121
  19653146.801   -22617226.240 7 -17535010.78623
 91  3 26  1 26 59.9960000  0  5G15G 2G13G19G 6
  22420361.5824   -6206159.39346  -4753874.28161
  19916532.934   -22662045.424 8 -17658649.77624
  20669254.824   -13866045.231 7 -10294686.42721
  22872942.8484    9750962.98044   7598131.74261
  19648677.3094  -22640718.99747 -17553316.77263
 91  3 26  1 27 14.9960000  0  5G15G 2G13G19G 6
  22419768.2544   -6209266.35246  -4756295.20261
  19916285.684   -22663339.605 8 -17659658.18423
  20659887.879   -13915264.899 7 -10333039.24821
  22880380.481     9790066.691 4   7628602.09621
  19644222.4344  -22664128.04247 -17571557.52963
 91  3 26  1 27 29.9960000  0  5G15G 2G13G19G 6
  22419202.027    -6212234.321 6  -4758607.81821
  19916048.973   -22664590.172 8 -17660632.61024
  20650541.363   -13964374.060 7 -10371305.96821
  22887835.0824    9829223.38444   7659113.73861
  19639783.9414  -22687447.59547 -17589728.55363
 91  3 26  1 27 44.9960000  0  5G15G 2G13G19G 6
  22418666.3244   -6215065.63646  -4760813.94961
  19915817.363   -22665799.902 8 -17661575.21224
  20641217.895   -14013374.847 7 -10409488.23121
  22895292.012     9868430.423 4   7689664.61221
  19635363.9574  -22710680.03647 -17607831.69663
 91  3 26  1 27 59.9960000  0  5G15G 2G13G19G 6
  22418153.137    -6217762.292 6  -4762915.15921
  19915593.981   -22666970.546 8 -17662487.35723
  20631912.4494  -14062268.92547 -10447587.35961
  22902764.9104    9907685.90544   7720253.23561
  19630959.754   -22733826.765 7 -17625868.05523
 91  3 26  1 28 14.9960000  0  5G15G 2G13G19G 6
  22417662.363    -6220320.835 6  -4764908.73721
  19915379.5434  -22668098.78548 -17663366.46264
  20622629.676   -14111052.783 7 -10485600.59321
  22910242.512     9946992.789 4   7750881.90421
  19626571.731   -22756884.260 7 -17643834.88123
 91  3 26  1 28 29.9960000  0  5G15G 2G13G19G 6
  22417205.270    -6222742.583 6  -4766795.72921
  19915174.6374  -22669186.06648 -17664213.65564
  20613366.9574  -14159727.54847 -10523528.82161
  22917740.520     9986349.511 4   7781549.41721
  19622200.0044  -22779853.72247 -17661733.10063
 91  3 26  1 28 44.9960000  0  5G15G 2G13G19G 6
  22416769.356    -6225035.961 6  -4768582.69721
  19914970.7704  -22670240.86548 -17665035.53864
  20604123.9024  -14208301.44847 -10561378.45961
  22925230.9654   10025747.40544   7812249.00761
  19617844.4264  -22802743.14847 -17679568.96063
 91  3 26  1 28 59.9960000  0  5G15G 2G13G19G 6
  22416362.0044   -6227194.40746  -4770264.52161
  19914778.785   -22671256.635 8 -17665827.00224
  20594901.6294  -14256767.55547 -10599144.10561
  22932736.0514   10065192.85544   7842985.65561
  19613505.8874  -22825545.83547 -17697337.23063
 91  3 26  1 29 14.9960000  0  5G15G 2G13G19G 6
  22415974.731    -6229217.477 6  -4771840.86921
  19914594.012   -22672232.974 8 -17666587.74224
  20585698.887   -14305125.405 7 -10636825.38321
  22940250.0904   10104686.08744   7873759.55361
  19609183.348   -22848261.198 7 -17715037.45723
 91  3 26  1 29 29.9960000  0  5G15G 2G13G19G 6
  22415614.7774   -6231107.16646  -4773313.25961
  19914413.465   -22673172.255 8 -17667319.60724
  20576516.137   -14353376.974 7 -10674423.86521
  22947778.9344   10144224.58744   7904568.69261
  19604876.840   -22870891.142 7 -17732671.12723
 91  3 26  1 29 44.9960000  0  5G15G 2G13G19G 6
  22415282.4414   -6232859.84146  -4774678.91461
  19914241.6684  -22674070.59948 -17668019.57464
  20567355.4734  -14401518.24347 -10711936.38561
  22955307.504    10183812.090 4   7935416.04121
  19600587.863   -22893431.459 7 -17750234.95223
 91  3 26  1 29 59.9960000  0  5G15G 2G13G19G 6
  22414971.926    -6234480.006 6  -4775941.30621
  19914079.238   -22674932.510 8 -17668691.15224
  20558215.4024  -14449553.69647 -10749366.45561
  22962850.5984   10223443.93444   7966297.94561
  19596315.309   -22915886.538 7 -17767732.36423
 91  3 26  1 30 14.9960000  0  5G15G 2G13G19G 6
  22414691.098    -6235962.923 6  -4777096.75421
  19913924.1294  -22675753.25248 -17669330.64664
  20549094.7154  -14497477.94147 -10786709.87161
  22970400.5744   10263124.70444   7997217.95561
  19592058.2314  -22938251.33847 -17785159.42363
 91  3 26  1 30 29.9960000  0  5G15G 2G13G19G 6
  22414435.9414   -6237308.32746  -4778145.05561
  19913774.324   -22676532.448 8 -17669937.77024
  20539996.4184  -14545290.56547 -10823966.31461
  22977966.090    10302854.452 4   8028176.12621
  19587819.856   -22960525.523 7 -17802515.88123
 91  3 26  1 30 44.9960000  0  5G15G 2G13G19G 6
  22414199.238    -6238520.725 6  -4779089.71121
  19913634.809   -22677274.913 8 -17670516.26623
  20530918.0514  -14592995.92647 -10861139.17261
  22985529.574    10342628.410 4   8059168.73821
  19583598.066   -22982713.030 7 -17819804.78623
 91  3 26  1 30 59.9960000  0  5G15G 2G13G19G 6
  22413999.004    -6239594.978 6  -4779926.72321
  19913500.051   -22677975.328 8 -17671061.99823
  20521861.0904  -14640588.71947 -10898224.31161
  22993112.238    10382451.629 4   8090199.75821
  19579392.762   -23004808.644 7 -17837022.09523
 91  3 26  1 31 14.9960000  0  5G15G 2G13G19G 6
  22413819.7384   -6240539.26446  -4780662.46261
  19913373.590   -22678641.924 8 -17671581.37423
  20512823.5434  -14688076.78147 -10935227.85261
  23000693.5984   10422315.94344   8121262.78561
  19575204.090   -23026820.254 7 -17854173.94423
 91  3 26  1 31 29.9960000  0  5G15G 2G13G19G 6
  22413668.1374   -6241349.01346  -4781293.36361
  19913251.449   -22679270.240 8 -17672070.92223
  20503808.8164  -14735455.32647 -10972146.04361
  23008289.840    10462225.633 4   8152361.16421
  19571030.887   -23048743.002 7 -17871256.55323
 91  3 26  1 31 44.9960000  0  5G15G 2G13G19G 6
  22413540.8794   -6242021.91646
  19913139.652   -22679858.035 8
  20494813.6064  -14782721.85147 -11008976.95461
  23015895.191    10502182.613 4   8183496.40321
  19566877.8324  -23070574.22347 -17888267.83563
 91  3 26  1 31 59.9960000  0  5G15G 2G13G19G 6
  22413437.3324   -6242561.52946
  19913036.449   -22680408.797 8
  20485839.3634  -14829879.79047 -11045723.25161
  23023509.059    10542183.367 4   8214665.76021
  19562740.5514  -23092317.44047 -17905210.54763
 91  3 26  1 32 14.9960000  0  5G15G 2G13G19G 6
  22413356.746    -6242966.972 6  -4782553.91921
  19912940.723   -22680921.814 8 -17673357.72223
  20476886.551   -14876928.084 7 -11082384.11721
  23031123.918    10582228.358 4   8245869.57021
  19558619.863   -23113971.570 7 -17922083.83623
 91  3 26  1 32 29.9960000  0  5G15G 2G13G19G 6
  22413306.699    -6243240.851 6  -4782767.24921
  19912847.215   -22681399.479 8 -17673729.87323
  20467953.6684  -14923868.81547 -11118961.15161
  23038755.879    10622314.995 4   8277105.82721
  19554514.5274  -23135538.57247 -17938889.23663
 91  3 26  1 32 44.9960000  0  5G15G 2G13G19G 6
  22413275.1524   -6243377.27746
  19912765.363   -22681836.110 8 -17674070.05523
  20459042.7154  -14970696.26447 -11155449.92861
  23046390.848    10662448.775 4   8308378.81021
  19550429.4184  -23157012.64647 -17955622.22563
 91  3 26  1 32 59.9960000  0  5G15G 2G13G19G 6
  22413276.4884   -6243382.47546
  19912689.699   -22682237.928 8 -17674383.10623
  20450151.3324  -15017416.27247 -11191854.97761
  23054038.9024   10702623.43543   8339683.66761
  19546358.809   -23178399.795 7 -17972287.47623
 91  3 26  1 33 14.9960000  0  5G15G 2G13G19G 6
  22413305.2624   -6243248.30146
  19912619.426   -22682596.706 8 -17674662.62323
  20441283.824   -15064020.480 7 -11228169.79921
  23061688.816    10742846.929 4   8371026.57321
  19542306.4654  -23199691.39847 -17988878.27863
 91  3 26  1 33 29.9960000  0  5G15G 2G13G19G 6
  22413351.0204   -6242979.64146
  19912558.738   -22682917.424 8 -17674912.49123
  20432435.9494  -15110513.51847 -11264397.99461
  23069353.9964   10783114.21043   8402403.58161
  19538273.0824  -23220892.27547 -18005398.38263
 91  3 26  1 33 44.9960000  0  5G15G 2G13G19G 6
  22413431.715    -6242572.613 6  -4782246.18521
  19912506.879   -22683196.010 8 -17675129.51423
  20423611.0434  -15156891.17547 -11300536.27861
  23077026.0824   10823428.98244   8433817.63361
  19534256.012   -23241998.030 7 -18021844.37123
 91  3 26  1 33 59.9960000  0  5G15G 2G13G19G 6
  22413532.801    -6242028.438 6  -4781822.08521
  19912461.941   -22683433.806 8 -17675314.76423
  20414806.660   -15203154.650 7 -11336585.59521
  23084710.3484   10863789.80743   8465267.52461
  19530258.0204  -23263009.81947 -18038217.13363
 91  3 26  1 34 14.9960000  0  5G15G 2G13G19G 6
  22413668.129    -6241349.888 6  -4781293.27121
  19912422.926   -22683633.785 8 -17675470.54323
  20406024.3094  -15249306.53747 -11372547.95761
  23092392.5124   10904193.55743   8496750.89561
  19526276.3794  -23283930.30047 -18054518.74563
 91  3 26  1 34 29.9960000  0  5G15G 2G13G19G 6
  22413817.660    -6240535.289 6  -4780658.44421
  19912394.496   -22683794.101 8
  20397263.6524  -15295344.66747 -11408421.67261
  23100091.1374   10944641.97143   8528269.02361
  19522314.0664  -23304757.21047 -18070747.44363
 91  3 26  1 34 44.9960000  0  5G15G 2G13G19G 6
  22414000.559    -6239585.148 6  -4779918.00121
  19912368.098   -22683915.263 8
  20388524.4104  -15341269.36647 -11444207.00761
  23107794.926    10985134.322 3   8559821.42521
  19518368.4574  -23325490.70347 -18086903.35263
 91  3 26  1 34 59.9960000  0  5G15G 2G13G19G 6
  22414210.106    -6238498.623 6  -4779071.29121
  19912355.129   -22683996.468 8
  20379805.7154  -15387079.97747 -11479903.43861
  23115516.223    11025671.247 3   8591408.56421
  19514439.8874  -23346129.83647 -18102985.73563
 91  3 26  1 35 14.9960000  0  5G15G 2G13G19G 6
  22414439.363    -6237275.045 6  -4778117.78221
  19912346.996   -22684036.864 8
  20371111.1064  -15432775.20647 -11515509.95861
  23123231.5274   11066253.40443   8623030.91561
  19510531.5514  -23366673.70047 -18118993.87963
 91  3 26  1 35 29.9960000  0  5G15G 2G13G19G 6
  22414696.395    -6235919.487 6  -4777061.42921
  19912344.543   -22684041.642 8
  20362436.1994  -15478360.01147 -11551030.43561
  23130966.746    11106875.465 3   8654684.39321
  19506639.7624  -23387126.91747 -18134931.38663
 91  3 26  1 35 44.9960000  0  5G15G 2G13G19G 6
  22414979.035    -6234430.866 6  -4775901.38221
  19912353.543   -22684009.668 8
  20353783.0044  -15523832.98947 -11586463.77961
  23138700.691    11147538.299 3   8686369.61821
  19502764.7234  -23407488.23247 -18150797.28963
 91  3 26  1 35 59.9960000  0  5G15G 2G13G19G 6
  22415288.215    -6232808.805 6  -4774637.37021
  19912364.051   -22683940.660 8
  20345151.0744  -15569193.50847 -11621809.49761
  23146450.684    11188241.957 3   8718086.67121
  19498906.1214  -23427757.17547 -18166591.21563
 91  3 26  1 36 14.9960000  0  5G15G 2G13G19G 6
  22415623.8014   -6231048.34846  -4773265.51761
  19912386.801   -22683829.600 8
  20336541.5354  -15614436.69347 -11657063.76561
  23154204.168    11228991.247 3   8749839.28321
  19495068.9814  -23447928.44547 -18182309.02863
 91  3 26  1 36 29.9960000  0  5G15G 2G13G19G 6
  22415982.879    -6229165.110 6  -4771797.98221
  19912410.332   -22683692.130 8
  20327951.285   -15659577.705 7 -11692238.44021
  23161964.988    11269770.512 3   8781615.24921
  19491246.1134  -23468017.19047 -18197962.53063
 91  3 26  1 36 44.9960000  0  5G15G 2G13G19G 6
  22416370.809    -6227146.628 6  -4770225.06321
  19912443.5124  -22683515.83348
  20319383.2384  -15704603.95547 -11727323.67961
  23169729.5664   11310592.00843   8813424.13661
  19487442.0824  -23488010.92047 -18213542.00363
 91  3 26  1 36 59.9960000  0  5G15G 2G13G19G 6
  22416775.137    -6224991.861 6  -4768545.95121
  19912485.941   -22683299.377 8
  20310836.6684  -15749513.96847 -11762318.34661
  23177510.145    11351456.729 3   8845266.69221
  19483654.8564  -23507908.07647 -18229046.22163
 91  3 26  1 37 14.9960000  0  5G15G 2G13G19G 6
  22417212.0824   -6222698.76946  -4766759.04561
  19912536.887   -22683040.903 8 -17675008.02424
  20302312.395   -15794305.721 7 -11797220.86521
  23185291.0274   11392366.74043   8877144.54361
  19479887.5824  -23527706.30147 -18244473.35463
 91  3 26  1 37 29.9960000  0  5G15G 2G13G19G 6
  22417679.348    -6220263.412 6  -4764861.28621
  19912590.309   -22682736.554 8 -17674770.82724
  20293813.5984  -15838975.01347 -11832027.95661
  23193084.731    11433325.419 3   8909060.29821
  19476140.0434  -23547401.49447 -18259820.19863
 91  3 26  1 37 44.9960000  0  5G15G 2G13G19G 6
  22418163.1524   -6217692.64646  -4762858.00961
  19912656.723   -22682393.275 8 -17674503.29124
  20285334.0204  -15883528.54547 -11866744.84961
  23200887.1994   11474325.76143   8941008.54161
  19472410.8564  -23567000.62247 -18275092.19063
 91  3 26  1 37 59.9960000  0  5G15G 2G13G19G 6
  22418685.668    -6214975.662 6  -4760740.79621
  19912730.660   -22681999.795 8 -17674196.64024
  20276881.434   -15927954.917 7 -11901362.66221
  23208703.5824   11515378.70743   8972997.75861
  19468701.356   -23586491.898 7 -18290280.14323
 91  3 26  1 38 14.9960000  0  5G15G 2G13G19G 6
  22419224.934    -6212123.838 6  -4758518.52621
  19912815.426   -22681567.652 8 -17673859.85924
  20268448.1604  -15972265.50147 -11935890.23861
  23216519.1994   11556472.50243   9005018.81161
  19465010.3564  -23605886.74647 -18305392.95263
 91  3 26  1 38 29.9960000  0  4G15G 2G13G 6
  22419794.3794   -6209137.96546  -4756191.78761
  19912906.231   -22681097.547 8 -17673493.50124
  20260037.754   -16016460.858 7 -11970328.04121
  19461337.6914  -23625185.61247 -18320430.97763
 91  3 26  1 38 44.9960000  0  4G15G 2G13G 6
  22420388.7234   -6206017.01746  -4753759.79761
  19913001.6914  -22680588.60148 -17673096.88464
  20251650.9884  -16060539.83747 -12004675.15561
  19457683.043   -23644387.184 7 -18335393.18523
 91  3 26  1 38 59.9960000  0  4G15G 2G13G 6
  22421004.2854   -6202766.16546  -4751226.57261
  19913103.316   -22680045.896 8 -17672673.94924
  20243283.848   -16104507.233 7 -12038935.32221
  19454047.4184  -23663496.38847 -18350283.41963
 91  3 26  1 39 14.9960000  0  4G15G 2G13G 6
  22421647.6764   -6199382.94946  -4748590.21561
  19913213.3244  -22679466.84548 -17672222.70364
  20234938.981   -16148360.467 7 -12073106.53521
  19450430.059   -23682510.468 7 -18365099.52823
 91  3 26  1 39 29.9960000  0  4G15G 2G13G 6
  22422318.293    -6195861.661 6  -4745846.26621
  19913334.3164  -22678845.76048 -17671738.70664
  20226616.793   -16192093.505 7 -12107184.08521
  19446829.606   -23701423.399 7 -18379836.82223
 91  3 26  1 39 44.9960000  0  4G15G 2G13G 6
  22423015.856    -6192206.270 6  -4742997.82721
  19913459.371   -22678186.575 8 -17671225.01524
  20218315.895   -16235709.974 7 -12141170.80221
  19443249.215   -23720238.917 7 -18394498.21123
 91  3 26  1 39 59.9960000  0  4G15G 2G13G 6
  22423737.9104   -6188412.46246  -4740041.53161
  19913593.1914  -22677484.88948 -17670678.20664
  20210039.801   -16279205.445 7 -12175063.24521
  19439688.4264  -23738952.21247 -18409079.94163
 91  3 26  1 40 14.9960000  0  4G15G 2G13G 6
  22424483.7384   -6184478.84046  -4736976.28261
  19913735.723   -22676739.487 8 -17670097.33424
  20201785.7774  -16322578.32547 -12208860.16161
  19436146.426   -23757561.865 7 -18423580.92223
 91  3 26  1 40 29.9960000  0  4G15G 2G13G 6
  22425256.2854   -6180410.66546  -4733806.19161
  19913883.4344  -22675955.42248 -17669486.33664
  20193553.715   -16365833.756 7 -12242565.55421
  19432625.113   -23776072.789 7 -18438004.96623
 91  3 26  1 40 44.9960000  0  4G15G 2G13G 6
  22426059.566    -6176202.653 6  -4730527.13421
  19914041.9344  -22675127.33048 -17668841.03764
  20185347.270   -16408965.899 7 -12276174.88521
  19429120.863   -23794479.247 7 -18452347.61623
 91  3 26  1 40 59.9960000  0  4G15G 2G13G 6
  22426888.652    -6171861.199 6  -4727144.09021
  19914204.0594  -22674261.67448 -17668166.46564
  20177160.074   -16451981.023 7 -12309693.02921
  19425639.121   -23812787.371 7 -18466613.63423
 91  3 26  1 41 14.9960000  0  4G15G 2G13G 6
  22427741.0354   -6167376.64046  -4723649.53161
  19914378.6134  -22673348.48148 -17667454.85364
  20168998.9264  -16494869.12247 -12343112.19761
  19422174.004   -23830987.060 7 -18480795.16423
 91  3 26  1 41 29.9960000  0  4G15G 2G13G 6
  22428617.4184   -6162755.41246  -4720048.48661
  19914561.074   -22672394.168 8 -17666711.19224
  20160859.9264  -16537636.66647 -12376437.43361
  19418730.4184  -23849084.63547 -18494897.12963
 91  3 26  1 41 44.9960000  0  4G15G 2G13G 6
  22429527.613    -6157995.145 6  -4716339.09021
  19914749.6844  -22671396.48248 -17665933.73964
  20152745.5124  -16580280.89247 -12409666.57161
  19415307.5744  -23867077.41747 -18508917.43963
 91  3 26  1 41 59.9960000  0  4G15G 2G13G 6
  22430455.8634   -6153099.51346  -4712524.22261
  19914949.0594  -22670359.06248 -17665125.32164
  20144653.1214  -16622805.34447 -12442802.38261
  19411901.5744  -23884968.84947 -18522858.77863
 91  3 26  1 42 14.9960000  0  4G15G 2G13G 6
  22431416.8164   -6148060.58546  -4708597.68361
  19915154.9344  -22669273.80748 -17664279.63163
  20136585.5204  -16665201.61347 -12475838.31461
  19408517.6844  -23902750.53847 -18536714.59563
 91  3 26  1 42 29.9960000  0  4G15G 2G13G 6
  22432401.2774   -6142885.26546  -4704564.88261
  19915368.0904  -22668147.72148 -17663402.13063
  20128539.4734  -16707476.63647 -12508779.76661
  19405154.8014  -23920429.14547 -18550490.09263
 91  3 26  1 42 44.9960000  0  4G15G 2G13G 6
  22433409.481    -6137570.773 6  -4700423.64321
  19915590.4344  -22666977.79348 -17662490.46364
  20120519.1764  -16749627.24347 -12541624.28061
  19401810.5274  -23938001.48947 -18564182.79363
 91  3 26  1 42 59.9960000  0  4G15G 2G13G 6
  22434449.973    -6132115.275 6  -4696172.52521
  19915822.8164  -22665762.23548 -17661543.24064
  20112520.6604  -16791651.75047 -12574370.52561
  19398487.2464  -23955465.65047 -18577791.18963
 91  3 26  1 43 14.9960000  0  4G15G 2G13G 6
  22435515.2314   -6126522.51146  -4691814.44261
  19916061.9494  -22664504.67048 -17660563.28364
  20104548.0984  -16833553.50847 -12607021.12661
  19395183.6914  -23972825.02447 -18591317.94063
 91  3 26  1 43 29.9960000  0  4G15G 2G13G 6
  22436605.7154   -6120794.04446  -4687350.61461
  19916309.1524  -22663206.53248 -17659551.71464
  20096598.0514  -16875333.38747 -12639576.76261
  19391899.8014  -23990080.68747 -18604763.88063
 91  3 26  1 43 44.9960000  0  4G15G 2G13G 6
  22437720.246    -6114931.473 6  -4682782.29921
  19916562.7934  -22661869.67448 -17658509.97664
  20088670.551   -16916993.076 7 -12672038.74121
  19388635.6064  -24007234.27847 -18618130.28063
 91  3 26  1 43 59.9960000  0  4G15G 2G13G 6
  22438861.496    -6108933.605 6  -4678108.54221
  19916824.3714  -22660492.46448 -17657436.79263
  20080764.3874  -16958530.80247 -12704405.68061
  19385390.6454  -24024283.72247 -18631415.52463
 91  3 26  1 44 14.9960000  0  4G15G 2G13G 6
  22440029.465    -6102795.790 6  -4673325.74521
  19917095.3564  -22659070.16148 -17656328.47564
  20072885.4884  -16999941.93947 -12736673.98561
  19382167.4964  -24041224.22447 -18644615.88362
 91  3 26  1 44 29.9960000  0  4G15G 2G13G 6
  22441221.8244   -6096521.96046  -4668436.95961
  19917374.3244  -22657606.83148 -17655188.18264
  20065028.316   -17041230.340 7 -12768846.65321
  19378965.0124  -24058059.67647 -18657734.38563
 91  3 26  1 44 44.9960000  0  4G15G 2G13G 6
  22442443.543    -6090107.351 6  -4663438.48321
  19917661.1604  -22656097.65548 -17654012.17464
  20057194.645   -17082390.953 7 -12800919.75121
  19375780.6764  -24074784.93847 -18670767.02363
 91  3 26  1 44 59.9960000  0  4G15G 2G13G 6
  22443686.926    -6083557.990 6  -4658335.00921
  19917957.1764  -22654548.39748 -17652804.92464
  20049386.551   -17123429.377 7 -12832897.63221
  19372617.8954  -24091405.66747 -18683718.21262
 91  3 26  1 45 14.9960000  0  4G15G 2G13G 6
  22444961.481    -6076868.993 6  -4653122.73621
  19918259.7774  -22652954.30448 -17651562.73764
  20041600.137   -17164340.636 7 -12864776.42421
  19369475.1994  -24107916.63947 -18696583.87863
 91  3 26  1 45 29.9960000  0  4G15G 2G13G 6
  22446262.988    -6070042.584 6  -4647803.38621
  19918571.4574  -22651317.02948 -17650286.90364
  20033839.035   -17205126.481 7 -12896557.49521
  19366356.0434  -24124319.41247 -18709365.22462
 91  3 26  1 45 44.9960000  0  4G15G 2G13G 6
  22447583.7314   -6063077.99946  -4642376.37861
  19918891.5824  -22649636.02048 -17648976.99864
  20026103.231   -17245786.016 7 -12928240.14321
  19363254.2704  -24140613.12847 -18722061.59563
 91  3 26  1 45 59.9960000  0  4G15G 2G13G 6
  22448940.1844   -6055974.50846  -4636841.12261
  19919220.1134  -22647910.49448 -17647632.39464
  20018388.590   -17286318.426 7 -12959823.72721
  19360173.7934  -24156796.91647 -18734672.30763
 91  3 26  1 46 14.9960000  0  4G15G 2G13G 6
  22450313.5124   -6048735.73546  -4631200.46461
  19919556.6134  -22646144.07048 -17646255.92764
  20010699.254   -17326727.025 7 -12991310.83921
  19357115.0354  -24172874.09147 -18747199.94062
 91  3 26  1 46 29.9960000  0  4G15G 2G13G 6
  22451718.8324   -6041364.71946  -4625456.75461
  19919898.8164  -22644339.81648 -17644849.98664
  20003033.527   -17367014.868 7 -13022703.85821
  19354075.2234  -24188847.44147 -18759646.67062
 91  3 26  1 46 44.9960000  0  4G15G 2G13G 6
  22453146.926    -6033857.049 6  -4619606.54121
  19920250.0124  -22642493.20048 -17643411.03164
  19995390.043   -17407177.096 7 -13053998.99721
  19351056.5434  -24204712.15147 -18772008.74463
 91  3 26  1 46 59.9960000  0  4G15G 2G13G 6
  22454599.9964   -6026213.94546  -4613650.79361
  19920611.3634  -22640605.06548 -17641939.72164
  19987770.496   -17447214.482 7 -13085196.85321
  19348057.2854  -24220468.91147 -18784286.70062
 91  3 26  1 47 14.9960000  0  4G15G 2G13G 6
  22456079.5044   -6018434.22246  -4607588.60861
  19920977.1914  -22638674.39348 -17640435.27664
  19980177.402   -17487125.905 7 -13116296.56021
  19345080.5904  -24236116.41147 -18796479.52262
 91  3 26  1 47 29.9960000  0  4G15G 2G13G 6
  22457584.699    -6010526.330 6  -4601426.52621
  19921351.0824  -22636709.57048 -17638904.21464
  19972603.754   -17526919.606 7 -13147304.52621
  19342121.2544  -24251662.87047 -18808593.60862
 91  3 26  1 47 44.9960000  0  4G15G 2G13G 6
  22459117.5124   -6002477.19745  -4595154.38761
  19921733.1914  -22634697.32348 -17637336.20064
  19965056.762   -17566582.156 7 -13178210.30921
  19339185.0434  -24267094.73447 -18820618.39763
 91  3 26  1 47 59.9960000  0  4G15G 2G13G 6
  22460676.5514   -5994288.34845  -4588773.40661
  19922125.2624  -22632638.96148 -17635732.25264
  19957534.9494  -17606114.55247 -13209014.67361
  19336271.1454  -24282413.10747 -18832554.75562
 91  3 26  1 48 14.9960000  0  4G15G 2G13G 6
  22462262.1684   -5985952.39445  -4582277.78561
  19922527.6684  -22630526.89648 -17634086.46064
  19950036.731   -17645509.165 7 -13239711.66821
  19333378.270   -24297610.259 7 -18844396.65022
 91  3 26  1 48 29.9960000  0  4G15G 2G13G 6
  22463876.387    -5977471.934 5  -4575669.56921
  19922939.5984  -22628363.84748 -17632400.93664
  19942567.035   -17684768.651 7 -13270303.36721
  19330508.184   -24312688.411 7 -18856145.81922
 91  3 26  1 48 44.9960000  0  4G15G 2G13G 6
  22465513.512    -5968857.538 5  -4568956.97721
  19923359.6064  -22626160.20448 -17630683.77864
  19935119.2774  -17723903.44547 -13300797.91561
  19327660.238   -24327658.164 7 -18867810.52222
 91  3 26  1 48 59.9960000  0  4G15G 2G13G 6
  22467179.4414   -5960110.72645  -4562141.18961
  19923785.3244  -22623917.50348 -17628936.19164
  19927694.941   -17762914.747 7 -13331196.22721
  19324832.0044  -24342520.56547 -18879391.57362
 91  3 26  1 49 14.9960000  0  4G15G 2G13G 6
  22468871.981    -5951223.543 5  -4555216.04021
  19924219.9814  -22621627.62248 -17627151.84164
  19920296.1454  -17801794.34847 -13361491.92061
  19322025.715   -24357267.332 7 -18890882.51522
 91  3 26  1 49 29.9960000  0  4G15G 2G13G 6
  22470585.356    -5942202.339 5  -4548186.45421
  19924664.8794  -22619296.85748 -17625335.62864
  19912922.668   -17840548.327 7 -13391689.72421
  19319240.9884  -24371904.52047 -18902288.07562
 91  3 26  1 49 44.9960000  0  4G15G 2G13G 6
  22472330.0984   -5933045.15245  -4541050.91261
  19925116.5984  -22616922.92548 -17623485.78164
  19905571.004   -17879174.479 7 -13421787.92021
  19316476.215   -24386429.664 7 -18913606.32622
 91  3 26  1 49 59.9960000  0  4G15G 2G13G 6
  22474097.816    -5923751.184 6  -4533808.78321
  19925575.8794  -22614504.90748 -17621601.58064
  19898245.8484  -17917671.65747 -13451785.62761
  19313733.613   -24400841.564 7 -18924836.33722
 91  3 26  1 50 14.9960000  0  4G15G 2G13G 6
  22475891.324    -5914322.837 5  -4526461.94321
  19926044.3634  -22612045.32448 -17619684.98664
  19890942.957   -17956041.993 7 -13481684.48722
  19311011.731   -24415142.438 7 -18935979.83022
 91  3 26  1 50 29.9960000  0  4G15G 2G13G 6
  22477711.4814   -5904757.52945  -4519008.36061
  19926521.0434  -22609541.36948 -17617733.82064
  19883666.512   -17994282.735 7 -13511482.36922
  19308312.8014  -24429329.30447 -18947034.49362
 91  3 26  1 50 44.9960000  0  4G15G 2G13G 6
  22479560.2854   -5895054.03745  -4511447.12861
  19927005.2854  -22606991.70148 -17615747.03864
  19876414.8404  -18032392.41847 -13541178.12462
  19305634.723   -24443400.659 7 -18957999.14322
 91  3 26  1 50 59.9960000  0  4G15G 2G13G 6
  22481430.6064   -5885208.28145  -4503775.04061
  19927500.8164  -22604392.36648 -17613721.55164
  19869188.012   -18070366.665 7 -13570768.35021
  19302980.1294  -24457352.13347 -18968870.37862
 91  3 26  1 51 14.9960000  0  4G15G 2G13G 6
  22483328.645    -5875234.083 5  -4496002.86421
  19928002.5744  -22601756.85248 -17611667.87964
  19861985.0664  -18108219.17147 -13600263.71162
  19300344.785   -24471197.175 7 -18979658.68022
 91  3 26  1 51 29.9960000  0  4G15G 2G13G 6
  22485253.441    -5865124.046 5  -4488124.84321
  19928511.074   -22599077.429 8 -17609579.98324
  19854806.4414  -18145942.00047 -13629658.02362
  19297733.152   -24484927.819 7 -18990357.84522
 91  3 26  1 51 44.9960000  0  4G15G 2G13G 6
  22487205.2774   -5854877.42446  -4480140.38661
  19929030.2384  -22596353.76148 -17607457.62464
  19847652.4104  -18183534.76847 -13658950.99362
  19295141.621   -24498543.604 7 -19000967.50222
 91  3 26  1 51 59.9960000  0  4G15G 2G13G 6
  22489181.5274   -5844493.80545  -4472049.15361
  19929557.0434  -22593585.11648 -17605300.20864
  19840524.3164  -18220996.74647 -13688142.04662
  19292571.9104  -24512043.51847 -19011486.87662
 91  3 26  1 52 14.9960000  0  4G15G 2G13G 6
  22491180.4964   -5833983.96245  -4463859.58561
  19930090.2774  -22590781.54848 -17603115.58164
  19833419.0744  -18258337.89447 -13717238.95362
  19290024.0514  -24525437.56447 -19021923.75762
 91  3 26  1 52 29.9960000  0  4G15G 2G13G 6
  22493206.5824   -5823338.13345  -4455564.00961
  19930632.7314  -22587933.73948 -17600896.48664
  19826336.5434  -18295548.66347 -13746234.25462
  19287495.9264  -24538716.12847 -19032270.65062
 91  3 26  1 52 44.9960000  0  4G15G 2G13G 6
  22495255.8324   -5812558.68645  -4447164.37561
  19931183.0664  -22585043.92748 -17598644.65964
  19819280.5124  -18332631.12147 -13775129.58462
  19284991.566   -24551881.218 7 -19042529.11922
 91  3 26  1 52 59.9960000  0  4G15G 2G13G 6
  22497330.8634   -5801646.42845  -4438661.23661
  19931740.363   -22582112.479 8 -17596360.39124
  19812248.6374  -18369585.49947 -13803925.10362
  19282508.473   -24564932.939 7 -19052699.25422
 91  3 26  1 53 14.9960000  0  4G15G 2G13G 6
  22499434.2774   -5790596.34546  -4430050.68861
  19932307.1134  -22579134.46148 -17594039.84064
  19805241.1294  -18406406.72947 -13832616.87962
  19280045.6214  -24577866.11647 -19062777.01662
 91  3 26  1 53 29.9960000  0  4G15G 2G13G 6
  22501565.145    -5779414.051 6  -4421337.11721
  19932881.184   -22576115.332 8 -17591687.24124
  19798258.4884  -18443100.01847 -13861208.95662
  19277607.176   -24590686.081 7 -19072766.56122
 91  3 26  1 53 44.9960000  0  4G15G 2G13G 6
  22503715.9494   -5768097.90846  -4412519.24061
  19933463.285   -22573053.143 8 -17589301.09724
  19791300.5124  -18479663.55747 -13889699.93562
  19275190.2314  -24603390.68747 -19082666.20862
 91  3 26  1 53 59.9960000  0  4G15G 2G13G 6
  22505895.402    -5756644.904 5  -4403594.72521
  19934054.7464  -22569944.88648 -17586879.05064
  19784368.4734  -18516094.28747 -13918087.42462
  19272794.3564  -24615976.69747 -19092473.45662
 91  3 26  1 54 14.9960000  0  4G15G 2G13G 6
  22508102.754    -5745056.745 5  -4394564.93421
  19934655.996   -22566792.145 8 -17584422.34824
  19777460.9024  -18552393.65047 -13946372.54762
  19270420.785   -24628445.400 7 -19102189.28823
 91  3 26  1 54 29.9960000  0  4G15G 2G13G 6
  22510331.9184   -5733337.25745  -4385432.77561
  19935262.918   -22563598.610 8 -17581933.85824
  19770577.8484  -18588565.16047 -13974558.04862
  19268069.9414  -24640800.45047 -19111816.56163
 91  3 26  1 54 44.9960000  0  4G15G 2G13G 6
  22512586.160    -5721483.297 6  -4376195.85221
  19935879.543   -22560361.276 8 -17579411.24224
  19763718.8404  -18624605.58047 -14002641.39962
  19265740.6604  -24653038.46047 -19121352.63962
 91  3 26  1 54 59.9960000  0  4G15G 2G13G 6
  22514871.6844   -5709484.03146  -4366845.68361
  19936505.691   -22557068.924 8 -17576845.74824
  19756888.4184  -18660503.87047 -14030614.00062
  19263437.1294  -24665148.10347 -19130788.69162
 91  3 26  1 55 14.9960000  0  4G15G 2G13G 6
  22517178.254    -5697351.137 5  -4357391.37721
  19937141.4654  -22553732.71048 -17574246.07664
  19750080.7624  -18696271.40147 -14058484.71262
  19261154.2854  -24677140.58247 -19140133.44163
 91  3 26  1 55 29.9960000  0  4G15G 2G13G 6
  22519511.941    -5685084.043 6  -4347832.53121
  19937783.887   -22550352.169 8 -17571611.87024
  19743299.9494  -18731907.20547 -14086252.78262
  19258894.9964  -24689015.07447 -19149386.26062
 91  3 26  1 55 44.9960000  0  4G15G 2G13G 6
  22521873.6684   -5672681.95345  -4338168.48161
  19938436.238   -22546926.165 8 -17568942.23024
  19736544.4734  -18767410.09747 -14113917.28362
  19256657.8164  -24700770.23147 -19158546.08163
 91  3 26  1 55 59.9960000  0  4G15G 2G13G 6
  22524259.1604   -5660145.29845  -4328399.58961
  19939095.754   -22543455.355 8 -17566237.68024
  19729812.4494  -18802780.79447 -14141478.77162
  19254443.3564  -24712406.49747 -19167613.26163
 91  3 26  1 56 14.9960000  0  4G15G 2G13G 6
  22526670.9024   -5647474.45545  -4318526.13061
  19939764.465   -22539939.836 8 -17563498.29324
  19723108.4574  -18838019.12447 -14168937.12262
  19252252.7934  -24723923.61447 -19176587.60663
 91  3 26  1 56 29.9960000  0  4G15G 2G13G 6
  22529107.973    -5634667.021 5  -4308546.24321
  19940443.481   -22536377.108 8 -17560722.12323
  19716426.7704  -18873122.19447 -14196290.07362
  19250083.2704  -24735318.92147 -19185467.02662
 91  3 26  1 56 44.9960000  0  4G15G 2G13G 6
  22531569.1844   -5621723.40345  -4298460.22161
  19941129.6764  -22532767.28048 -17557909.24663
  19709773.2704  -18908090.57047 -14223538.06862
  19247938.3164  -24746592.50147 -19194251.60163
 91  3 26  1 56 59.9960000  0  4G15G 2G13G 6
  22534057.5274   -5608642.97945  -4288267.64461
  19941825.316   -22529109.685 8 -17555059.14423
  19703144.6134  -18942923.29247 -14250680.36161
  19245816.6524  -24757743.33747 -19202940.52963
 91  3 26  1 57 14.9960000  0  4G15G 2G13G 6
  22536573.777    -5595427.149 5  -4277969.53621
  19942530.965   -22525405.386 8 -17552172.65223
  19696541.6524  -18977621.40947 -14277717.76462
  19243718.1294  -24768772.43347 -19211534.59963
 91  3 26  1 57 29.9960000  0  4G15G 2G13G 6
  22539113.746    -5582078.713 5  -4267568.08421
  19943243.809   -22521656.877 8 -17549251.71623
  19689963.3634  -19012187.30847 -14304652.14362
  19241641.8874  -24779682.22547 -19220035.70863
 91  3 26  1 57 44.9960000  0  4G15G 2G13G 6
  22541677.7314   -5568606.82745  -4257070.46361
  19943964.356   -22517873.494 8 -17546303.60523
  19683409.5824  -19046630.00947 -14331490.52261
  19239586.6454  -24790481.61147 -19228450.78163
 91  3 26  1 57 59.9960000  0  4G15G 2G13G 6
  22544266.8874   -5555002.82745  -4246469.87761
  19944691.7704  -22514046.62248 -17543321.59863
  19676880.9414  -19080940.89247 -14358226.19162
  19237554.5514  -24801161.82447 -19236772.99263
 91  3 26  1 58 14.9960000  0  4G15G 2G13G 6
  22546881.3244   -5541264.92445  -4235764.95461
  19945428.691   -22510173.851 8 -17540303.83823
  19670376.5744  -19115117.80247 -14384857.45662
  19235544.5354  -24811720.44147 -19245000.45563
 91  3 26  1 58 29.9960000  0  4G15G 2G13G 6
  22549518.9734   -5527395.74945  -4224957.73861
  19946173.6064  -22506257.85848 -17537252.38663
  19663898.1064  -19149163.26947 -14411386.30362
  19233558.2854  -24822159.78247 -19253134.97463
 91  3 26  1 58 44.9960000  0  4G15G 2G13G 6
  22552184.7384   -5513395.10045  -4214048.10161
  19946927.387   -22502298.144 8 -17534166.87223
  19657443.7854  -19183076.40747 -14437812.03962
  19231594.6844  -24832479.20847 -19261176.05763
 91  3 26  1 58 59.9960000  0  4G15G 2G13G 6
  22554873.801    -5499261.950 5  -4203035.19121
  19947689.520   -22498293.607 8 -17531046.43523
  19651016.4264  -19216856.14347 -14464133.82361
  19229654.1764  -24842677.50547 -19269122.75163
 91  3 26  1 59 14.9960000  0  4G15G 2G13G 6
  22557589.1064   -5484996.43045  -4191919.13661
  19948459.1914  -22494244.16948 -17527891.00163
  19644612.910   -19250502.471 7 -14490351.65321
  19227735.8874  -24852754.30547 -19276974.77463
 91  3 26  1 59 29.9960000  0  4G15G 2G13G 6
  22560327.387    -5470599.831 5  -4180700.91421
  19949239.387   -22490150.489 8 -17524701.09923
  19638236.020   -19284016.069 7 -14516466.06421
  19225842.004   -24862710.271 7 -19284732.64223
 91  3 26  1 59 44.9960000  0  4G15G 2G13G 6
  22563092.5204   -5456067.19645  -4169376.74161
  19950027.8634  -22486008.03248 -17521473.17763
  19631885.1064  -19317392.07547 -14542473.25061
  19223971.3164  -24872540.44447 -19292392.49063
 91  3 26  1 59 59.9960000  0  4G15G 2G13G 6
  22565883.582    -5441402.347 5  -4157949.52521
  19950824.527   -22481820.294 8 -17518209.98223
  19625560.676   -19350633.976 7 -14568375.95121
  19222123.8954  -24882248.28947 -19299957.01663
 91  3 26  2  0 14.9960000  0  4G15G 2G13G 6
  22568698.5434   -5426604.58445  -4146418.72261
  19951629.598   -22477586.316 8 -17514910.75623
  19619258.4734  -19383740.91847 -14594173.48161
  19220299.715   -24891832.714 7 -19307425.37723
 91  3 26  2  0 29.9960000  0  4G15G 2G13G 6
  22571544.129    -5411663.576 5  -4134776.29121
  19952446.6684  -22473295.48648 -17511567.21963
  19612986.9344  -19416702.35747 -14619857.63761
  19218501.434   -24901282.976 7 -19314789.19023
 91  3 26  2  0 44.9960000  0  4G15G 2G13G 6
  22574409.707    -5396591.513 5  -4123031.76521
  19953272.371   -22468959.910 8 -17508188.80623
  19606739.785   -19449530.045 7 -14645437.56921
  19216726.598   -24910610.957 7 -19322057.72223
 91  3 26  2  0 59.9960000  0  4G15G 2G13G 6
  22577304.012    -5381386.759 5  -4111183.81921
  19954105.5744  -22464578.06748 -17504774.35063
  19600517.973   -19482222.593 7 -14670912.20321
  19214975.145   -24919814.839 7 -19329229.55723
 91  3 26  2  1 14.9960000  0  4G15G 2G13G 6
  22580223.7624   -5366054.67145  -4099236.64961
  19954946.5984  -22460154.87948 -17501327.67863
  19594322.145   -19514784.745 7 -14696285.22421
  19213246.1994  -24928899.54347 -19336308.52163
 91  3 26  2  1 29.9960000  0  4G15G 2G13G 6
  22583162.637    -5350596.189 5  -4087190.99921
  19955797.340   -22455690.709 8 -17497849.06223
  19588150.527   -19547216.740 7 -14721556.82622
  19211540.254   -24937865.139 7 -19343294.67422
 91  3 26  2  1 44.9960000  0  4G15G 2G13G 6
  22586128.379    -5335005.366 5  -4075042.24521
  19956654.6994  -22451179.78348 -17494334.01563
  19582005.207   -19579512.677 7 -14746722.41421
  19209858.0514  -24946705.56947 -19350183.29463
 91  3 26  2  1 59.9960000  0  4G15G 2G13G 6
  22589120.262    -5319283.050 5  -4062790.99021
  19957522.1294  -22446622.83848 -17490783.11863
  19575884.496   -19611673.455 7 -14771782.67722
  19208199.449   -24955421.589 7 -19356974.97922
 91  3 26  2  2 14.9960000  0  4G15G 2G13G 6
  22592139.840    -5303430.362 5  -4050438.14121
  19958397.6374  -22442020.83148 -17487197.10063
  19569789.856   -19643699.919 7 -14796738.28021
  19206564.231   -24964014.000 7 -19363670.34023
 91  3 26  2  2 29.9960000  0  4G15G 2G13G 6
  22595179.3714   -5287446.95045  -4037983.42861
  19959281.816   -22437373.286 8 -17483575.61223
  19563720.473   -19675591.639 7 -14821588.89421
  19204952.731   -24972482.074 7 -19370268.81622
 91  3 26  2  2 44.9960000  0  4G15G 2G13G 6
  22598246.832    -5271336.377 5  -4025429.63221
  19960173.4024  -22432683.09148 -17479920.89163
  19557677.902   -19707351.522 7 -14846336.77422
  19203365.0744  -24980828.65047 -19376772.61463
 91  3 26  2  2 59.9960000  0  4G15G 2G13G 6
  22601335.6994   -5255088.39245  -4012768.78561
  19961077.129   -22427939.973 8 -17476224.92923
  19551662.043   -19738968.941 7 -14870973.64721
  19201801.0044  -24989043.27147 -19383173.58863
 91  3 26  2  3 14.9960000  0  4G15G 2G13G 6
  22604451.918    -5238713.995 5  -4000009.49221
  19961987.7234  -22423155.06448 -17472496.40163
  19545668.887   -19770455.095 7 -14895508.23621
  19200260.7384  -24997136.92247 -19389480.30563
 91  3 26  2  3 29.9960000  0  4G15G 2G13G 6
  22607594.8324   -5222203.59145  -3987144.13261
  19962907.6844  -22418318.16848 -17468727.35763
  19539703.816   -19801799.948 7 -14919932.71722
  19198746.051   -25005099.282 7 -19395684.71623
 91  3 26  2  3 44.9960000  0  4G15G 2G13G 6
  22610761.254    -5205561.680 5  -3974176.32921
  19963837.5274  -22413433.83048 -17464921.34963
  19533765.426   -19833008.025 7 -14944250.62122
  19197254.254   -25012934.570 7 -19401790.10623
 91  3 26  2  3 59.9960000  0  4G15G 2G13G 6
  22613951.0984   -5188801.12745  -3961116.07561
  19964773.7314  -22408514.39748 -17461087.99163
  19527850.254   -19864091.571 7 -14968471.49021
  19195785.8094  -25020655.12247 -19407806.09863
 91  3 26  2  4 14.9960000  0  4G15G 2G13G 6
  22617164.512    -5171911.671 5  -3947955.37121
  19965719.1374  -22403549.77148 -17457219.42463
  19521960.723   -19895040.510 7 -14992587.46422
  19194339.996   -25028250.654 7 -19413724.67523
 91  3 26  2  4 29.9960000  0  4G15G 2G13G 6
  22620405.051    -5154891.766 5  -3934692.99521
  19966671.9654  -22398538.03648 -17453314.15163
  19516098.035   -19925852.738 7 -15016596.91822
  19192918.879   -25035719.111 7 -19419544.23223
 91  3 26  2  4 44.9960000  0  4G15G 2G13G 6
  22623668.387    -5137744.604 5  -3921331.48921
  19967633.246   -22393482.275 8 -17449374.57323
  19510259.840   -19956531.258 7 -15040502.17722
  19191520.6764  -25043063.24647 -19425266.91063
 91  3 26  2  4 59.9960000  0  4G15G 2G13G 6
  22626952.7934   -5120466.21245  -3907867.68061
  19968605.2314  -22388378.04548 -17445397.22463
  19504447.465   -19987071.676 7 -15064299.83222
  19190148.5594  -25050278.65447 -19430889.27963
 91  3 26  2  5 14.9960000  0  4G15G 2G13G 6
  22630267.9024   -5103056.32445  -3894301.43761
  19969586.684   -22383225.019 8 -17441381.84623
  19498662.793   -20017473.757 7 -15087989.69622
  19188799.8404  -25057364.76047 -19436410.89463
 91  3 26  2  5 29.9960000  0  4G15G 2G13G 6
  22633605.8404   -5085519.73345  -3880636.46161
  19970575.418   -22378027.771 8 -17437332.02523
  19492903.941   -20047741.898 7 -15111575.17922
  19187475.4654  -25064325.97647 -19441835.18463
 91  3 26  2  5 44.9960000  0  4G15G 2G13G 6
  22636963.2854   -5067858.22145  -3866874.14061
  19971571.8404  -22372787.78948 -17433248.89963
  19487168.074   -20077877.555 7 -15135057.43322
  19186174.1214  -25071163.76347 -19447163.30063
 91  3 26  2  5 59.9960000  0  4G15G 2G13G 6
  22640353.402    -5050064.949 5  -3853009.14421
  19972578.231   -22367498.094 8 -17429127.03923
  19481460.004   -20107873.681 7 -15158430.96022
  19184898.2234  -25077870.85747 -19452389.57463
 91  3 26  2  6 14.9960000  0  4G15G 2G13G 6
  22643759.6374   -5032143.31945  -3839044.13661
  19973592.840   -22362161.847 8 -17424968.89923
  19475778.160   -20137733.754 7 -15181698.47622
  19183645.1524  -25084450.49647 -19457516.53763
 91  3 26  2  6 29.9960000  0  4G15G 2G13G 6
  22647196.9734   -5014089.56345  -3824976.15661
  19974619.8634  -22356775.00048 -17420771.32863
  19470122.332   -20167453.346 7 -15204856.51722
  19182418.0354  -25090898.47247 -19462540.90063
 91  3 26  2  6 44.9960000  0  4G15G 2G13G 6
  22650656.7854   -4995909.20945  -3810809.51761
  19975652.8094  -22351343.28748 -17416538.79663
  19464492.152   -20197038.336 7 -15227909.68422
  19181215.7704  -25097220.20647 -19467466.89863
 91  3 26  2  6 59.9960000  0  4G15G 2G13G 6
  22654141.129    -4977598.699 5  -3796541.48321
  19976694.8954  -22345862.57748 -17412268.08063
  19458888.238   -20226484.640 7 -15250854.78122
  19180037.8244  -25103411.47847 -19472291.23263
 91  3 26  2  7 14.9960000  0  4G15G 2G13G 6
  22657650.684    -4959150.978 5  -3782166.53221
  19977749.3794  -22340325.81248 -17407953.69463
  19453313.637   -20255785.145 7 -15273686.26822
  19178885.0984  -25109465.08547 -19477008.29763
 91  3 26  2  7 29.9960000  0  4G15G 2G13G 6
  22661184.8014   -4940574.78045  -3767691.46661
  19978812.2704  -22334741.34448 -17403602.13063
  19447762.277   -20284948.063 7 -15296410.54622
  19177758.3954  -25115389.33347 -19481624.56563
 91  3 26  2  7 44.9960000  0  4G15G 2G13G 6
  22664746.5984   -4921868.22945  -3753114.83061
  19979884.4494  -22329107.01548 -17399211.72263
  19442240.129   -20313971.344 7 -15319026.01422
  19176654.9734  -25121181.79447 -19486138.13663
 91  3 26  2  7 59.9960000  0  4G15G 2G13G 6
  22668328.285    -4903040.418 5  -3738443.70421
  19980964.3954  -22323431.67248 -17394789.34663
  19436742.129   -20342863.869 7 -15341539.59522
  19175576.6994  -25126851.19447 -19490555.82763
 91  3 26  2  8 14.9960000  0  4G15G 2G13G 6
  22671937.5354   -4884083.45345  -3723671.92361
  19982052.723   -22317707.120 8 -17390328.62823
  19431270.2544  -20371617.32647 -15363944.81562
  19174523.1374  -25132389.08047 -19494871.02863
 91  3 26  2  8 29.9960000  0  4G15G 2G13G 6
  22675566.8954   -4864998.50045  -3708800.44461
  19983151.0594  -22311934.57348 -17385830.50963
  19425824.309   -20400232.852 7 -15386242.55522
  19173494.0204  -25137796.66547 -19499084.70063
 91  3 26  2  8 44.9960000  0  4G15G 2G13G 6
  22679221.285    -4845796.561 5  -3693837.75521
  19984256.5274  -22306124.70248 -17381303.30963
  19420404.379   -20428721.574 7 -15408441.48122
  19172487.6374  -25143084.64847 -19503205.16763
 91  3 26  2  8 59.9960000  0  4G15G 2G13G 6
  22682901.8244   -4826459.78445  -3678770.04661
  19985374.5984  -22300259.12448 -17376732.69463
  19415010.301   -20457064.898 7 -15430527.12022
  19171507.0204  -25148234.49647 -19507218.01063
 91  3 26  2  9 14.9960000  0  4G15G 2G13G 6
  22686604.1684   -4806998.34245  -3663605.16961
  19986497.4814  -22294347.85948 -17372126.48263
  19409642.309   -20485272.648 7 -15452507.11122
  19170551.1454  -25153255.94647 -19511130.79563
 91  3 26  2  9 29.9960000  0  4G15G 2G13G 6
  22690329.1604   -4787416.18745  -3648346.26161
  19987631.3954  -22288394.37048 -17367487.37163
  19404299.2624  -20513348.20447 -15474384.09662
  19169619.9574  -25158152.33947 -19514946.13663
 91  3 26  2  9 44.9960000  0  4G15G 2G13G 6
  22694079.301    -4767714.774 5  -3632994.41721
  19988771.7314  -22282400.29848 -17362816.63263
  19398982.090   -20541293.346 7 -15496159.46122
  19168710.7464  -25162925.30047 -19518665.29463
 91  3 26  2  9 59.9960000  0  4G15G 2G13G 6
  22697854.441    -4747883.091 5  -3617541.07021
  19989922.496   -22276354.308 8 -17358105.44523
  19393691.6374  -20569096.79147 -15517824.41162
  19167829.1604  -25167563.28947 -19522279.27963
 91  3 26  2 10 14.9960000  0  4G15G 2G13G 6
  22701651.270    -4727926.946 5  -3601990.70521
  19991081.5984  -22270262.01848 -17353358.17663
  19388426.145   -20596764.207 7 -15539383.36422
  19166971.7314  -25172071.76447 -19525792.34663
 91  3 26  2 10 29.9960000  0  4G15G 2G13G 6
  22705471.8634   -4707849.91845  -3586346.15561
  19992248.5514  -22264126.95548 -17348577.57563
  19383186.4654  -20624299.10347 -15560839.05962
  19166136.7384  -25176454.14047 -19529207.15663
 91  3 26  2 10 44.9960000  0  4G15G 2G13G 6
  22709316.5434   -4687647.69245  -3570604.01161
  19993425.3564  -22257944.49048 -17343760.03163
  19377971.652   -20651696.435 7 -15582187.55822
  19165328.6764  -25180705.59047 -19532519.93963
 91  3 26  2 10 59.9960000  0  4G15G 2G13G 6
  22713183.9024   -4667319.16745  -3554763.52961
  19994610.7624  -22251713.01648 -17338904.30563
  19372785.637   -20678955.054 7 -15603427.97022
  19164544.0274  -25184824.61347 -19535729.53263
